Date StartTime U_cm/s V_cm/s W_cm/s Ustd_cm/s Vstd_cm/s Wstd_cm/s Uvar_(cm/s)^2 Vvar_(cm/s)^2 Wvar_(cm/s)^2 KE_(m/s)^2 TurbulentKE_(m/s)^2 HorizWindSpeed_cm/s FrictionSpeec_cm/s DragCoef SpeedOfSound_m/s SonicTemperature_C Pressure_mb 
06/05/2014  00:00:00       38.159       15.648       19.729       15.726       16.469       23.769      247.313      271.215      564.985        0.159        0.054       41.243        5.742        0.019      343.593       19.814      859.809
06/05/2014  00:01:00       91.271       -9.498      -14.640       20.929       21.834       24.353      438.010      476.720      593.054        0.507        0.075       91.764       12.783        0.019      343.842       20.239      859.808
06/05/2014  00:02:00       81.615      -19.311       -3.434       23.146       33.213       26.158      535.725     1103.072      684.259        0.468        0.116       83.868       22.464        0.072      343.167       19.089      859.794
06/05/2014  00:03:00       28.641       -8.092       32.959       31.169       36.404       24.574      971.533     1325.255      603.869        0.244        0.145       29.762       19.478        0.428      342.958       18.732      859.804
06/05/2014  00:04:00       28.778      -33.752       19.803       29.909       40.780       29.819      894.575     1663.010      889.164        0.290        0.172       44.355       26.297        0.351      343.392       19.471      859.804
06/05/2014  00:05:00       47.020      -23.603       19.508       37.566       41.343       30.754     1411.200     1709.272      945.793        0.361        0.203       52.612       27.782        0.279      343.215       19.169      859.809
06/05/2014  00:06:00       11.873       -2.315       27.964       34.522       32.278       20.585     1191.765     1041.864      423.734        0.179        0.133       12.096       13.475        1.241      342.852       18.552      859.826
06/05/2014  00:07:00       38.272      -26.702       10.981       43.758       38.982       28.843     1914.806     1519.621      831.911        0.328        0.213       46.666       28.918        0.384      342.735       18.353      859.828
06/05/2014  00:08:00       52.359      -10.554        4.376       41.659       34.972       27.388     1735.483     1223.024      750.079        0.329        0.185       53.412       27.122        0.258      342.699       18.293      859.849
06/05/2014  00:09:00       48.435      -10.878       11.830       22.338       22.090       23.386      499.005      487.956      546.914        0.207        0.077       49.642       14.785        0.089      342.795       18.455      859.854
06/05/2014  00:10:00       49.046      -23.823        1.084       25.108       20.380       19.624      630.401      415.345      385.105        0.220        0.072       54.526       15.508        0.081      342.942       18.703      859.859
06/05/2014  00:11:00      -16.969        9.274       11.089       21.850       16.218       12.068      477.431      263.007      145.629        0.069        0.044       19.338       11.732        0.368      342.923       18.673      859.874
06/05/2014  00:12:00      -57.598      -56.827       -0.697       35.426       36.356       16.442     1255.012     1321.789      270.325        0.470        0.142       80.913       18.660        0.053      343.686       19.973      859.879
06/05/2014  00:13:00      -46.300      -47.020       -3.580       38.588       25.126       18.840     1489.066      631.328      354.962        0.342        0.124       65.989       13.135        0.040      343.928       20.386      859.892
06/05/2014  00:14:00      -16.126      -12.543       14.128       30.968       25.550       18.842      959.047      652.802      355.023        0.129        0.098       20.430       18.388        0.810      343.580       19.790      859.893
06/05/2014  00:15:00      -69.021      -52.664        5.963       45.617       52.161       25.931     2080.884     2720.790      672.430        0.652        0.274       86.818       20.099        0.054      343.771       20.118      859.901
06/05/2014  00:16:00      -27.093      -69.291        2.933       24.376       29.322       18.808      594.188      859.772      353.723        0.368        0.090       74.399       13.515        0.033      343.822       20.205      859.905
06/05/2014  00:17:00      -49.165      -85.483        3.843       48.121       81.138       29.516     2315.654     6583.447      871.213        0.975        0.489       98.613       37.676        0.146      343.702       20.000      859.906
06/05/2014  00:18:00       -6.483       -7.936       17.625       22.151       27.821       22.890      490.662      774.020      523.941        0.110        0.089       10.248       16.400        2.561      343.306       19.325      859.905
06/05/2014  00:19:00      -35.276      -60.954        0.699       37.406       36.932       17.337     1399.220     1363.997      300.577        0.401        0.153       70.425       15.823        0.050      343.713       20.019      859.898
06/05/2014  00:20:00        5.498      -18.644       -9.093       26.141       27.632       21.832      683.371      763.514      476.615        0.119        0.096       19.438       12.363        0.405      343.537       19.716      859.896
06/05/2014  00:21:00      -28.122      -41.741       -6.094       61.425       43.482       29.758     3773.024     1890.699      885.561        0.456        0.327       50.331       29.173        0.336      343.662       19.931      859.913
06/05/2014  00:22:00      -80.990     -117.254       -7.128       53.063       59.941       35.093     2815.734     3592.976     1231.551        1.400        0.382      142.506       30.175        0.045      343.690       19.978      859.909
06/05/2014  00:23:00      -66.473     -100.536        6.839       66.301       52.670       37.807     4395.827     2774.126     1429.361        1.158        0.430      120.525       36.166        0.090      343.669       19.943      859.918
06/05/2014  00:24:00      -83.778     -122.695       -0.544       50.019       56.466       28.149     2501.940     3188.455      792.382        1.428        0.324      148.569       28.011        0.036      343.686       19.972      859.924
06/05/2014  00:25:00      -95.224      -94.121        2.230       53.543       51.008       31.483     2866.854     2601.844      991.182        1.219        0.323      133.889       16.053        0.014      343.666       19.937      859.917
06/05/2014  00:26:00      -73.864      -69.913        5.350       62.179       66.029       35.806     3866.232     4359.865     1282.049        0.994        0.475      101.704       38.107        0.140      343.644       19.901      859.907
06/05/2014  00:27:00      -25.442      -56.172        7.140       46.524       47.158       25.262     2164.517     2223.898      638.146        0.444        0.251       61.665       22.378        0.132      343.603       19.830      859.911
06/05/2014  00:28:00      -80.441      -90.829       -1.608       40.240       41.971       21.551     1619.230     1761.574      464.467        0.928        0.192      121.328       18.624        0.024      343.650       19.910      859.902
06/05/2014  00:29:00      -38.709      -71.992        4.994       35.263       28.309       18.918     1243.461      801.420      357.893        0.455        0.120       81.739       15.560        0.036      343.675       19.954      859.885
06/05/2014  00:30:00      -20.919      -35.206        3.032       51.645       27.841       25.862     2667.189      775.144      668.851        0.290        0.206       40.952        7.266        0.031      343.550       19.739      859.874
06/05/2014  00:31:00      -48.159      -36.961        3.126       38.538       33.460       20.616     1485.158     1119.579      425.023        0.336        0.151       60.707       14.013        0.053      343.483       19.625      859.871
06/05/2014  00:32:00      -52.274      -40.149       -0.987       50.636       25.298       19.569     2564.023      639.998      382.962        0.397        0.179       65.913       17.798        0.073      343.494       19.645      859.879
06/05/2014  00:33:00      -39.631      -51.141        7.546       64.072       31.253       21.103     4105.173      976.771      445.341        0.488        0.276       64.700       22.547        0.121      343.387       19.464      859.869
06/05/2014  00:34:00      -40.953      -29.734        7.039       35.240       34.483       17.689     1241.886     1189.075      312.912        0.268        0.137       50.609       19.815        0.153      343.394       19.475      859.873
06/05/2014  00:35:00      -59.802      -38.371       -1.904       35.648       27.720       21.380     1270.762      768.398      457.100        0.377        0.125       71.053       18.620        0.069      343.358       19.412      859.858
06/05/2014  00:36:00      -93.676      -27.438       -2.001       33.882       30.421       19.579     1147.971      925.450      383.353        0.599        0.123       97.611       15.916        0.027      343.332       19.368      859.868
06/05/2014  00:37:00      -88.864      -33.751       -3.612       33.481       29.858       20.924     1120.985      891.520      437.800        0.575        0.123       95.058       15.479        0.027      343.184       19.117      859.865
06/05/2014  00:38:00      -92.261      -21.551       -2.928       37.998       32.075       22.837     1443.865     1028.837      521.518        0.599        0.150       94.744       22.468        0.056      342.842       18.535      859.853
06/05/2014  00:39:00      -82.921      -48.144       -7.055       24.717       25.250       18.249      610.912      637.544      333.029        0.541        0.079       95.884       12.033        0.016      342.783       18.433      859.853
06/05/2014  00:40:00      -53.230      -45.640        6.306       55.899       26.159       25.382     3124.743      684.301      644.223        0.470        0.223       70.118       33.609        0.230      342.736       18.354      859.846
06/05/2014  00:41:00      -74.308      -47.521        8.907       44.760       26.847       23.284     2003.414      720.768      542.150        0.556        0.163       88.203       24.585        0.078      342.714       18.317      859.857
06/05/2014  00:42:00      -93.659      -66.102        0.705       36.935       32.591       21.153     1364.199     1062.192      447.468        0.801        0.144      114.636       16.538        0.021      342.758       18.392      859.857
06/05/2014  00:43:00     -106.695      -58.773       -0.749       36.261       30.037       24.339     1314.878      902.212      592.367        0.882        0.140      121.811       19.460        0.026      342.896       18.626      859.852
06/05/2014  00:44:00     -116.411      -74.851       -4.695       38.669       32.320       23.390     1495.289     1044.607      547.091        1.113        0.154      138.399       20.536        0.022      342.961       18.737      859.847
06/05/2014  00:45:00      -89.358      -63.960        4.690       32.861       53.977       18.614     1079.832     2913.487      346.481        0.822        0.217      109.890       16.343        0.022      342.989       18.785      859.853
06/05/2014  00:46:00      -82.209      -66.906        0.333       58.436       32.507       23.840     3414.747     1056.692      568.347        0.814        0.252      105.994       12.431        0.014      342.998       18.800      859.846
06/05/2014  00:47:00      -35.152      -52.431       14.493       40.546       41.255       22.846     1643.942     1701.964      521.949        0.403        0.193       63.124       21.499        0.116      342.929       18.683      859.832
06/05/2014  00:48:00      -58.253      -71.172        5.720       50.453       39.436       27.298     2545.542     1555.212      745.163        0.667        0.242       91.972       30.105        0.107      343.014       18.826      859.816
06/05/2014  00:49:00      -67.598      -94.845       -1.636       55.011       35.861       25.225     3026.166     1285.981      636.319        0.926        0.247      116.469       23.247        0.040      343.004       18.810      859.823
06/05/2014  00:50:00      -46.877      -64.697        0.499       32.740       26.288       21.148     1071.895      691.055      447.258        0.430        0.111       79.895       18.804        0.055      342.988       18.783      859.829
06/05/2014  00:51:00     -115.181      -70.251      -13.168       20.644       33.703       15.487      426.159     1135.874      239.836        1.009        0.090      134.914       11.890        0.008      342.973       18.760      859.841
06/05/2014  00:52:00      -79.214      -39.018       -0.858       29.955       31.048       15.134      897.288      963.991      229.023        0.494        0.105       88.303       12.527        0.020      342.938       18.699      859.837
06/05/2014  00:53:00      -86.078      -11.530       -7.662       30.219       38.002       17.112      913.192     1444.132      292.813        0.513        0.133       86.847       19.120        0.048      342.849       18.548      859.842
06/05/2014  00:54:00      -85.415       25.236       -5.166       27.310       22.100       14.431      745.823      488.409      208.263        0.470        0.072       89.065       13.047        0.021      342.568       18.069      859.853
06/05/2014  00:55:00     -103.510       22.451       -8.951       34.287       26.469       19.699     1175.632      700.634      388.069        0.678        0.113      105.917       13.211        0.016      342.386       17.758      859.848
06/05/2014  00:56:00     -121.309       36.659      -11.208       57.261       33.206       21.306     3278.779     1102.668      453.966        1.051        0.242      126.727       21.304        0.028      342.351       17.700      859.844
06/05/2014  00:57:00     -119.268       13.003       -7.400       41.283       30.874       21.903     1704.294      953.223      479.755        0.879        0.157      119.975       21.703        0.033      342.347       17.693      859.839
06/05/2014  00:58:00     -121.665      -46.208       -0.779       33.275       32.800       29.139     1107.255     1075.842      849.107        0.998        0.152      130.145       24.992        0.037      342.187       17.421      859.847
06/05/2014  00:59:00     -113.769      -36.293       -8.718       34.535       21.948       18.340     1192.685      481.717      336.351        0.817        0.101      119.417       17.413        0.021      342.178       17.406      859.838
06/05/2014  01:00:00      -96.240      -41.643       -5.321       25.168       31.296       20.177      633.419      979.466      407.112        0.652        0.101      104.863       13.302        0.016      342.132       17.327      859.815
06/05/2014  01:01:00      -76.156      -14.588        0.675       39.985       34.914       21.996     1598.787     1218.968      483.840        0.466        0.165       77.540       22.900        0.087      342.077       17.235      859.811
06/05/2014  01:02:00     -117.031        1.527       -4.400       40.710       25.964       22.490     1657.282      674.152      505.787        0.828        0.142      117.041       23.225        0.039      342.043       17.177      859.814
06/05/2014  01:03:00      -70.409        3.259       -1.988       22.841       33.089       16.437      521.705     1094.874      270.166        0.343        0.094       70.484       13.071        0.034      342.053       17.194      859.815
06/05/2014  01:04:00     -129.125       27.045      -13.883       33.551       24.846       18.644     1125.679      617.321      347.596        0.984        0.105      131.927       15.244        0.013      342.109       17.288      859.819
06/05/2014  01:05:00     -141.244       36.891      -20.583       33.924       34.876       22.542     1150.827     1216.331      508.124        1.230        0.144      145.982       17.710        0.015      342.076       17.232      859.824
06/05/2014  01:06:00     -152.297       46.420      -33.590       38.672       54.471       19.586     1495.502     2967.046      383.604        1.566        0.242      159.215       21.106        0.018      342.071       17.224      859.837
06/05/2014  01:07:00      -51.416       13.465       -6.018       30.560       29.158       23.437      933.911      850.214      549.283        0.260        0.117       53.150       22.037        0.172      341.960       17.035      859.843
06/05/2014  01:08:00      -39.204        2.486       -6.643       37.309       28.990       18.084     1391.950      840.448      327.022        0.207        0.128       39.283       17.329        0.195      342.064       17.213      859.849
06/05/2014  01:09:00       -5.310      -17.498        3.483       35.828       16.542       21.465     1283.639      273.645      460.758        0.118        0.101       18.286       24.916        1.857      342.066       17.215      859.863
06/05/2014  01:10:00        5.502        4.886       18.576       15.104       13.256       15.308      228.143      175.708      234.330        0.052        0.032        7.358       12.218        2.757      341.805       16.772      859.860
06/05/2014  01:11:00      -86.177      -40.327       -6.806       19.964       19.096       12.057      398.555      364.663      145.365        0.500        0.045       95.146        8.505        0.008      342.045       17.181      859.853
06/05/2014  01:12:00     -101.522      -23.920      -13.005       14.271       15.760       12.239      203.653      248.393      149.798        0.582        0.030      104.302        6.397        0.004      341.926       16.977      859.855
06/05/2014  01:13:00     -102.577      -34.371      -17.670       15.109       15.392       10.958      228.267      236.925      120.075        0.630        0.029      108.182        6.009        0.003      341.827       16.811      859.842
06/05/2014  01:14:00      -89.030      -18.200      -10.769       10.946       15.723        6.573      119.807      247.199       43.204        0.439        0.021       90.871        3.042        0.001      341.840       16.831      859.821
06/05/2014  01:15:00     -102.367      -45.226       -8.668       16.419       13.604       12.377      269.593      185.078      153.178        0.660        0.030      111.913        9.324        0.007      341.846       16.843      859.819
06/05/2014  01:16:00      -81.111      -38.177       -6.721       26.971       20.089       11.633      727.417      403.587      135.334        0.467        0.063       89.647        7.970        0.008      341.985       17.078      859.825
06/05/2014  01:17:00      -95.829      -34.165       -6.520       18.277       16.187        8.536      334.031      262.003       72.863        0.553        0.033      101.737        6.661        0.004      342.010       17.120      859.810
06/05/2014  01:18:00      -74.123        2.109       -3.994       24.096       19.447       15.798      580.623      378.173      249.579        0.336        0.060       74.153       12.605        0.029      342.081       17.242      859.803
06/05/2014  01:19:00     -107.156      -12.452       -6.687       47.289       23.031       19.122     2236.250      530.413      365.635        0.741        0.157      107.877       22.559        0.044      341.979       17.067      859.796
06/05/2014  01:20:00     -113.510      -37.940       -3.707       32.175       20.969       17.589     1035.241      439.710      309.388        0.806        0.089      119.682       19.469        0.026      341.957       17.031      859.798
06/05/2014  01:21:00      -80.466      -44.724       -2.239       26.644       19.168       12.335      709.905      367.406      152.158        0.485        0.061       92.060        7.695        0.007      342.066       17.216      859.808
06/05/2014  01:22:00     -104.248       -9.171       -9.561       19.853       17.782       11.361      394.146      316.208      129.081        0.594        0.042      104.651        9.129        0.008      342.064       17.212      859.802
06/05/2014  01:23:00     -107.629       -5.778      -12.374       37.417       30.633       20.828     1400.043      938.360      433.817        0.727        0.139      107.784       19.772        0.034      341.831       16.818      859.823
06/05/2014  01:24:00     -135.708       35.395       -5.340       70.590       38.945       25.064     4982.945     1516.750      628.209        1.341        0.356      140.248       25.039        0.032      341.808       16.776      859.840
06/05/2014  01:25:00     -125.841       31.204       -9.367       60.404       24.795       19.542     3648.644      614.787      381.901        1.077        0.232      129.652       17.022        0.017      341.970       17.053      859.837
06/05/2014  01:26:00      -19.919       26.708       -6.345       19.176       12.132       11.124      367.721      147.184      123.734        0.089        0.032       33.318       11.574        0.121      342.129       17.322      859.841
06/05/2014  01:27:00       12.952       -1.017       -2.946       14.338       12.879       13.045      205.586      165.863      170.177        0.036        0.027       12.992        8.556        0.434      342.170       17.394      859.845
06/05/2014  01:28:00       -7.036      -17.112        5.217       29.851       13.402       10.495      891.092      179.619      110.143        0.077        0.059       18.502        6.607        0.128      341.948       17.015      859.845
06/05/2014  01:29:00      -88.329      -28.207      -11.644       11.591       10.138        8.370      134.353      102.781       70.055        0.452        0.015       92.723        4.872        0.003      341.793       16.752      859.850
06/05/2014  01:30:00     -101.669       -4.689      -17.122       20.101       14.731       11.592      404.045      217.012      134.384        0.570        0.038      101.777        8.254        0.007      341.812       16.786      859.855
06/05/2014  01:31:00      -69.721      -11.670      -10.370       23.013       17.182       10.244      529.608      295.221      104.930        0.302        0.046       70.691       10.182        0.021      341.912       16.956      859.839
06/05/2014  01:32:00      -69.900       -8.355       -8.542       11.019       11.466        8.096      121.423      131.458       65.543        0.267        0.016       70.398        4.664        0.004      342.074       17.230      859.841
06/05/2014  01:33:00      -55.117      -13.295       -7.489        9.745       16.097        9.998       94.964      259.120       99.958        0.186        0.023       56.697        3.254        0.003      342.027       17.151      859.852
06/05/2014  01:34:00      -50.751      -39.180      -11.661       12.842       17.717       12.972      164.909      313.898      168.263        0.245        0.032       64.115        3.583        0.003      341.899       16.932      859.847
06/05/2014  01:35:00      -49.098      -28.645      -12.812       19.100       14.042        9.618      364.815      197.187       92.502        0.202        0.033       56.844        3.852        0.005      341.900       16.933      859.845
06/05/2014  01:36:00      -97.898      -33.858      -12.053       19.261       15.749        9.786      370.998      248.043       95.770        0.580        0.036      103.588        9.076        0.008      341.877       16.895      859.862
06/05/2014  01:37:00      -79.907      -30.845      -12.796       17.987       14.002       11.930      323.515      196.068      142.323        0.408        0.033       85.654        7.062        0.007      341.884       16.907      859.869
06/05/2014  01:38:00      -96.455      -23.125      -18.862       20.785       17.601       11.597      432.035      309.794      134.494        0.554        0.044       99.189        7.044        0.005      341.851       16.849      859.878
06/05/2014  01:39:00     -112.984      -29.252      -17.866       12.060       12.626        7.909      145.436      159.423       62.549        0.715        0.018      116.709        3.866        0.001      341.789       16.744      859.897
06/05/2014  01:40:00      -86.552      -34.715      -14.349       10.133       11.686        8.779      102.676      136.563       77.075        0.461        0.016       93.255        7.186        0.006      341.730       16.648      859.901
06/05/2014  01:41:00      -99.498      -20.838      -11.037       10.394       11.845        9.290      108.038      140.309       86.311        0.540        0.017      101.656        5.639        0.003      341.812       16.783      859.908
06/05/2014  01:42:00     -121.070       -9.307      -17.380       20.245       14.697       13.348      409.873      215.990      178.169        0.793        0.040      121.427       10.908        0.008      341.722       16.633      859.922
06/05/2014  01:43:00     -119.423      -23.827      -15.801       20.717       13.821       11.506      429.182      191.025      132.394        0.792        0.038      121.776        7.521        0.004      341.721       16.631      859.933
06/05/2014  01:44:00      -64.492       -7.589       -8.824       27.047       21.977       12.952      731.526      482.981      167.764        0.284        0.069       64.937        8.872        0.019      341.639       16.492      859.938
06/05/2014  01:45:00      -66.616        6.731      -10.349       20.448       14.168       13.599      418.111      200.745      184.938        0.270        0.040       66.955        9.597        0.021      341.673       16.550      859.949
06/05/2014  01:46:00      -43.435      -11.558      -13.953       18.867       16.022       11.123      355.957      256.696      123.726        0.148        0.037       44.946        9.363        0.043      341.728       16.642      859.958
06/05/2014  01:47:00      -51.985       10.604      -16.036       11.985       15.326       11.054      143.631      234.889      122.182        0.179        0.025       53.056        8.366        0.025      342.089       17.255      859.959
06/05/2014  01:48:00       -7.083       -6.459        8.613       19.603       12.364        9.316      384.287      152.869       86.788        0.039        0.031        9.586        7.916        0.682      341.794       16.755      859.947
06/05/2014  01:49:00        9.247       12.916       12.476       16.626       12.807       16.779      276.432      164.017      281.523        0.056        0.036       15.885        8.062        0.258      341.684       16.568      859.939
06/05/2014  01:50:00      -29.877        0.627        4.511        7.922        8.505        6.828       62.763       72.330       46.625        0.055        0.009       29.884        5.309        0.032      341.952       17.023      859.949
06/05/2014  01:51:00      -31.199       -7.772        3.802       16.074        9.826        8.404      258.385       96.547       70.629        0.074        0.021       32.152       10.422        0.105      341.914       16.958      859.961
06/05/2014  01:52:00      -28.248      -18.143       -0.535       13.825        7.775       10.537      191.144       60.446      111.033        0.074        0.018       33.573       10.106        0.091      341.967       17.048      859.955
06/05/2014  01:53:00      -66.611      -12.526      -14.496       18.894        9.764        9.778      356.968       95.338       95.604        0.268        0.027       67.779        3.779        0.003      341.801       16.766      859.950
06/05/2014  01:54:00      -88.622      -16.457      -16.178       23.166       15.875       12.399      536.645      252.024      153.744        0.466        0.047       90.137       12.983        0.021      341.784       16.738      859.931
06/05/2014  01:55:00      -98.274      -27.604      -18.811       19.093       20.597       13.943      364.541      424.235      194.406        0.588        0.049      102.077       11.561        0.013      341.728       16.643      859.911
06/05/2014  01:56:00     -106.734      -41.015      -17.322       13.489       19.097       13.102      181.966      364.714      171.653        0.705        0.036      114.343        7.629        0.004      341.755       16.687      859.900
06/05/2014  01:57:00     -128.822      -41.492      -19.445       23.110       17.475       10.647      534.071      305.385      113.354        0.982        0.048      135.339        2.795        0.000      341.704       16.603      859.917
06/05/2014  01:58:00      -70.710      -44.746      -14.665       17.212       17.965       13.726      296.262      322.735      188.393        0.401        0.040       83.678       11.367        0.018      341.656       16.520      859.920
06/05/2014  01:59:00      -94.169      -16.487       -8.568       30.527       23.634       16.291      931.907      558.562      265.400        0.548        0.088       95.601       18.751        0.038      341.594       16.413      859.918
06/05/2014  02:00:00      -87.519       -6.530      -11.077       30.747       20.231       14.101      945.387      409.297      198.825        0.469        0.078       87.762       15.502        0.031      341.721       16.630      859.921
06/05/2014  02:01:00      -85.722       -4.197       -9.373       23.136       16.660       12.218      535.260      277.569      149.284        0.421        0.048       85.825        9.582        0.012      341.815       16.789      859.945
06/05/2014  02:02:00      -45.672       -9.499       -7.705       16.970       10.463        6.931      287.972      109.466       48.034        0.134        0.022       46.650        4.261        0.008      342.053       17.193      859.949
06/05/2014  02:03:00      -25.208       -7.725        1.996       22.207       13.395        9.792      493.168      179.422       95.879        0.073        0.038       26.365        7.307        0.077      342.380       17.750      859.943
06/05/2014  02:04:00      -73.372      -23.203       -9.504       17.432       17.923       10.781      303.880      321.235      116.241        0.338        0.037       76.954        8.767        0.013      342.060       17.207      859.941
06/05/2014  02:05:00      -70.454      -47.543       -9.429       12.439       11.183       10.883      154.723      125.065      118.442        0.386        0.020       84.995        6.979        0.007      341.875       16.892      859.952
06/05/2014  02:06:00      -61.076      -38.154       -5.630       10.395       12.612        6.362      108.050      159.058       40.476        0.276        0.015       72.014        2.961        0.002      341.934       16.992      859.946
06/05/2014  02:07:00      -37.015      -21.807       -7.187       36.564       15.645        7.582     1336.944      244.762       57.486        0.177        0.082       42.961       12.830        0.089      341.908       16.946      859.943
06/05/2014  02:08:00      -14.877       -9.965       -3.623       15.013        5.750        4.703      225.387       33.057       22.118        0.031        0.014       17.906        3.809        0.045      341.965       17.044      859.953
06/05/2014  02:09:00      -40.621      -12.107       -1.740        7.769       17.718        7.857       60.357      313.940       61.734        0.112        0.022       42.387        6.617        0.024      342.116       17.303      859.953
06/05/2014  02:10:00      -53.942      -16.217       -8.233       17.902        9.292        7.851      320.478       86.344       61.645        0.185        0.023       56.327        7.236        0.017      342.240       17.511      859.944
06/05/2014  02:11:00      -42.839      -22.749       -7.073       12.958       10.541        5.999      167.900      111.114       35.992        0.136        0.016       48.505        2.706        0.003      342.202       17.446      859.927
06/05/2014  02:12:00      -43.115      -28.717       -7.935       26.664       11.904        9.755      710.986      141.698       95.163        0.185        0.047       51.803       12.266        0.056      342.112       17.295      859.904
06/05/2014  02:13:00      -82.857      -32.682       -6.177       21.471       19.183       11.586      461.011      368.003      134.235        0.447        0.048       89.069        8.518        0.009      342.027       17.150      859.902
06/05/2014  02:14:00      -58.726      -37.301        0.535       20.231       22.125       14.616      409.274      489.506      213.625        0.298        0.056       69.571       10.733        0.024      342.057       17.201      859.913
06/05/2014  02:15:00      -69.428      -22.882       -3.668       12.773       12.495        8.920      163.150      156.133       79.558        0.288        0.020       73.102        2.967        0.002      341.961       17.038      859.913
06/05/2014  02:16:00      -85.715      -58.846       -7.578       25.731       22.543       14.423      662.061      508.182      208.035        0.612        0.069      103.971        7.324        0.005      341.894       16.923      859.919
06/05/2014  02:17:00      -96.357      -55.542       -8.998       28.832       16.090       14.629      831.275      258.899      213.994        0.688        0.065      111.219        9.599        0.007      341.783       16.735      859.924
06/05/2014  02:18:00      -73.667      -39.105        2.133       37.342       16.469       12.263     1394.450      271.215      150.393        0.439        0.091       83.403       15.042        0.033      341.847       16.843      859.936
06/05/2014  02:19:00      -37.628      -26.331       -3.224       14.175       13.549       10.722      200.923      183.579      114.962        0.131        0.025       45.926        7.853        0.029      341.934       16.991      859.928
06/05/2014  02:20:00      -62.150      -10.214       -3.667       13.646       10.808        9.863      186.222      116.803       97.286        0.219        0.020       62.984        7.341        0.014      341.963       17.041      859.928
06/05/2014  02:21:00      -74.626      -23.161      -10.158       16.504       10.384        8.296      272.392      107.837       68.830        0.333        0.022       78.138        4.339        0.003      341.961       17.038      859.927
06/05/2014  02:22:00      -97.360      -14.075      -10.145       23.274       19.425       11.376      541.699      377.341      129.410        0.541        0.052       98.372        9.440        0.009      341.874       16.890      859.930
06/05/2014  02:23:00     -100.483      -15.270       -6.460       16.776       12.513       14.788      281.418      156.572      218.686        0.551        0.033      101.636       11.737        0.013      341.811       16.781      859.927
06/05/2014  02:24:00      -91.998      -19.398       -2.757       27.872       17.966       13.012      776.851      322.778      169.309        0.506        0.063       94.021       14.374        0.023      341.884       16.906      859.930
06/05/2014  02:25:00     -108.483      -25.770       -1.386       29.098       27.532       16.479      846.719      758.003      271.547        0.716        0.094      111.502       13.741        0.015      342.002       17.104      859.930
06/05/2014  02:26:00     -103.054      -28.348      -10.948       18.978       21.184       12.632      360.182      448.779      159.577        0.626        0.048      106.882        9.793        0.008      341.934       16.992      859.927
06/05/2014  02:27:00      -94.014      -53.903        0.336       19.317       14.543       12.636      373.145      211.511      159.667        0.624        0.037      108.370       11.454        0.011      341.924       16.974      859.917
06/05/2014  02:28:00     -109.602      -46.996       -3.439       14.295       15.557       11.030      204.353      242.011      121.667        0.740        0.028      119.252        8.128        0.005      341.967       17.049      859.915
06/05/2014  02:29:00      -89.961      -10.135       -4.207       19.137       13.287        8.337      366.222      176.546       69.511        0.441        0.031       90.530        8.125        0.008      342.113       17.295      859.907
06/05/2014  02:30:00      -69.357      -10.552       -3.064       25.431       24.062       12.214      646.733      578.967      149.174        0.315        0.069       70.155       12.365        0.031      341.937       16.995      859.902
06/05/2014  02:31:00     -110.213      -25.502       -3.112       34.863       36.832       19.566     1215.441     1356.587      382.840        0.788        0.148      113.125       14.611        0.017      341.883       16.905      859.899
06/05/2014  02:32:00     -116.483       -5.768      -10.672       45.854       36.144       25.759     2102.590     1306.353      663.529        0.889        0.204      116.626       24.905        0.046      341.813       16.785      859.903
06/05/2014  02:33:00     -144.080       27.969      -13.548       46.038       35.606       19.403     2119.477     1267.820      376.479        1.274        0.188      146.770       12.964        0.008      341.877       16.895      859.910
06/05/2014  02:34:00     -176.056       43.523      -13.869       29.638       24.562       14.035      878.437      603.312      196.971        1.738        0.084      181.356        6.703        0.001      341.974       17.059      859.927
06/05/2014  02:35:00     -132.993      -10.998      -11.008       18.083       24.276       15.886      326.994      589.309      252.352        0.955        0.058      133.446       14.026        0.011      341.940       17.001      859.925
06/05/2014  02:36:00     -135.514        7.410      -12.318       37.184       15.618       12.253     1382.643      243.929      150.146        1.017        0.089      135.717       17.988        0.018      341.819       16.797      859.916
06/05/2014  02:37:00      -59.265      -13.490       -4.302       33.384       23.365       12.260     1114.460      545.945      150.311        0.276        0.091       60.780       11.549        0.036      341.733       16.651      859.900
06/05/2014  02:38:00     -128.626      -12.707       -7.921       41.835       28.145       21.966     1750.139      792.137      482.508        0.990        0.151      129.252       21.134        0.027      341.646       16.504      859.902
06/05/2014  02:39:00     -102.927      -24.252        2.153       45.909       27.457       22.636     2107.635      753.882      512.407        0.728        0.169      105.745       24.253        0.053      341.475       16.212      859.920
06/05/2014  02:40:00      -47.489        1.949        3.534       36.711       32.449       21.368     1347.703     1052.943      456.587        0.256        0.143       47.529       20.986        0.195      341.419       16.119      859.916
06/05/2014  02:41:00      -97.927       -7.477       -9.589       27.662       28.979       18.047      765.199      839.787      325.700        0.583        0.097       98.212       12.023        0.015      341.473       16.211      859.921
06/05/2014  02:42:00      -97.850      -48.193       -4.742       21.157       20.624       13.785      447.608      425.363      190.036        0.649        0.053      109.075        7.595        0.005      341.643       16.499      859.907
06/05/2014  02:43:00      -27.504      -22.031       13.845       40.847       21.621       18.535     1668.490      467.478      343.539        0.196        0.124       35.240       18.979        0.290      341.612       16.446      859.896
06/05/2014  02:44:00     -106.510      -40.310       -1.760       18.871       27.254       16.201      356.097      742.756      262.466        0.717        0.068      113.883        8.446        0.006      341.793       16.752      859.898
06/05/2014  02:45:00     -121.233      -50.728       -3.625       15.459       18.192       10.852      238.988      330.960      117.768        0.899        0.034      131.418        6.555        0.002      341.702       16.597      859.898
06/05/2014  02:46:00      -87.665      -58.503        2.965       21.399       24.344       16.671      457.906      592.642      277.924        0.622        0.066      105.393       11.236        0.011      341.671       16.546      859.890
06/05/2014  02:47:00      -82.212      -97.258        2.757       33.937       23.629       18.624     1151.702      558.308      346.850        0.914        0.103      127.350       16.926        0.018      341.883       16.906      859.892
06/05/2014  02:48:00     -116.349      -64.311       -0.585       30.906       42.724       22.250      955.202     1825.336      495.043        1.047        0.164      132.940       25.505        0.037      341.816       16.791      859.900
06/05/2014  02:49:00     -131.272      -19.489       -2.855       24.810       33.348       18.278      615.546     1112.068      334.092        0.984        0.103      132.711       13.868        0.011      341.795       16.755      859.909
06/05/2014  02:50:00      -56.431      -42.281       -0.657       50.575       26.953       15.473     2557.849      726.471      239.401        0.425        0.176       70.513       18.140        0.066      341.746       16.672      859.904
06/05/2014  02:51:00      -47.336      -42.241        4.073       28.688       26.905       17.372      823.028      723.871      301.789        0.294        0.092       63.443       11.790        0.035      341.764       16.704      859.893
06/05/2014  02:52:00      -70.957      -59.267       -5.147       32.389       30.800       14.438     1049.062      948.652      208.449        0.539        0.110       92.453       13.394        0.021      341.699       16.594      859.903
06/05/2014  02:53:00     -101.355      -46.187       -7.512       48.355       25.677       21.874     2338.166      659.308      478.488        0.797        0.174      111.383       20.209        0.033      341.717       16.624      859.916
06/05/2014  02:54:00      -82.596      -76.517       -1.288       29.979       34.589       15.075      898.760     1196.407      227.255        0.750        0.116      112.592       14.005        0.015      341.692       16.583      859.917
06/05/2014  02:55:00      -84.290     -124.883       -5.808       33.931       28.473       23.924     1151.280      810.708      572.355        1.263        0.127      150.667       21.242        0.020      341.791       16.749      859.917
06/05/2014  02:56:00      -43.524      -77.341       -1.659       33.725       31.642       22.245     1137.387     1001.240      494.834        0.526        0.132       88.746       20.397        0.053      341.933       16.990      859.930
06/05/2014  02:57:00      -43.533      -50.648        3.053       34.493       39.623       18.037     1189.779     1570.007      325.328        0.378        0.154       66.785       16.682        0.062      341.892       16.921      859.928
06/05/2014  02:58:00      -72.224      -50.742       -8.744       46.489       23.937       20.298     2161.258      572.999      412.005        0.551        0.157       88.267       21.143        0.057      341.887       16.912      859.918
06/05/2014  02:59:00      -69.975      -13.558       -7.321       18.978       23.548       15.513      360.155      554.498      240.649        0.314        0.058       71.276       10.797        0.023      341.753       16.685      859.913
06/05/2014  03:00:00      -72.117      -25.513       -6.017       22.798       22.055       10.714      519.727      486.428      114.798        0.350        0.056       76.497        8.274        0.012      341.609       16.440      859.914
06/05/2014  03:01:00      -51.085      -27.952        0.254       48.145       21.299       10.865     2317.972      453.659      118.053        0.314        0.144       58.233       14.648        0.063      341.564       16.366      859.928
06/05/2014  03:02:00       11.854        8.261       16.917       21.435       22.718       10.936      459.442      516.094      119.591        0.079        0.055       14.448        8.256        0.327      341.422       16.124      859.926
06/05/2014  03:03:00      -36.877       -3.086        4.238       27.439       20.743       12.822      752.903      430.275      164.403        0.137        0.067       37.006       15.552        0.177      341.491       16.241      859.926
06/05/2014  03:04:00      -63.790       -9.563        0.513       34.168       25.420       16.501     1167.462      646.196      272.284        0.312        0.104       64.503       14.599        0.051      341.400       16.086      859.931
06/05/2014  03:05:00      -98.120      -59.204       -2.019       49.551       25.869       15.219     2455.343      669.216      231.628        0.825        0.168      114.597       14.983        0.017      341.358       16.014      859.938
06/05/2014  03:06:00      -85.943      -22.528        6.737       40.259       31.489       14.396     1620.781      991.537      207.245        0.538        0.141       88.847       15.702        0.031      341.370       16.036      859.944
06/05/2014  03:07:00      -87.542       14.584       -4.681       31.857       22.567       15.521     1014.866      509.272      240.900        0.483        0.088       88.749       13.650        0.024      341.212       15.769      859.933
06/05/2014  03:08:00     -101.564      -17.094       -4.552       34.615       25.668       18.079     1198.173      658.872      326.863        0.641        0.109      102.992       17.179        0.028      341.179       15.713      859.932
06/05/2014  03:09:00     -127.372      -62.999      -10.302       26.617       19.522       18.759      708.484      381.108      351.901        1.087        0.072      142.101       14.700        0.011      341.202       15.752      859.937
06/05/2014  03:10:00     -131.300      -50.649      -10.411       28.422       18.121       18.340      807.830      328.355      336.342        1.069        0.074      140.730       18.273        0.017      341.190       15.731      859.941
06/05/2014  03:11:00      -86.521      -15.558       -6.520       36.933       25.943       16.748     1364.011      673.032      280.500        0.504        0.116       87.908       19.250        0.048      341.062       15.515      859.936
06/05/2014  03:12:00      -48.667       -9.312        4.530       34.560       27.573       18.224     1194.389      760.245      332.132        0.238        0.114       49.549       15.379        0.096      341.005       15.417      859.930
06/05/2014  03:13:00      -60.345      -10.749        3.695       33.059       39.562       19.707     1092.906     1565.178      388.377        0.341        0.152       61.295       15.189        0.061      341.024       15.449      859.928
06/05/2014  03:14:00      -60.401      -30.885        2.209       25.030       21.404       15.339      626.507      458.134      235.294        0.296        0.066       67.839       10.926        0.026      340.993       15.397      859.922
06/05/2014  03:15:00      -67.661      -28.845       -6.592       29.631       20.306       14.402      877.991      412.315      207.413        0.348        0.075       73.553       15.236        0.043      341.140       15.646      859.930
06/05/2014  03:16:00      -59.991      -42.359       -0.852       31.265       27.526       19.873      977.508      757.684      394.955        0.376        0.107       73.438       13.461        0.034      341.082       15.548      859.924
06/05/2014  03:17:00      -77.880      -56.975       -5.142       33.865       27.061       21.667     1146.837      732.276      469.438        0.584        0.117       96.496       19.182        0.040      341.008       15.423      859.918
06/05/2014  03:18:00     -128.610      -61.845       -3.251       34.597       30.308       23.381     1196.964      918.604      546.666        1.152        0.133      142.707       14.463        0.010      340.905       15.249      859.902
06/05/2014  03:19:00     -102.576      -27.806        2.208       39.489       37.749       23.155     1559.383     1424.964      536.143        0.741        0.176      106.279       22.631        0.045      340.789       15.052      859.899
06/05/2014  03:20:00     -110.637       -4.621        1.379       31.449       33.745       24.879      989.058     1138.706      618.973        0.750        0.137      110.734       18.731        0.029      340.708       14.916      859.886
06/05/2014  03:21:00     -100.318       -8.498        2.315       43.690       34.887       22.631     1908.838     1217.095      512.151        0.689        0.182      100.678       20.254        0.040      340.686       14.880      859.870
06/05/2014  03:22:00      -11.141       21.369       20.180       24.389       24.815       27.116      594.819      615.774      735.273        0.147        0.097       24.099       20.468        0.721      340.746       14.979      859.870
06/05/2014  03:23:00     -117.462       22.569       -9.563       71.597       40.481       25.293     5126.069     1638.695      639.741        1.090        0.370      119.610       32.699        0.075      341.165       15.688      859.870
06/05/2014  03:24:00     -123.595       -6.059       -5.432       47.086       47.800       26.320     2217.088     2284.867      692.745        1.027        0.260      123.744       26.274        0.045      341.067       15.522      859.871
06/05/2014  03:25:00     -136.499      -22.307       -8.112       59.106       35.109       23.082     3493.516     1232.635      532.778        1.223        0.263      138.310       28.639        0.043      340.744       14.976      859.880
06/05/2014  03:26:00     -128.546       -7.448       -6.790       37.762       31.067       18.857     1425.957      965.186      355.600        0.969        0.137      128.762       16.711        0.017      340.746       14.980      859.893
06/05/2014  03:27:00     -100.068      -22.598       -3.082       30.936       25.179       17.091      957.051      633.983      292.095        0.621        0.094      102.588       16.524        0.026      340.885       15.215      859.891
06/05/2014  03:28:00      -71.243       -8.462       -1.676       34.533       28.336       14.168     1192.508      802.907      200.744        0.367        0.110       71.744       12.069        0.028      340.919       15.272      859.895
06/05/2014  03:29:00      -82.080      -27.618       -3.038       23.989       27.114       13.087      575.466      735.194      171.276        0.450        0.074       86.602       11.458        0.018      341.034       15.467      859.905
06/05/2014  03:30:00     -100.768      -28.557       -8.921        9.442       16.078        7.810       89.146      258.512       60.997        0.573        0.020      104.737        4.610        0.002      340.936       15.301      859.900
06/05/2014  03:31:00     -118.401      -50.541       -6.648       16.565       15.739       11.207      274.409      247.709      125.592        0.863        0.032      128.737        7.940        0.004      340.963       15.345      859.914
06/05/2014  03:32:00      -90.208      -58.846        3.181       48.236       34.342       21.969     2326.703     1179.339      482.657        0.780        0.199      107.705       20.846        0.037      340.903       15.246      859.925
06/05/2014  03:33:00      -86.298      -71.836        1.762       47.902       37.413       22.292     2294.605     1399.742      496.922        0.840        0.210      112.284       11.461        0.010      341.036       15.470      859.922
06/05/2014  03:34:00      -85.780     -102.836       -0.261       52.105       50.680       27.237     2714.943     2568.509      741.856        1.198        0.301      133.916       31.074        0.054      341.129       15.627      859.935
06/05/2014  03:35:00     -126.193     -105.923        0.769       50.281       45.769       26.688     2528.135     2094.820      712.236        1.624        0.267      164.756       22.047        0.018      341.231       15.801      859.937
06/05/2014  03:36:00     -119.194      -69.038       -6.533       28.797       33.680       22.426      829.264     1134.327      502.908        1.074        0.123      137.745       16.600        0.015      341.207       15.759      859.931
06/05/2014  03:37:00      -82.752      -65.469       -0.202       33.504       45.861       24.193     1122.533     2103.186      585.288        0.747        0.191      105.519       19.975        0.036      341.194       15.738      859.946
06/05/2014  03:38:00      -76.267      -76.710        1.935       46.805       40.934       22.098     2190.693     1675.619      488.333        0.803        0.218      108.172       25.756        0.057      341.144       15.654      859.952
06/05/2014  03:39:00     -100.638      -97.291       -3.170       36.864       37.211       23.644     1358.978     1384.644      559.027        1.145        0.165      139.977       20.112        0.021      341.234       15.806      859.959
06/05/2014  03:40:00      -84.193      -64.943       -3.094       28.437       36.356       20.793      808.678     1321.795      432.333        0.694        0.128      106.330        9.874        0.009      341.194       15.737      859.969
06/05/2014  03:41:00      -97.374      -55.090       -1.168       42.693       32.376       21.390     1822.701     1048.212      457.511        0.792        0.166      111.877       20.485        0.034      341.212       15.770      859.972
06/05/2014  03:42:00     -119.512      -62.485       -5.311       32.524       32.963       18.254     1057.808     1086.559      333.218        1.035        0.124      134.861        8.742        0.004      341.184       15.721      859.972
06/05/2014  03:43:00      -77.233      -68.724       -1.075       45.661       40.207       20.706     2084.905     1616.630      428.730        0.741        0.207      103.382       23.177        0.050      341.161       15.682      859.976
06/05/2014  03:44:00      -83.915      -71.657       -1.712       48.955       31.187       31.023     2396.567      972.634      962.453        0.825        0.217      110.347       30.033        0.074      341.133       15.634      859.986
06/05/2014  03:45:00      -59.057      -87.415       -8.607       32.286       24.915       16.870     1042.410      620.758      284.594        0.658        0.097      105.494       12.163        0.013      341.156       15.672      860.008
06/05/2014  03:46:00      -59.634      -71.204        0.619       36.719       29.345       21.942     1348.257      861.134      481.454        0.566        0.135       92.878       14.772        0.025      341.085       15.554      860.019
06/05/2014  03:47:00      -56.544      -51.841       -2.992       36.386       22.517       20.365     1323.939      507.020      414.714        0.407        0.112       76.712        9.372        0.015      341.111       15.597      860.028
06/05/2014  03:48:00      -70.290      -45.339       -2.560       33.722       32.094       17.673     1137.141     1030.033      312.336        0.474        0.124       83.644       14.694        0.031      341.070       15.528      860.041
06/05/2014  03:49:00      -64.411      -56.242        0.834       29.548       25.675       15.649      873.057      659.215      244.883        0.454        0.089       85.510       11.895        0.019      341.021       15.443      860.052
06/05/2014  03:50:00      -27.079      -37.994        7.725       37.952       21.706       22.486     1440.329      471.157      505.623        0.233        0.121       46.656       21.114        0.205      341.054       15.501      860.049
06/05/2014  03:51:00      -66.606      -64.331       -2.301       30.043       27.138       19.184      902.571      736.448      368.017        0.529        0.100       92.601       13.241        0.020      341.012       15.430      860.042
06/05/2014  03:52:00      -75.616      -65.301        5.346       35.909       26.227       19.769     1289.423      687.860      390.802        0.619        0.118       99.910       18.345        0.034      340.967       15.354      860.055
06/05/2014  03:53:00      -67.792      -47.154        1.644       34.094       26.286       16.838     1162.413      690.929      283.528        0.448        0.107       82.578       11.064        0.018      340.952       15.327      860.073
06/05/2014  03:54:00      -77.877      -54.473       -0.147       59.495       45.910       26.144     3539.638     2107.702      683.489        0.768        0.317       95.037       27.767        0.085      340.912       15.260      860.086
06/05/2014  03:55:00      -90.260      -64.344        3.069       61.765       33.744       25.357     3814.970     1138.663      642.971        0.895        0.280      110.847       29.615        0.071      340.922       15.278      860.085
06/05/2014  03:56:00     -131.396      -90.243       -2.526       35.248       42.131       22.731     1242.425     1775.059      516.702        1.447        0.177      159.401       17.153        0.012      340.949       15.322      860.097
06/05/2014  03:57:00     -114.214      -68.350       -3.509       67.093       46.693       30.103     4501.442     2180.256      906.207        1.266        0.379      133.104       35.940        0.073      340.896       15.232      860.112
06/05/2014  03:58:00     -112.632      -26.937        1.055       52.046       37.223       25.276     2708.763     1385.569      638.859        0.907        0.237      115.808       24.921        0.046      340.845       15.147      860.120
06/05/2014  03:59:00     -136.296      -62.234       -3.088       52.745       48.759       26.749     2782.078     2377.471      715.529        1.417        0.294      149.832       22.176        0.022      340.826       15.113      860.113
06/05/2014  04:00:00     -135.032      -55.371       -9.817       37.695       30.612       20.083     1420.943      937.070      403.340        1.208        0.138      145.944       13.867        0.009      340.828       15.118      860.105
06/05/2014  04:01:00     -119.484      -21.125       -0.362       55.552       34.042       27.406     3086.033     1158.870      751.107        0.986        0.250      121.337       28.850        0.057      340.771       15.021      860.102
06/05/2014  04:02:00     -128.777      -47.215       -3.024       37.156       38.497       21.593     1380.603     1482.026      466.262        1.107        0.166      137.160       18.319        0.018      340.787       15.048      860.109
06/05/2014  04:03:00     -130.351      -35.486       -2.913       31.754       29.217       18.050     1008.287      853.622      325.813        1.022        0.109      135.094       16.219        0.014      340.636       14.793      860.098
06/05/2014  04:04:00     -120.701      -26.181        1.743       45.902       35.248       22.473     2107.027     1242.414      505.033        0.956        0.193      123.508       24.055        0.038      340.587       14.711      860.101
06/05/2014  04:05:00     -116.108      -39.760       -4.213       39.281       36.905       21.259     1542.987     1361.988      451.962        0.922        0.168      122.727       18.853        0.024      340.611       14.751      860.110
06/05/2014  04:06:00     -120.963      -35.902       -1.095       38.318       34.827       19.996     1468.298     1212.907      399.827        0.950        0.154      126.178       16.773        0.018      340.604       14.740      860.109
06/05/2014  04:07:00     -137.814       -8.535      -10.827       31.740       35.294       18.281     1007.422     1245.692      334.193        1.088        0.129      138.078       13.716        0.010      340.452       14.483      860.103
06/05/2014  04:08:00     -115.768       -1.645       -3.425       50.722       29.141       19.719     2572.682      849.173      388.819        0.861        0.191      115.780       22.289        0.037      340.448       14.476      860.106
06/05/2014  04:09:00     -121.922      -20.721       -1.338       38.363       27.058       20.192     1471.737      732.111      407.698        0.895        0.131      123.670       22.234        0.032      340.441       14.464      860.111
06/05/2014  04:10:00     -111.549      -55.207        3.816       39.486       38.621       20.630     1559.159     1491.603      425.606        0.949        0.174      124.462       19.642        0.025      340.458       14.493      860.115
06/05/2014  04:11:00     -125.278      -37.173        0.695       32.701       32.762       19.473     1069.334     1073.357      379.207        0.980        0.126      130.677       17.779        0.019      340.470       14.513      860.121
06/05/2014  04:12:00      -70.290      -36.727        5.487       45.213       23.029       19.064     2044.171      530.357      363.425        0.463        0.147       79.307       17.929        0.051      340.473       14.517      860.125
06/05/2014  04:13:00      -53.555      -62.638        0.626       41.648       28.692       19.892     1734.518      823.232      395.682        0.487        0.148       82.411       19.150        0.054      340.599       14.730      860.125
06/05/2014  04:14:00      -79.936      -94.706        0.612       37.836       51.013       17.752     1431.595     2602.326      315.126        0.985        0.217      123.931       14.287        0.013      340.690       14.887      860.117
06/05/2014  04:15:00      -58.584      -75.390        2.378       45.412       45.000       28.537     2062.268     2025.008      814.370        0.701        0.245       95.476       19.130        0.040      340.703       14.908      860.109
06/05/2014  04:16:00      -82.775      -85.100       -2.731       44.702       35.998       26.340     1998.235     1295.878      693.820        0.904        0.199      118.717       22.854        0.037      340.729       14.952      860.099
06/05/2014  04:17:00      -65.654      -63.927        6.645       59.569       36.829       25.626     3548.435     1356.342      656.677        0.700        0.278       91.636       22.356        0.060      340.711       14.919      860.096
06/05/2014  04:18:00     -101.292      -87.962       -1.731       48.401       61.513       26.890     2342.645     3783.795      723.049        1.242        0.342      134.155       24.011        0.032      340.672       14.854      860.105
06/05/2014  04:19:00      -96.294      -76.709       -5.644       42.719       30.274       18.464     1824.884      916.488      340.926        0.913        0.154      123.113       15.310        0.015      340.647       14.812      860.103
06/05/2014  04:20:00     -120.914      -60.019        6.445       49.559       43.435       31.336     2456.113     1886.612      981.939        1.179        0.266      134.990       28.021        0.043      340.629       14.782      860.103
06/05/2014  04:21:00     -123.273      -72.530       -3.059       40.219       26.593       21.908     1617.573      707.190      479.967        1.163        0.140      143.027       15.940        0.012      340.631       14.784      860.111
06/05/2014  04:22:00      -76.214      -39.636       -1.302       47.272       32.976       20.202     2234.674     1087.403      408.122        0.555        0.187       85.904       10.366        0.015      340.626       14.778      860.126
06/05/2014  04:23:00      -89.667      -37.199        4.258       50.780       30.271       19.019     2578.573      916.339      361.720        0.665        0.193       97.077       20.140        0.043      340.641       14.802      860.120
06/05/2014  04:24:00      -76.444      -61.054        3.455       57.289       30.919       22.967     3282.013      955.977      527.494        0.717        0.238       97.832       24.186        0.061      340.695       14.893      860.115
06/05/2014  04:25:00     -113.714      -61.128       -5.510       32.127       39.423       19.242     1032.151     1554.146      370.260        0.983        0.148      129.102       15.009        0.014      340.694       14.891      860.112
06/05/2014  04:26:00     -139.066      -58.138       -3.607       36.474       44.458       22.551     1330.329     1976.509      508.566        1.327        0.191      150.729       19.452        0.017      340.636       14.794      860.116
06/05/2014  04:27:00      -92.485      -38.751        4.306       47.335       37.329       22.821     2240.621     1393.469      520.805        0.711        0.208      100.275       23.277        0.054      340.632       14.786      860.124
06/05/2014  04:28:00      -75.744      -32.503        1.942       60.246       36.863       28.286     3629.573     1358.873      800.110        0.629        0.289       82.423       30.085        0.133      340.600       14.732      860.116
06/05/2014  04:29:00      -59.836      -32.251        6.276       43.075       35.722       21.045     1855.449     1276.063      442.901        0.412        0.179       67.975       24.032        0.125      340.562       14.667      860.107
06/05/2014  04:30:00      -57.678      -36.409        4.074       43.806       21.957       16.938     1918.994      482.130      286.906        0.368        0.134       68.209       15.826        0.054      340.559       14.663      860.105
06/05/2014  04:31:00      -79.230      -47.284        5.726       34.215       31.982       26.033     1170.679     1022.819      677.697        0.571        0.144       92.267       20.820        0.051      340.482       14.533      860.104
06/05/2014  04:32:00     -106.131      -69.762        1.178       29.302       31.391       20.900      858.606      985.377      436.791        0.921        0.114      127.006       17.108        0.018      340.534       14.621      860.095
06/05/2014  04:33:00      -97.165      -40.983        6.398       48.303       36.538       24.417     2333.199     1335.042      596.199        0.771        0.213      105.454       27.137        0.066      340.508       14.577      860.090
06/05/2014  04:34:00     -133.765      -22.024       -9.870       27.557       25.382       20.367      759.363      644.243      414.820        1.015        0.091      135.566       17.625        0.017      340.493       14.551      860.090
06/05/2014  04:35:00     -150.121      -14.501      -11.240       25.807       21.148       18.405      665.992      447.233      338.748        1.216        0.073      150.820       13.995        0.009      340.250       14.141      860.094
06/05/2014  04:36:00     -115.308      -14.008      -10.433       37.216       27.938       20.753     1384.997      780.506      430.671        0.810        0.130      116.156       19.058        0.027      340.138       13.951      860.100
06/05/2014  04:37:00      -95.875      -15.370       -2.256       33.162       36.200       21.010     1099.737     1310.476      441.429        0.614        0.143       97.099       12.803        0.017      340.223       14.095      860.107
06/05/2014  04:38:00      -94.456      -17.974        1.420       39.647       28.470       20.294     1571.879      810.561      411.840        0.602        0.140       96.151       16.305        0.029      340.204       14.063      860.116
06/05/2014  04:39:00     -122.764      -21.881        1.574       42.792       31.685       22.718     1831.161     1003.928      516.127        0.945        0.168      124.699       22.533        0.033      340.275       14.184      860.109
06/05/2014  04:40:00     -119.687      -53.751       -4.112       28.199       32.620       19.772      795.185     1064.050      390.949        0.974        0.113      131.202       15.139        0.013      340.337       14.288      860.109
06/05/2014  04:41:00     -112.935      -24.464       -2.073       40.922       28.643       18.520     1674.588      820.439      342.998        0.810        0.142      115.555       21.451        0.034      340.215       14.081      860.111
06/05/2014  04:42:00     -134.391      -40.692       -1.471       25.760       27.196       19.236      663.555      739.608      370.041        1.075        0.089      140.417       14.060        0.010      340.146       13.966      860.114
06/05/2014  04:43:00     -125.641      -36.527       -3.988       34.223       36.002       18.457     1171.237     1296.141      340.675        0.997        0.140      130.843       14.223        0.012      340.303       14.230      860.120
06/05/2014  04:44:00     -136.510      -11.618      -12.757       34.390       33.174       20.292     1182.672     1100.538      411.749        1.081        0.135      137.003       18.827        0.019      340.250       14.141      860.124
06/05/2014  04:45:00     -141.708       -1.158       -7.182       39.471       31.664       23.923     1557.923     1002.637      572.320        1.163        0.157      141.713       22.967        0.026      340.093       13.877      860.132
06/05/2014  04:46:00     -122.008      -17.644       -5.735       36.747       33.135       25.017     1350.349     1097.958      625.837        0.915        0.154      123.278       21.409        0.030      340.069       13.835      860.130
06/05/2014  04:47:00      -98.124      -14.846       -2.521       38.213       30.437       21.373     1460.209      926.404      456.787        0.635        0.142       99.240       21.357        0.046      340.024       13.759      860.117
06/05/2014  04:48:00     -120.639      -13.162      -11.071       29.555       24.960       19.115      873.511      623.013      365.382        0.836        0.093      121.355       16.986        0.020      340.003       13.724      860.103
06/05/2014  04:49:00     -119.739      -10.743       -8.951       37.435       26.803       22.324     1401.411      718.419      498.378        0.858        0.131      120.220       22.633        0.035      339.942       13.622      860.100
06/05/2014  04:50:00     -128.565      -18.478      -10.519       31.596       20.286       21.066      998.301      411.514      443.795        0.942        0.093      129.886       19.118        0.022      339.885       13.524      860.098
06/05/2014  04:51:00     -134.296      -17.863       -2.928       36.309       22.939       18.791     1318.318      526.178      353.086        1.028        0.110      135.478       21.899        0.026      339.909       13.565      860.101
06/05/2014  04:52:00     -120.231      -23.300       -4.506       32.590       24.551       18.408     1062.120      602.763      338.857        0.851        0.100      122.468       16.402        0.018      339.887       13.529      860.096
06/05/2014  04:53:00     -122.095      -15.410       -7.084       30.510       26.927       16.715      930.879      725.043      279.385        0.856        0.097      123.063       16.487        0.018      339.847       13.462      860.088
06/05/2014  04:54:00     -127.723       -5.490      -11.765       19.572       17.967       13.003      383.056      322.815      169.081        0.868        0.044      127.841        9.894        0.006      339.750       13.297      860.089
06/05/2014  04:55:00     -143.074       16.882      -16.691       29.995       24.209       16.525      899.689      586.096      273.078        1.140        0.088      144.066       11.606        0.006      339.890       13.533      860.099
06/05/2014  04:56:00     -160.831       15.372      -11.135       19.570       23.026       15.076      382.975      530.202      227.297        1.368        0.057      161.564        8.574        0.003      340.004       13.726      860.105
06/05/2014  04:57:00     -152.833      -24.036      -15.712       26.533       19.532       15.501      704.018      381.505      240.295        1.275        0.066      154.712       14.811        0.009      339.999       13.716      860.112
06/05/2014  04:58:00     -132.806      -16.806       -9.486       29.194       21.674       17.819      852.299      469.764      317.528        0.982        0.082      133.865       17.005        0.016      339.966       13.663      860.130
06/05/2014  04:59:00     -129.511      -38.837       -9.182       21.627       25.308       16.605      467.745      640.474      275.711        0.987        0.069      135.209       13.327        0.010      340.041       13.787      860.134
06/05/2014  05:00:00     -116.070      -24.856       -1.692       30.576       31.217       19.914      934.892      974.513      396.562        0.820        0.115      118.701       17.570        0.022      340.089       13.869      860.141
06/05/2014  05:01:00      -98.170      -15.895       -4.418       29.836       24.572       18.132      890.208      603.766      328.752        0.587        0.091       99.449       16.382        0.027      340.194       14.047      860.156
06/05/2014  05:02:00     -148.400        2.934      -15.503       31.498       23.316       15.740      992.151      543.620      247.754        1.203        0.089      148.429       15.132        0.010      340.255       14.148      860.174
06/05/2014  05:03:00     -131.743       48.726       -7.997       48.768       35.063       23.652     2378.342     1229.384      559.395        1.198        0.208      140.465       15.640        0.012      340.244       14.131      860.170
06/05/2014  05:04:00     -137.207       42.084      -17.235       53.444       30.749       24.212     2856.286      945.524      586.225        1.264        0.219      143.515       25.900        0.033      340.242       14.126      860.170
06/05/2014  05:05:00     -160.293       18.148      -18.175       46.529       30.661       28.633     2164.990      940.098      819.852        1.514        0.196      161.317       25.479        0.025      340.247       14.135      860.179
06/05/2014  05:06:00     -168.929      -21.486      -18.681       36.210       35.816       26.463     1311.176     1282.794      700.311        1.632        0.165      170.290       20.193        0.014      340.154       13.978      860.186
06/05/2014  05:07:00     -118.820      -30.879       -4.381       60.410       45.090       23.866     3649.316     2033.066      569.590        1.067        0.313      122.767       24.576        0.040      340.103       13.891      860.187
06/05/2014  05:08:00     -119.365      -26.512       -4.883       41.758       42.847       23.766     1743.751     1835.853      564.841        0.956        0.207      122.274       22.840        0.035      340.111       13.907      860.202
06/05/2014  05:09:00     -131.159      -64.094        2.588       36.932       41.975       24.895     1363.959     1761.938      619.746        1.253        0.187      145.982       20.750        0.020      340.083       13.858      860.202
06/05/2014  05:10:00     -124.526      -21.558       -4.745       35.333       33.257       22.777     1248.453     1106.039      518.797        0.943        0.144      126.379       19.796        0.025      340.120       13.921      860.213
06/05/2014  05:11:00     -115.875      -39.128       -4.691       24.080       20.756       21.275      579.845      430.798      452.626        0.822        0.073      122.303       20.091        0.027      340.160       13.989      860.226
06/05/2014  05:12:00     -111.902      -20.761       -2.417       27.838       28.994       16.070      774.936      840.670      258.242        0.742        0.094      113.811       16.498        0.021      340.213       14.078      860.235
06/05/2014  05:13:00      -57.362      -42.149        1.308       44.945       27.842       15.979     2020.094      775.200      255.318        0.406        0.153       71.182        7.652        0.012      340.136       13.948      860.258
06/05/2014  05:14:00      -93.567      -86.777       -0.721       46.604       50.154       20.549     2171.924     2515.454      422.262        1.070        0.255      127.613       25.431        0.040      340.059       13.818      860.276
06/05/2014  05:15:00     -120.560      -57.875       -9.409       41.257       42.486       23.045     1702.166     1805.040      531.084        1.100        0.202      133.732       12.429        0.009      340.092       13.874      860.290
06/05/2014  05:16:00     -132.947      -64.818       -2.821       45.621       37.218       25.168     2081.301     1385.215      633.446        1.299        0.205      147.906       21.477        0.021      340.051       13.805      860.307
06/05/2014  05:17:00     -150.408      -82.115       -3.374       27.505       25.806       21.427      756.546      665.932      459.097        1.563        0.094      171.364       19.479        0.013      340.095       13.880      860.322
06/05/2014  05:18:00     -130.853      -56.401       -6.368       38.356       25.523       19.003     1471.195      651.406      361.095        1.141        0.124      142.491       20.094        0.020      340.068       13.835      860.314
06/05/2014  05:19:00     -109.732      -65.258        3.557       30.159       30.413       20.792      909.550      924.978      432.303        0.929        0.113      127.671       14.413        0.013      340.123       13.926      860.328
06/05/2014  05:20:00     -124.035      -33.180       -1.253       28.676       18.531       16.944      822.336      343.398      287.116        0.897        0.073      128.396       14.490        0.013      340.194       14.045      860.352
06/05/2014  05:21:00      -94.016      -28.036       -3.349       27.972       25.578       14.951      782.449      654.240      223.539        0.565        0.083       98.107       13.300        0.018      340.180       14.023      860.357
06/05/2014  05:22:00     -121.372      -36.339        1.218       33.822       34.180       17.466     1143.907     1168.247      305.052        0.933        0.131      126.695       14.410        0.013      340.248       14.137      860.364
06/05/2014  05:23:00      -77.507      -46.951        7.163       49.246       30.775       24.388     2425.160      947.095      594.751        0.611        0.198       90.619       26.222        0.084      340.273       14.180      860.379
06/05/2014  05:24:00      -67.544      -37.402       -0.524       30.069       23.354       18.448      904.124      545.416      340.347        0.388        0.089       77.208       12.796        0.027      340.274       14.181      860.392
06/05/2014  05:25:00      -78.017      -40.988       -1.776       39.788       20.872       15.937     1583.111      435.643      254.000        0.502        0.114       88.129       13.678        0.024      340.275       14.183      860.404
06/05/2014  05:26:00      -64.857      -46.223       -4.393       35.129       21.821       19.031     1234.016      476.138      362.185        0.422        0.104       79.643       10.345        0.017      340.260       14.158      860.416
06/05/2014  05:27:00      -41.309      -38.547        0.435       38.603       42.012       26.932     1490.205     1765.005      725.322        0.359        0.199       56.500       27.236        0.232      340.168       14.002      860.430
06/05/2014  05:28:00      -48.128      -28.518        8.328       40.097       39.691       26.558     1607.766     1575.365      705.352        0.354        0.194       55.942       26.120        0.218      340.100       13.887      860.452
06/05/2014  05:29:00      -67.738      -64.902        5.180       44.079       36.699       21.087     1942.969     1346.793      444.662        0.628        0.187       93.812       25.152        0.072      340.106       13.897      860.460
06/05/2014  05:30:00      -77.953      -71.648       -2.266       42.511       34.943       24.024     1807.213     1220.999      577.157        0.741        0.180      105.878       28.570        0.073      340.144       13.962      860.465
06/05/2014  05:31:00     -120.795      -87.974      -15.029       33.318       38.339       23.624     1110.107     1469.880      558.109        1.285        0.157      149.436       15.623        0.011      340.168       14.003      860.461
06/05/2014  05:32:00     -123.052      -68.996       -4.132       51.950       34.048       21.939     2698.835     1159.287      481.313        1.213        0.217      141.075       25.793        0.033      340.115       13.912      860.466
06/05/2014  05:33:00      -66.731      -62.297        2.796       54.604       39.385       29.716     2981.649     1551.206      883.068        0.688        0.271       91.290       27.912        0.093      340.079       13.851      860.474
06/05/2014  05:34:00      -98.832      -74.960        4.102       46.602       35.928       24.306     2171.734     1290.801      590.778        0.973        0.203      124.044       23.083        0.035      340.044       13.793      860.467
06/05/2014  05:35:00      -75.486      -52.582        4.263       43.718       34.924       22.551     1911.229     1219.687      508.570        0.606        0.182       91.995       20.905        0.052      340.047       13.797      860.460
06/05/2014  05:36:00      -96.639      -50.157       -4.499       35.816       29.846       18.727     1282.810      890.799      350.691        0.720        0.126      108.880       14.619        0.018      340.058       13.817      860.471
06/05/2014  05:37:00      -96.167      -44.090       -4.662       31.807       26.586       14.128     1011.654      706.803      199.591        0.657        0.096      105.792       10.339        0.010      340.093       13.876      860.478
06/05/2014  05:38:00      -65.299      -41.767        3.692       48.332       28.956       19.626     2335.986      838.433      385.194        0.479        0.178       77.514       19.589        0.064      340.015       13.746      860.483
06/05/2014  05:39:00      -73.782      -43.269        0.488       30.681       24.942       15.900      941.303      622.126      252.802        0.457        0.091       85.533       10.964        0.016      340.039       13.785      860.489
06/05/2014  05:40:00      -70.254      -27.058       -4.149       21.409       17.930       12.116      458.341      321.501      146.789        0.331        0.046       75.284       11.886        0.025      340.005       13.729      860.506
06/05/2014  05:41:00      -77.564       -9.836       -5.334       23.685       20.200       12.295      560.977      408.046      151.175        0.363        0.056       78.185        9.241        0.014      339.975       13.675      860.516
06/05/2014  05:42:00      -75.417      -20.763       -4.079       31.362       20.687       14.251      983.583      427.936      203.083        0.387        0.081       78.223       13.014        0.028      339.904       13.559      860.533
06/05/2014  05:43:00      -84.934      -20.310       -1.886       25.264       24.511       17.708      638.287      600.774      313.578        0.459        0.078       87.328       12.168        0.019      339.950       13.633      860.534
06/05/2014  05:44:00      -98.645      -29.939        0.450       18.804       19.603       13.461      353.609      384.270      181.189        0.577        0.046      103.088       11.213        0.012      340.000       13.720      860.531
06/05/2014  05:45:00      -90.739      -23.155       -2.102       23.068       19.781       13.561      532.149      391.288      183.898        0.494        0.055       93.647       11.475        0.015      339.918       13.581      860.542
06/05/2014  05:46:00     -105.082      -23.471       -7.333       18.397       16.004       12.334      338.458      256.139      152.140        0.620        0.037      107.671        5.301        0.002      339.900       13.549      860.549
06/05/2014  05:47:00      -72.432      -28.880       -7.621       20.376       15.709       11.291      415.170      246.787      127.479        0.346        0.039       77.977        6.793        0.008      339.914       13.573      860.561
06/05/2014  05:48:00      -57.879      -27.728        1.465       20.278       17.357        9.597      411.185      301.263       92.112        0.246        0.040       64.178        6.484        0.010      339.869       13.499      860.569
06/05/2014  05:49:00      -12.711      -22.055        8.514       19.606       15.705       13.473      384.412      246.653      181.515        0.077        0.041       25.456        7.469        0.086      339.880       13.516      860.577
06/05/2014  05:50:00      -49.019      -49.438       -3.715       27.514       21.703       13.245      757.011      471.004      175.430        0.313        0.070       69.620       12.376        0.032      340.030       13.770      860.582
06/05/2014  05:51:00      -34.669      -29.451        8.244       38.264       27.762       18.177     1464.113      770.738      330.413        0.235        0.128       45.490       18.043        0.157      340.018       13.749      860.589
06/05/2014  05:52:00      -58.232      -27.628        1.335       24.514       42.850       16.947      600.926     1836.120      287.201        0.344        0.136       64.454        7.855        0.015      339.988       13.698      860.597
06/05/2014  05:53:00      -40.437      -12.335        4.609       34.390       29.500       18.993     1182.687      870.269      360.730        0.211        0.121       42.276       20.340        0.231      339.980       13.684      860.599
06/05/2014  05:54:00      -58.180      -28.628        2.997       31.001       32.449       17.820      961.040     1052.930      317.553        0.327        0.117       64.842       10.811        0.028      339.935       13.610      860.604
06/05/2014  05:55:00      -63.007      -47.132       -1.205       34.854       20.586       16.700     1214.819      423.797      278.901        0.405        0.096       78.685        9.310        0.014      339.956       13.645      860.598
06/05/2014  05:56:00      -49.906      -52.118        5.490       39.348       33.947       23.313     1548.269     1152.379      543.485        0.424        0.162       72.159       26.619        0.136      340.007       13.732      860.602
06/05/2014  05:57:00      -66.786      -50.633       -1.474       36.431       22.562       14.541     1327.210      509.046      211.448        0.454        0.102       83.810       17.106        0.042      339.936       13.611      860.606
06/05/2014  05:58:00      -50.733      -40.849        2.637       40.288       23.556       16.333     1623.095      554.867      266.773        0.335        0.122       65.134       19.106        0.086      339.990       13.702      860.611
06/05/2014  05:59:00      -40.485      -39.590        3.673       35.299       35.480       17.208     1245.985     1258.836      296.114        0.301        0.140       56.626       18.784        0.110      339.995       13.711      860.609
06/05/2014  06:00:00      -66.944      -57.300       -0.857       25.663       27.366       13.625      658.568      748.877      185.637        0.468        0.080       88.118       11.988        0.019      340.011       13.738      860.619
06/05/2014  06:01:00      -44.287      -37.035        5.722       30.980       24.729       16.233      959.782      611.499      263.523        0.260        0.092       57.732       14.767        0.065      339.997       13.713      860.620
06/05/2014  06:02:00      -41.401      -31.579        5.307       32.814       23.798       16.811     1076.787      566.347      282.618        0.233        0.096       52.070       14.977        0.083      340.014       13.744      860.625
06/05/2014  06:03:00      -50.255      -24.203       -1.986       33.833       24.470       14.191     1144.703      598.792      201.389        0.253        0.097       55.779       11.687        0.044      339.983       13.689      860.624
06/05/2014  06:04:00      -88.823      -26.858       -5.627       17.078       21.572       10.807      291.663      465.367      116.799        0.476        0.044       92.795        7.594        0.007      339.923       13.590      860.627
06/05/2014  06:05:00      -71.944       -8.408       -4.514       23.653       20.796       13.053      559.451      432.488      170.384        0.321        0.058       72.433       10.754        0.022      339.885       13.525      860.616
06/05/2014  06:06:00      -75.738      -12.833       -0.356       25.667       18.901       13.789      658.797      357.247      190.123        0.355        0.060       76.817       11.973        0.024      339.818       13.413      860.617
06/05/2014  06:07:00      -88.042      -28.404       -3.474       24.009       13.463       13.399      576.439      181.257      179.524        0.475        0.047       92.510       12.284        0.018      339.929       13.598      860.612
06/05/2014  06:08:00      -67.174      -46.859       -5.071       19.632       15.664       11.290      385.398      245.366      127.471        0.375        0.038       81.903       10.368        0.016      340.059       13.820      860.616
06/05/2014  06:09:00      -66.223      -37.600       -2.280       19.426       20.733       12.241      377.373      429.853      149.847        0.338        0.048       76.153        8.883        0.014      340.077       13.849      860.618
06/05/2014  06:10:00      -72.620      -22.657       -0.428       14.059       12.468       10.772      197.654      155.452      116.036        0.313        0.023       76.073        6.824        0.008      340.028       13.766      860.619
06/05/2014  06:11:00      -55.253      -22.849       -0.780       24.679       14.400       10.671      609.051      207.350      113.878        0.225        0.047       59.791        7.301        0.015      340.068       13.833      860.621
06/05/2014  06:12:00      -10.518      -11.116        7.986       19.679       16.300       12.835      387.281      265.698      164.744        0.056        0.041       15.303       12.203        0.636      340.189       14.037      860.629
06/05/2014  06:13:00      -32.858      -33.734       -0.928       26.007       26.660       15.926      676.344      710.781      253.626        0.193        0.082       47.092       12.055        0.066      340.079       13.853      860.625
06/05/2014  06:14:00      -77.631      -47.705       -6.128       20.099       21.773       16.347      403.978      474.045      267.220        0.474        0.057       91.117       14.586        0.026      340.071       13.839      860.626
06/05/2014  06:15:00      -57.388      -31.049       -0.879       30.987       25.643       16.089      960.213      657.580      258.856        0.307        0.094       65.249       15.484        0.056      340.087       13.866      860.635
06/05/2014  06:16:00      -53.120      -35.964        0.222       26.124       21.189       13.529      682.466      448.983      183.025        0.271        0.066       64.149        9.213        0.021      340.117       13.916      860.635
06/05/2014  06:17:00      -50.896        3.946       -1.906       14.423       15.312       10.202      208.031      234.450      104.072        0.158        0.027       51.049       10.074        0.039      340.037       13.780      860.640
06/05/2014  06:18:00      -46.288       -8.917        1.468        9.132       12.250        8.449       83.387      150.067       71.393        0.126        0.015       47.139        5.839        0.015      340.054       13.808      860.654
06/05/2014  06:19:00      -68.111       -7.163       -6.295       16.970       16.873       11.425      287.965      284.698      130.537        0.272        0.035       68.486       10.221        0.022      340.096       13.881      860.653
06/05/2014  06:20:00      -78.829       -8.835       -6.645       22.167       12.314       12.760      491.389      151.629      162.808        0.357        0.040       79.323       10.495        0.018      340.091       13.872      860.662
06/05/2014  06:21:00      -98.830      -20.983       -6.511       18.479       18.953       14.271      341.487      359.227      203.671        0.558        0.045      101.033        8.936        0.008      340.137       13.951      860.659
06/05/2014  06:22:00      -99.044      -26.929       -2.993       17.214       15.716        8.831      296.329      246.982       77.990        0.558        0.031      102.639        6.536        0.004      340.135       13.946      860.667
06/05/2014  06:23:00      -92.982      -36.222       -6.583       14.885       19.704       10.847      221.574      388.259      117.647        0.536        0.036       99.788        7.458        0.006      340.159       13.986      860.683
06/05/2014  06:24:00      -88.078      -32.924      -14.604       12.054       14.922       13.292      145.308      222.664      176.686        0.480        0.027       94.031        8.468        0.008      340.186       14.033      860.694
06/05/2014  06:25:00      -68.515      -40.867       -7.330        9.097       15.403        7.814       82.764      237.267       61.058        0.340        0.019       79.777        6.592        0.007      340.216       14.082      860.707
06/05/2014  06:26:00      -54.888      -41.244       -6.279        7.720        7.019        6.365       59.603       49.262       40.513        0.245        0.007       68.657        4.574        0.004      340.241       14.127      860.705
06/05/2014  06:27:00      -52.164      -35.680       -6.674        7.777        7.632        7.052       60.475       58.245       49.729        0.210        0.008       63.199        3.631        0.003      340.262       14.160      860.713
06/05/2014  06:28:00      -65.940      -37.393       -6.654       10.573        9.687        7.591      111.783       93.833       57.627        0.303        0.013       75.804        5.342        0.005      340.255       14.148      860.718
06/05/2014  06:29:00      -68.308      -26.296       -4.788       10.920        7.671        7.481      119.255       58.838       55.959        0.281        0.012       73.195        4.799        0.004      340.221       14.092      860.733
06/05/2014  06:30:00      -63.538      -33.784       -3.646       14.435        9.464       10.834      208.383       89.573      117.380        0.280        0.021       71.961        5.599        0.006      340.315       14.250      860.737
06/05/2014  06:31:00      -63.263      -45.421       -4.406       13.350        7.301        9.695      178.228       53.309       93.984        0.321        0.016       77.880        7.514        0.009      340.344       14.299      860.748
06/05/2014  06:32:00      -45.589      -35.006       -2.011       22.505       12.421       11.811      506.462      154.279      139.496        0.205        0.040       57.479        7.332        0.016      340.382       14.365      860.754
06/05/2014  06:33:00      -34.316      -24.389       -1.165       20.353       10.908       13.120      414.255      118.983      172.146        0.124        0.035       42.100        8.728        0.043      340.467       14.507      860.761
06/05/2014  06:34:00      -73.105      -36.093       -1.224       11.882       12.028        9.485      141.173      144.677       89.958        0.351        0.019       81.530        3.687        0.002      340.441       14.464      860.758
06/05/2014  06:35:00      -53.219      -27.134       -2.625       22.609       18.875       13.251      511.145      356.269      175.594        0.231        0.052       59.737        7.485        0.016      340.593       14.720      860.769
06/05/2014  06:36:00      -39.560      -18.744        1.690       23.442       25.673       16.117      549.537      659.101      259.743        0.169        0.073       43.776       16.145        0.136      340.679       14.867      860.774
06/05/2014  06:37:00      -48.785      -49.885       -6.425       15.340       14.121       10.348      235.313      199.412      107.075        0.273        0.027       69.774        7.367        0.011      340.605       14.743      860.780
06/05/2014  06:38:00        2.342      -45.219       -1.815       22.553       14.373       18.011      508.617      206.583      324.411        0.155        0.052       45.280       15.180        0.112      340.580       14.700      860.787
06/05/2014  06:39:00      -45.623      -24.812       -5.202       12.635        8.523       10.077      159.648       72.637      101.554        0.153        0.017       51.933        9.582        0.034      340.629       14.783      860.789
06/05/2014  06:40:00      -48.520      -41.321       -4.130        9.775       12.277        6.798       95.553      150.730       46.219        0.219        0.015       63.731        3.421        0.003      340.656       14.828      860.800
06/05/2014  06:41:00      -12.685      -22.854        6.173       17.423        9.344       12.970      303.570       87.316      168.225        0.064        0.028       26.138       12.396        0.225      340.875       15.200      860.806
06/05/2014  06:42:00      -11.828      -22.982        7.248       14.791       12.513       12.531      218.766      156.577      157.018        0.063        0.027       25.848       10.648        0.170      340.766       15.014      860.812
06/05/2014  06:43:00      -21.469      -21.375        5.809        9.924       11.031       10.925       98.482      121.674      119.366        0.065        0.017       30.295        9.200        0.092      340.849       15.154      860.824
06/05/2014  06:44:00       -0.675       -8.072       19.247       19.080       12.316       18.516      364.031      151.673      342.828        0.065        0.043        8.100       16.462        4.130      341.104       15.586      860.830
06/05/2014  06:45:00        2.457      -12.665       11.362       10.885       13.827       13.470      118.480      191.193      181.447        0.039        0.025       12.901        6.144        0.227      341.103       15.583      860.837
06/05/2014  06:46:00      -15.667      -27.828        6.441       16.112       17.552       11.812      259.596      308.057      139.528        0.088        0.035       31.935        4.981        0.024      340.898       15.238      860.845
06/05/2014  06:47:00      -29.999      -19.351        4.749       20.564       21.741       15.390      422.873      472.665      236.838        0.121        0.057       35.699       12.556        0.124      340.870       15.187      860.848
06/05/2014  06:48:00      -35.104      -45.143        6.386       29.978       28.156       19.449      898.665      792.755      378.252        0.269        0.103       57.185       18.759        0.108      340.872       15.193      860.856
06/05/2014  06:49:00      -46.543      -51.436       -9.503       34.641       21.219       16.930     1200.024      450.259      286.617        0.342        0.097       69.368       17.834        0.066      340.732       14.957      860.862
06/05/2014  06:50:00       -8.417      -21.365       15.919       15.379       25.503       14.510      236.525      650.382      210.527        0.094        0.055       22.963       16.296        0.504      341.133       15.635      860.865
06/05/2014  06:51:00      -34.375      -25.908        0.476       26.018       15.791       13.516      676.949      249.367      182.676        0.148        0.055       43.045       13.169        0.094      340.884       15.211      860.872
06/05/2014  06:52:00      -75.987      -66.353      -10.649       13.346       20.719       12.911      178.128      429.278      166.694        0.553        0.039      100.879        6.793        0.005      340.731       14.954      860.887
06/05/2014  06:53:00      -56.877      -77.272      -10.060       15.425       18.274       12.400      237.924      333.946      153.764        0.502        0.036       95.948        9.671        0.010      340.783       15.042      860.898
06/05/2014  06:54:00      -21.693      -48.352        2.613       20.523       22.794       13.568      421.211      519.563      184.080        0.197        0.056       52.996       13.759        0.067      340.908       15.254      860.914
06/05/2014  06:55:00      -35.932      -59.488       -4.502       16.429       20.041       14.584      269.925      401.640      212.704        0.287        0.044       69.497       10.988        0.025      340.896       15.233      860.931
06/05/2014  06:56:00      -32.519      -63.845        0.267       16.407       16.141       10.797      269.185      260.532      116.586        0.289        0.032       71.650        5.871        0.007      340.828       15.118      860.948
06/05/2014  06:57:00      -24.637      -72.447        0.801       14.158       11.844       12.185      200.436      140.282      148.484        0.317        0.024       76.521        1.835        0.001      340.893       15.228      860.967
06/05/2014  06:58:00      -24.571      -66.086       -0.291       13.441       14.896       10.858      180.655      221.891      117.906        0.275        0.026       70.507        6.774        0.009      340.931       15.291      860.980
06/05/2014  06:59:00      -27.009      -49.825       -7.303       12.389       19.603       14.168      153.499      384.259      200.726        0.200        0.037       56.674       10.998        0.038      340.891       15.228      860.999
06/05/2014  07:00:00       -1.291      -47.717        3.240       23.900       25.588       22.770      571.220      654.765      518.489        0.202        0.087       47.734       18.007        0.142      340.816       15.099      861.009
06/05/2014  07:01:00       27.701      -23.180       16.166       26.770       28.339       25.920      716.655      803.121      671.834        0.188        0.110       36.120       21.036        0.339      340.905       15.249      861.011
06/05/2014  07:02:00       16.133      -43.502      -12.265       31.604       34.987       25.432      998.819     1224.101      646.778        0.259        0.143       46.397       20.733        0.200      340.756       14.997      861.015
06/05/2014  07:03:00        9.519      -27.614        8.557       24.370       21.316       22.211      593.912      454.367      493.312        0.123        0.077       29.209       15.075        0.266      341.052       15.497      861.011
06/05/2014  07:04:00        4.293      -18.774       15.369       16.937       14.861       13.894      286.875      220.838      193.037        0.065        0.035       19.259       10.192        0.280      341.463       16.193      860.998
06/05/2014  07:05:00      -36.034      -12.322       12.139       29.744       22.097       19.997      884.694      488.279      399.898        0.168        0.089       38.082       17.700        0.216      341.309       15.933      860.985
06/05/2014  07:06:00       -6.654      -17.735       16.141       23.790       21.303       17.104      565.967      453.805      292.531        0.097        0.066       18.942       16.750        0.782      341.587       16.404      860.976
06/05/2014  07:07:00      -18.786      -43.901       12.226       26.283       33.309       16.903      690.780     1109.466      285.708        0.226        0.104       47.752       20.785        0.189      341.459       16.187      860.975
06/05/2014  07:08:00      -48.843      -61.154        2.218       34.522       26.436       21.774     1191.757      698.844      474.110        0.425        0.118       78.265       23.748        0.092      341.196       15.741      860.973
06/05/2014  07:09:00      -41.593      -66.260        2.699       31.372       38.966       18.074      984.184     1518.355      326.653        0.448        0.141       78.233       16.241        0.043      341.243       15.821      860.976
06/05/2014  07:10:00      -44.204      -92.779       -1.328       23.664       25.619       17.857      559.990      656.315      318.875        0.605        0.077      102.771       10.261        0.010      341.236       15.810      860.980
06/05/2014  07:11:00      -43.172      -79.825        7.901       29.363       32.581       22.577      862.194     1061.496      509.713        0.537        0.122       90.751       16.167        0.032      341.300       15.918      860.976
06/05/2014  07:12:00      -41.578      -65.293        2.671       30.277       31.830       22.137      916.682     1013.148      490.068        0.421        0.121       77.407       19.353        0.063      341.307       15.930      860.981
06/05/2014  07:13:00      -56.013      -44.866       -2.271       31.597       29.129       16.143      998.355      848.471      260.610        0.363        0.105       71.767        8.907        0.015      341.302       15.919      860.974
06/05/2014  07:14:00      -64.194      -81.412       -2.818       30.958       29.787       20.170      958.377      887.237      406.843        0.650        0.113      103.676       16.372        0.025      341.291       15.902      860.969
06/05/2014  07:15:00      -63.949      -81.737        3.030       41.094       31.646       25.826     1688.686     1001.469      666.999        0.707        0.168      103.780       26.294        0.064      341.324       15.958      860.970
06/05/2014  07:16:00      -55.284      -62.218        6.014       26.633       27.201       20.620      709.302      739.901      425.194        0.442        0.094       83.231       18.623        0.050      341.354       16.011      860.961
06/05/2014  07:17:00      -46.246      -71.450       -2.803       12.706       20.130       11.723      161.440      405.225      137.426        0.398        0.035       85.110        9.141        0.012      341.311       15.935      860.949
06/05/2014  07:18:00      -31.574      -93.192       -1.132       18.116       15.892       12.724      328.189      252.565      161.905        0.521        0.037       98.396        4.172        0.002      341.358       16.015      860.940
06/05/2014  07:19:00      -51.109      -54.675        2.026       38.738       22.946       13.235     1500.649      526.499      175.174        0.390        0.110       74.843       12.616        0.028      341.437       16.149      860.930
06/05/2014  07:20:00      -40.878      -68.843        2.132       20.710       23.595       19.708      428.921      556.710      388.402        0.389        0.069       80.065       12.301        0.024      341.466       16.197      860.924
06/05/2014  07:21:00       -7.233      -38.014        4.333       17.095       15.638       16.099      292.227      244.555      259.192        0.116        0.040       38.696       11.215        0.084      341.521       16.290      860.925
06/05/2014  07:22:00      -24.303      -37.721        5.875       20.501       20.683       13.359      420.276      427.778      178.472        0.154        0.051       44.872       12.064        0.072      341.597       16.421      860.928
06/05/2014  07:23:00      -10.157      -34.137        7.574       29.388       18.976       22.328      863.665      360.073      498.550        0.152        0.086       35.616       20.712        0.338      341.733       16.649      860.935
06/05/2014  07:24:00       -7.882      -37.816       -4.277       18.127       20.101       11.828      328.583      404.061      139.907        0.119        0.044       38.628       10.736        0.077      341.614       16.449      860.933
06/05/2014  07:25:00      -30.791      -47.610        5.840       28.655       31.577       17.430      821.109      997.088      303.796        0.269        0.106       56.699       19.755        0.121      341.725       16.636      860.937
06/05/2014  07:26:00      -27.716      -63.296        3.225       14.706       13.472       10.221      216.278      181.498      104.461        0.264        0.025       69.099        8.508        0.015      341.610       16.442      860.944
06/05/2014  07:27:00       -9.518      -59.169        2.479       18.737       18.177       12.861      351.061      330.385      165.404        0.222        0.042       59.929        6.162        0.011      341.638       16.491      860.945
06/05/2014  07:28:00      -30.439      -74.598       -1.395       15.984       21.657       14.591      255.482      469.029      212.895        0.372        0.047       80.569       12.101        0.023      341.635       16.484      860.951
06/05/2014  07:29:00      -32.496      -73.052        0.853       11.191       19.036       13.542      125.236      362.385      183.373        0.353        0.034       79.954        9.940        0.015      341.686       16.571      860.953
06/05/2014  07:30:00      -26.663      -53.594        5.281       18.472       18.336       12.180      341.217      336.206      148.343        0.222        0.041       59.860        9.341        0.024      341.787       16.743      860.956
06/05/2014  07:31:00      -33.152      -60.020       -1.866       13.267       17.158        9.730      176.013      294.387       94.669        0.263        0.028       68.567        8.475        0.015      341.725       16.640      860.954
06/05/2014  07:32:00      -35.096      -32.511        4.337       17.723       13.356       15.463      314.089      178.393      239.101        0.152        0.037       47.841       10.669        0.050      341.854       16.856      860.950
06/05/2014  07:33:00      -44.841      -48.052       -4.999       12.328       19.477       13.336      151.977      379.349      177.843        0.253        0.035       65.725        8.527        0.017      341.764       16.706      860.949
06/05/2014  07:34:00      -34.752      -39.267       -1.438       21.773       17.909       14.445      474.065      320.736      208.663        0.188        0.050       52.437       15.941        0.092      341.868       16.879      860.952
06/05/2014  07:35:00        6.941       -8.816       15.183       26.063       17.238       16.773      679.263      297.143      281.344        0.081        0.063       11.220        3.994        0.127      342.219       17.477      860.952
06/05/2014  07:36:00      -17.724      -35.077        4.776       26.562       22.928       15.615      705.536      525.674      243.837        0.152        0.074       39.301       12.431        0.100      341.853       16.855      860.966
06/05/2014  07:37:00       -4.645      -22.533        2.121       27.636       16.568       16.401      763.734      274.506      269.009        0.092        0.065       23.006       11.127        0.234      341.964       17.043      860.973
06/05/2014  07:38:00       -1.544      -25.990        4.218       16.954       11.580       15.714      287.450      134.103      246.944        0.068        0.033       26.036       11.753        0.204      342.153       17.364      860.987
06/05/2014  07:39:00       -3.713      -17.970        6.677       15.042       18.601       16.401      226.273      346.013      269.000        0.061        0.042       18.349       14.394        0.615      342.456       17.879      860.995
06/05/2014  07:40:00        9.908        5.216       20.714       14.170       24.413       22.017      200.787      595.990      484.747        0.092        0.064       11.197       17.465        2.433      342.653       18.215      861.002
06/05/2014  07:41:00       23.883       19.595       17.454       16.623       10.583       17.042      276.329      112.006      290.440        0.097        0.034       30.893        7.477        0.059      342.259       17.544      861.011
06/05/2014  07:42:00       30.920       -2.780       10.701       22.703       17.041       20.829      515.431      290.382      433.856        0.116        0.062       31.044        9.388        0.091      342.119       17.306      861.012
06/05/2014  07:43:00       12.344       11.331        8.719       16.979       16.656       16.362      288.296      277.427      267.701        0.059        0.042       16.756        8.113        0.234      342.261       17.547      861.009
06/05/2014  07:44:00       10.904       14.994       16.850       22.954       18.412       23.152      526.885      338.993      536.005        0.101        0.070       18.540       20.147        1.181      342.638       18.190      861.007
06/05/2014  07:45:00        7.081        3.083       15.107       17.006       19.213       23.158      289.203      369.155      536.307        0.074        0.060        7.723       16.292        4.450      342.847       18.545      860.992
06/05/2014  07:46:00        4.646       12.019       27.589       23.135       25.232       26.104      535.217      636.647      681.425        0.139        0.093       12.885       21.486        2.780      342.687       18.273      860.979
06/05/2014  07:47:00       26.903        2.728       29.352       33.447       27.421       22.079     1118.698      751.910      487.502        0.197        0.118       27.041       20.365        0.567      342.500       17.954      860.965
06/05/2014  07:48:00       25.477        2.909       36.988       26.634       27.017       20.218      709.343      729.929      408.777        0.194        0.092       25.643       16.096        0.394      342.714       18.317      860.945
06/05/2014  07:49:00       -2.076      -18.988       36.380       22.192       40.569       21.706      492.502     1645.820      471.168        0.215        0.130       19.101       13.706        0.515      343.097       18.969      860.934
06/05/2014  07:50:00       38.655       -2.083       18.929       40.989       31.617       28.607     1680.085      999.620      818.339        0.268        0.175       38.711       22.054        0.325      342.675       18.252      860.924
06/05/2014  07:51:00       20.590      -10.153       19.272       30.049       24.906       26.430      902.917      620.309      698.550        0.156        0.111       22.958       23.211        1.022      342.671       18.246      860.914
06/05/2014  07:52:00      -14.918       -6.208       20.894       34.378       23.550       22.520     1181.851      554.614      507.168        0.147        0.112       16.158       20.254        1.571      342.636       18.186      860.910
06/05/2014  07:53:00      -36.674      -19.299        8.848       25.802       23.034       21.530      665.729      530.566      463.538        0.173        0.083       41.442       20.160        0.237      342.854       18.555      860.917
06/05/2014  07:54:00      -25.646      -28.383        3.127       36.875       33.730       24.004     1359.734     1137.710      576.215        0.227        0.154       38.253       19.431        0.258      342.700       18.295      860.922
06/05/2014  07:55:00       13.256      -45.091       -6.836       29.894       26.122       19.839      893.645      682.349      393.595        0.211        0.098       46.999        1.955        0.002      342.303       17.618      860.934
06/05/2014  07:56:00      -27.536      -13.631       13.259       19.389       24.771       18.967      375.915      613.625      359.751        0.123        0.067       30.725       14.373        0.219      342.881       18.601      860.940
06/05/2014  07:57:00      -33.783      -42.530        9.043       26.324       22.688       25.306      692.953      514.731      640.372        0.244        0.092       54.314       15.812        0.085      342.589       18.104      860.952
06/05/2014  07:58:00       -7.703      -13.691       22.104       33.244       25.511       23.753     1105.135      650.823      564.214        0.153        0.116       15.709       19.265        1.504      342.882       18.603      860.965
06/05/2014  07:59:00       36.716      -41.181       20.877       31.012       26.478       26.972      961.723      701.093      727.488        0.293        0.120       55.171       17.485        0.100      342.360       17.715      860.964
06/05/2014  08:00:00       12.995       -0.746       40.293       23.870       19.157       15.651      569.758      366.982      244.967        0.149        0.059       13.016        9.963        0.586      343.309       19.330      860.978
06/05/2014  08:01:00       18.587       43.264        0.465       28.526       22.422       22.180      813.706      502.751      491.948        0.201        0.090       47.088       18.429        0.153      342.697       18.288      860.980
06/05/2014  08:02:00       43.931       22.474       19.012       33.519       28.285       29.258     1123.552      800.052      856.027        0.279        0.139       49.346       26.175        0.281      343.119       19.007      860.985
06/05/2014  08:03:00       41.400      -24.279        3.742       41.403       38.126       29.510     1714.180     1453.629      870.834        0.318        0.202       47.993       21.355        0.198      342.671       18.244      860.992
06/05/2014  08:04:00       52.948      -44.488       14.081       43.641       47.787       34.214     1904.514     2283.578     1170.577        0.517        0.268       69.157       24.771        0.128      342.668       18.240      860.998
06/05/2014  08:05:00       69.814      -10.051       15.837       23.191       31.975       26.840      537.831     1022.432      720.377        0.375        0.114       70.534        3.872        0.003      342.544       18.029      860.994
06/05/2014  08:06:00       -2.422       -5.596       27.072       23.866       36.503       30.038      569.593     1332.487      902.276        0.179        0.140        6.098       22.936       14.149      343.295       19.308      860.993
06/05/2014  08:07:00       10.444       -1.664       31.837       20.624       36.770       24.476      425.337     1352.066      599.055        0.175        0.119       10.575       23.567        4.966      343.130       19.026      860.987
06/05/2014  08:08:00       39.620       30.933       27.233       42.762       31.626       38.858     1828.558     1000.193     1509.921        0.380        0.217       50.265       33.555        0.446      343.252       19.233      860.986
06/05/2014  08:09:00       38.456       27.950       19.742       50.098       30.809       24.833     2509.843      949.219      616.655        0.336        0.204       47.540       21.446        0.204      343.378       19.449      860.988
06/05/2014  08:10:00       91.142       52.710       13.911       33.965       29.651       28.000     1153.644      879.202      783.975        0.705        0.141      105.286       20.136        0.037      342.814       18.487      860.979
06/05/2014  08:11:00       80.469       38.776       20.076       47.401       38.044       37.831     2246.892     1447.314     1431.152        0.675        0.256       89.324       20.194        0.051      343.006       18.812      860.979
06/05/2014  08:12:00        1.776       17.193       42.148       30.007       30.101       16.487      900.425      906.058      271.814        0.208        0.104       17.285        9.613        0.309      343.964       20.448      860.984
06/05/2014  08:13:00       39.932       26.202       26.681       49.160       39.615       25.682     2416.687     1569.321      659.585        0.382        0.232       47.761       23.424        0.241      343.315       19.342      860.987
06/05/2014  08:14:00       76.243       36.306        5.688       34.902       28.440       22.304     1218.163      808.855      497.470        0.484        0.126       84.446       14.980        0.031      343.040       18.872      860.999
06/05/2014  08:15:00       26.057        1.281       20.344       26.472       52.289       26.383      700.750     2734.100      696.061        0.261        0.207       26.088       17.576        0.454      343.558       19.754      861.000
06/05/2014  08:16:00       22.273      -65.962       32.989       33.786       51.509       28.954     1141.462     2653.147      838.328        0.528        0.232       69.621       28.833        0.172      343.433       19.542      861.009
06/05/2014  08:17:00       -7.221       47.856       66.540       25.403       37.499       19.938      645.332     1406.148      397.505        0.461        0.122       48.398       20.231        0.175      343.572       19.779      861.016
06/05/2014  08:18:00       27.801       45.742       39.647       53.550       35.626       30.095     2867.653     1269.227      905.683        0.474        0.252       53.528       29.310        0.300      343.468       19.602      861.022
06/05/2014  08:19:00      118.215       86.289       22.372       43.863       30.547       33.526     1923.984      933.103     1124.026        1.295        0.199      146.358       12.648        0.007      342.895       18.626      861.030
06/05/2014  08:20:00       60.941       64.128       12.620       47.172       31.462       28.368     2225.187      989.868      804.721        0.600        0.201       88.465       21.350        0.058      343.155       19.067      861.021
06/05/2014  08:21:00       41.079       25.347       20.084       38.489       29.579       39.248     1481.408      874.890     1540.435        0.331        0.195       48.269       25.226        0.273      343.412       19.507      861.017
06/05/2014  08:22:00       71.872       40.349        2.684       33.972       31.366       30.712     1154.114      983.822      943.255        0.494        0.154       82.424       19.068        0.054      343.115       18.999      861.013
06/05/2014  08:23:00       67.974       15.811       32.278       61.872       46.514       27.924     3828.167     2163.517      779.767        0.634        0.339       69.789       30.595        0.192      343.341       19.384      861.001
06/05/2014  08:24:00       19.959       -9.047       34.288       23.222       33.012       24.294      539.245     1089.794      590.218        0.194        0.111       21.914       22.725        1.075      343.553       19.747      860.992
06/05/2014  08:25:00       16.454       23.162       62.765       31.577       38.946       22.130      997.078     1516.765      489.733        0.387        0.150       28.412       18.394        0.419      343.931       20.390      860.988
06/05/2014  08:26:00        6.302       22.906       42.425       32.547       36.258       28.317     1059.286     1314.652      801.827        0.277        0.159       23.757       25.762        1.176      343.696       19.991      860.979
06/05/2014  08:27:00       11.225       12.441       36.280       27.235       26.960       24.216      741.747      726.820      586.414        0.183        0.103       16.757       16.747        0.999      343.627       19.873      860.976
06/05/2014  08:28:00       28.294        6.600       36.814       27.790       22.272       27.838      772.310      496.064      774.947        0.212        0.102       29.053       16.662        0.329      343.534       19.716      860.976
06/05/2014  08:29:00       29.513       14.733       35.820       46.402       38.622       38.243     2153.164     1491.682     1462.497        0.374        0.255       32.986       35.653        1.168      343.340       19.384      860.975
06/05/2014  08:30:00       32.580       21.801       43.445       36.139       31.558       26.215     1306.015      995.877      687.209        0.321        0.149       39.201       22.072        0.317      343.449       19.569      860.976
06/05/2014  08:31:00       56.111       -8.357       14.148       55.728       33.246       31.997     3105.596     1105.299     1023.792        0.433        0.262       56.730       21.753        0.147      343.269       19.262      860.972
06/05/2014  08:32:00       60.599       -7.985       19.889       45.312       34.597       34.035     2053.142     1196.923     1158.381        0.427        0.220       61.123       28.073        0.211      343.181       19.115      860.971
06/05/2014  08:33:00       24.700        6.111       33.327       38.546       30.311       29.307     1485.798      918.782      858.910        0.251        0.163       25.445       27.581        1.175      343.692       19.984      860.964
06/05/2014  08:34:00       44.593      -13.749        1.260       29.052       21.819       30.310      844.007      476.089      918.685        0.221        0.112       46.664       13.681        0.086      343.478       19.620      860.964
06/05/2014  08:35:00        9.293       -2.167       18.208       34.770       27.770       29.045     1208.950      771.150      843.588        0.162        0.141        9.543       15.637        2.685      343.740       20.065      860.968
06/05/2014  08:36:00        4.990        0.426       10.176       18.031       16.584       23.948      325.114      275.022      573.526        0.065        0.059        5.008        8.071        2.597      343.842       20.238      860.970
06/05/2014  08:37:00       20.271      -32.519        8.632       28.676       29.557       25.917      822.292      873.591      671.695        0.195        0.118       38.320       22.765        0.353      343.392       19.474      860.972
06/05/2014  08:38:00       15.591        4.091       35.699       21.971       21.415       12.736      482.722      458.604      162.197        0.132        0.055       16.118        9.489        0.347      344.279       20.987      860.973
06/05/2014  08:39:00       40.608       26.256        9.343       37.778       32.504       20.697     1427.192     1056.487      428.379        0.267        0.146       48.357       16.979        0.123      343.668       19.941      860.970
06/05/2014  08:40:00       70.552       50.386        6.213       30.665       22.658       26.891      940.366      513.377      723.116        0.487        0.109       86.697       17.205        0.039      343.473       19.608      860.969
06/05/2014  08:41:00       60.339       45.234       -7.547       24.568       17.660       20.931      603.600      311.888      438.120        0.355        0.068       75.412        8.510        0.013      343.572       19.780      860.954
06/05/2014  08:42:00       69.694       17.272       14.752       36.168       42.871       26.851     1308.135     1837.883      721.003        0.462        0.193       71.802       19.699        0.075      343.660       19.929      860.955
06/05/2014  08:43:00       35.767      -11.373       20.861       30.558       37.399       35.749      933.778     1398.690     1277.975        0.273        0.181       37.532       25.105        0.447      343.593       19.815      860.943
06/05/2014  08:44:00       73.022       25.888        5.259       39.329       32.713       28.323     1546.750     1070.113      802.191        0.472        0.171       77.475       17.716        0.052      343.324       19.357      860.942
06/05/2014  08:45:00        9.072      -11.658       25.370       14.129       22.745       15.589      199.635      517.339      243.003        0.091        0.048       14.772       11.308        0.586      344.023       20.549      860.928
06/05/2014  08:46:00       55.307       30.809       26.170       39.143       27.308       26.870     1532.196      745.748      722.016        0.385        0.150       63.309       19.852        0.098      344.117       20.709      860.919
06/05/2014  08:47:00       24.027       45.310       30.434       43.401       25.145       29.722     1883.639      632.260      883.377        0.348        0.170       51.286       13.124        0.065      344.110       20.697      860.912
06/05/2014  08:48:00       30.344       85.802        5.150       30.790       56.540       34.530      948.043     3196.740     1192.317        0.682        0.267       91.010       27.567        0.092      343.973       20.463      860.897
06/05/2014  08:49:00       59.481       55.148      -10.376       22.207       25.910       18.749      493.161      671.337      351.536        0.410        0.076       81.113        6.312        0.006      343.599       19.823      860.896
06/05/2014  08:50:00       36.989       20.827       20.810       24.424       21.073       24.004      596.550      444.067      576.182        0.193        0.081       42.449       18.346        0.187      344.357       21.120      860.881
06/05/2014  08:51:00       32.553        7.740       19.689       26.704       39.039       26.573      713.129     1524.061      706.113        0.222        0.147       33.461       16.140        0.233      344.276       20.981      860.878
06/05/2014  08:52:00       39.362       -9.058       12.164       21.336       28.190       26.013      455.212      794.668      676.679        0.185        0.096       40.391       23.420        0.336      343.661       19.930      860.869
06/05/2014  08:53:00       52.265       -4.657        8.085       44.022       34.386       30.532     1937.900     1182.431      932.205        0.343        0.203       52.472       20.645        0.155      343.471       19.607      860.856
06/05/2014  08:54:00       65.605       19.817        9.877       32.630       26.918       37.722     1064.689      724.597     1422.920        0.400        0.161       68.532       20.558        0.090      343.766       20.110      860.843
06/05/2014  08:55:00       10.013       14.635      -19.594       38.059       23.220       19.515     1448.474      539.186      380.844        0.153        0.118       17.733       13.188        0.553      343.772       20.119      860.839
06/05/2014  08:56:00       28.704        9.227       28.471       35.435       33.434       32.929     1255.610     1117.854     1084.325        0.259        0.173       30.151       23.399        0.602      344.347       21.102      860.837
06/05/2014  08:57:00        0.304       25.649       32.567       29.895       27.468       26.503      893.707      754.477      702.393        0.203        0.118       25.650        9.302        0.132      344.368       21.139      860.836
06/05/2014  08:58:00       37.972      -39.423       10.663       39.426       63.835       32.195     1554.435     4074.934     1036.487        0.489        0.333       54.736       25.762        0.222      343.689       19.979      860.828
06/05/2014  08:59:00       30.815        0.376       23.751       34.435       53.778       35.089     1185.779     2892.032     1231.256        0.341        0.265       30.818       29.593        0.922      344.246       20.929      860.826
06/05/2014  09:00:00       56.371       18.164       32.748       44.021       27.454       33.139     1937.877      753.749     1098.214        0.418        0.189       59.225       18.711        0.100      344.087       20.658      860.823
06/05/2014  09:01:00       24.257       13.521       25.707       24.047       25.472       19.796      578.268      648.831      391.878        0.153        0.081       27.771       10.881        0.154      343.911       20.357      860.820
06/05/2014  09:02:00       27.707       15.474       24.194       21.271       26.038       19.172      452.464      677.966      367.568        0.154        0.075       31.735        5.612        0.031      344.107       20.692      860.810
06/05/2014  09:03:00       15.594        1.975       23.640       25.324       38.147       31.459      641.330     1455.193      989.676        0.195        0.154       15.718       27.992        3.172      344.766       21.818      860.800
06/05/2014  09:04:00       37.313       30.784       23.964       29.251       34.240       35.707      855.648     1172.402     1274.992        0.311        0.165       48.373       18.429        0.145      344.109       20.696      860.800
06/05/2014  09:05:00        6.292       -6.162        6.166       25.240       30.872       29.084      637.064      953.092      845.852        0.128        0.122        8.807       20.442        5.387      344.548       21.447      860.790
06/05/2014  09:06:00       10.731       42.098       52.903       32.256       34.168       28.673     1040.457     1167.458      822.154        0.386        0.152       43.444       24.267        0.312      344.525       21.406      860.786
06/05/2014  09:07:00       33.342       12.663       27.978       38.582       48.132       37.026     1488.608     2316.709     1370.917        0.361        0.259       35.666       34.639        0.943      344.295       21.014      860.776
06/05/2014  09:08:00       37.306       54.427        5.412       44.074       25.091       32.159     1942.538      629.556     1034.221        0.399        0.180       65.986       19.744        0.090      344.228       20.899      860.778
06/05/2014  09:09:00       17.567       22.360       25.883       26.144       30.625       23.071      683.490      937.900      532.266        0.182        0.108       28.435       19.371        0.464      345.148       22.474      860.760
06/05/2014  09:10:00       12.447       22.986       28.714       33.526       28.442       19.948     1124.008      808.936      397.937        0.192        0.117       26.140       22.691        0.754      345.670       23.370      860.763
06/05/2014  09:11:00       60.959       55.421       36.695       46.082       36.085       29.574     2123.548     1302.136      874.617        0.622        0.215       82.386       19.829        0.058      344.795       21.866      860.747
06/05/2014  09:12:00       65.764       60.684       35.249       44.682       38.890       36.098     1996.493     1512.417     1303.099        0.703        0.241       89.485       26.587        0.088      344.644       21.609      860.745
06/05/2014  09:13:00       35.968      -21.413       28.070       33.529       42.198       39.669     1124.180     1780.691     1573.662        0.351        0.224       41.860       32.284        0.595      344.442       21.264      860.747
06/05/2014  09:14:00       -7.968       31.275       35.023       17.937       33.844       27.196      321.748     1145.401      739.605        0.224        0.110       32.274       20.860        0.418      345.271       22.683      860.736
06/05/2014  09:15:00       54.219       52.306        7.390       36.585       35.622       29.529     1338.460     1268.921      871.937        0.460        0.174       75.337       17.841        0.056      344.694       21.696      860.727
06/05/2014  09:16:00        7.045       95.351        3.112       24.434       40.001       31.268      597.036     1600.094      977.706        0.616        0.159       95.611       28.264        0.087      344.840       21.945      860.720
06/05/2014  09:17:00       33.738       32.228       11.147       48.666       33.534       31.159     2368.380     1124.498      970.880        0.338        0.223       46.658       21.726        0.217      344.935       22.107      860.707
06/05/2014  09:18:00       32.251       43.091       20.372       36.782       31.327       33.268     1352.928      981.408     1106.729        0.338        0.172       53.824       17.079        0.101      345.175       22.520      860.706
06/05/2014  09:19:00       56.149       26.630       15.974       51.923       34.869       28.393     2696.037     1215.832      806.154        0.442        0.236       62.144       23.283        0.140      345.172       22.513      860.697
06/05/2014  09:20:00       84.108       63.391       20.183       48.789       32.586       32.322     2380.367     1061.858     1044.716        0.799        0.224      105.321       21.963        0.043      345.057       22.316      860.683
06/05/2014  09:21:00       73.791       69.701       10.668       48.253       37.546       34.776     2328.362     1409.680     1209.380        0.768        0.247      101.505       27.806        0.075      345.133       22.446      860.683
06/05/2014  09:22:00       -2.531       -5.643       39.157       15.084       30.565       11.029      227.536      934.210      121.630        0.143        0.064        6.184        4.167        0.454      345.487       23.054      860.681
06/05/2014  09:23:00       68.338       42.968       14.221       55.226       39.963       30.856     3049.947     1597.070      952.110        0.616        0.280       80.724       15.224        0.036      344.512       21.385      860.681
06/05/2014  09:24:00      102.038       79.966       30.690       41.422       28.409       35.739     1715.744      807.057     1277.274        1.077        0.190      129.639       17.804        0.019      344.303       21.027      860.678
06/05/2014  09:25:00       29.502        1.580       33.623       25.694       38.036       32.258      660.200     1446.704     1040.596        0.257        0.157       29.544       27.173        0.846      344.824       21.918      860.667
06/05/2014  09:26:00       31.702       -3.575        1.699       29.088       39.158       31.781      846.097     1533.341     1010.063        0.220        0.169       31.903       22.953        0.518      344.740       21.774      860.660
06/05/2014  09:27:00       61.961       31.410       27.060       33.776       27.611       34.866     1140.834      762.345     1215.608        0.434        0.156       69.468       28.739        0.171      344.880       22.012      860.645
06/05/2014  09:28:00       82.298       40.564       14.835       66.447       38.164       35.812     4415.174     1456.461     1282.529        0.789        0.358       91.752       26.633        0.084      344.997       22.215      860.643
06/05/2014  09:29:00      112.592       67.274       -6.806       39.619       24.502       24.693     1569.649      600.345      609.730        1.001        0.139      131.159       10.637        0.007      344.570       21.482      860.645
06/05/2014  09:30:00       32.456       22.096       14.319       38.856       23.689       25.330     1509.810      561.152      641.590        0.223        0.136       39.264       23.063        0.345      345.412       22.924      860.640
06/05/2014  09:31:00      -27.360        7.706       10.762       34.627       19.010       22.200     1199.009      361.372      492.819        0.149        0.103       28.425       10.412        0.134      345.180       22.528      860.639
06/05/2014  09:32:00      -30.407        6.446        6.566       22.372       23.818       20.514      500.526      567.316      420.837        0.125        0.074       31.083       13.459        0.187      344.900       22.048      860.639
06/05/2014  09:33:00        1.392        4.443       28.855       21.957       29.123       21.943      482.112      848.138      481.516        0.133        0.091        4.656       20.133       18.696      345.747       23.501      860.633
06/05/2014  09:34:00       42.389       28.597       21.755       34.503       27.838       22.610     1190.468      774.945      511.196        0.278        0.124       51.133       18.986        0.138      345.737       23.483      860.620
06/05/2014  09:35:00       -8.605       16.143       33.883       27.340       32.208       34.297      747.461     1037.349     1176.311        0.222        0.148       18.293       21.284        1.354      345.797       23.586      860.614
06/05/2014  09:36:00       52.940       34.827       39.866       53.298       36.545       34.663     2840.691     1335.572     1201.528        0.549        0.269       63.369       26.365        0.173      345.314       22.756      860.608
06/05/2014  09:37:00       73.573       44.032       10.088       38.111       33.945       35.424     1452.431     1152.253     1254.890        0.566        0.193       85.742       22.403        0.068      345.072       22.341      860.597
06/05/2014  09:38:00       42.875       51.982       11.231       36.642       31.598       30.833     1342.667      998.432      950.657        0.398        0.165       67.383       19.907        0.087      345.454       22.997      860.596
06/05/2014  09:39:00       47.919       46.934        7.567       44.379       29.136       28.153     1969.497      848.894      792.595        0.408        0.181       67.075       20.472        0.093      345.313       22.754      860.584
06/05/2014  09:40:00       26.567       40.938       16.879       41.905       53.096       32.632     1756.021     2819.151     1064.847        0.415        0.282       48.803       25.312        0.269      345.362       22.838      860.577
06/05/2014  09:41:00       13.710       47.223        5.318       25.150       32.047       32.332      632.526     1027.023     1045.363        0.258        0.135       49.173       21.540        0.192      345.558       23.176      860.570
06/05/2014  09:42:00       17.634       57.493       -3.406       33.860       42.451       29.749     1146.486     1802.084      885.012        0.373        0.192       60.137       29.779        0.245      345.185       22.536      860.555
06/05/2014  09:43:00       -4.281       54.522        4.112       22.200       28.057       29.658      492.834      787.215      879.578        0.258        0.108       54.690       21.747        0.158      345.543       23.151      860.556
06/05/2014  09:44:00      -77.468       25.342      -17.769       27.768       31.654       19.053      771.089     1001.956      362.999        0.455        0.107       81.507       11.688        0.021      344.945       22.123      860.546
06/05/2014  09:45:00      -26.222       15.592       30.675       54.582       21.833       26.979     2979.143      476.688      727.856        0.303        0.209       30.507       34.950        1.313      345.653       23.339      860.541
06/05/2014  09:46:00       76.845       31.231       15.781       32.215       32.661       31.381     1037.783     1066.743      984.753        0.511        0.154       82.949       16.995        0.042      345.447       22.986      860.535
06/05/2014  09:47:00       70.511       33.222        9.121       24.083       26.357       27.614      579.974      694.696      762.557        0.410        0.102       77.945       16.862        0.047      345.094       22.380      860.527
06/05/2014  09:48:00      100.498       80.901       10.477       35.643       27.563       29.382     1270.456      759.745      863.281        0.982        0.145      129.015       10.205        0.006      345.160       22.491      860.523
06/05/2014  09:49:00       50.107       72.014       18.205       59.595       52.756       44.341     3551.514     2783.174     1966.149        0.816        0.415       87.730       39.475        0.202      345.435       22.964      860.510
06/05/2014  09:50:00      131.311       98.706        0.256       63.384       51.976       35.934     4017.478     2701.507     1291.225        1.750        0.401      164.272       27.180        0.027      345.264       22.669      860.507
06/05/2014  09:51:00      153.219      104.584        5.315       36.273       36.357       32.527     1315.749     1321.855     1057.974        1.907        0.185      185.510       16.886        0.008      345.252       22.651      860.503
06/05/2014  09:52:00      113.268       56.409        4.402       46.903       36.184       40.533     2199.937     1309.305     1642.940        1.059        0.258      126.537       31.627        0.062      345.420       22.938      860.490
06/05/2014  09:53:00       71.945       60.187       -0.003       42.734       37.563       29.903     1826.162     1410.943      894.164        0.646        0.207       93.801       26.166        0.078      345.521       23.110      860.484
06/05/2014  09:54:00       89.424       93.947        6.931       40.897       48.534       37.030     1672.601     2355.594     1371.209        1.113        0.270      129.702       16.360        0.016      345.661       23.351      860.467
06/05/2014  09:55:00       75.322       47.004        9.386       40.892       43.605       33.161     1672.115     1901.404     1099.672        0.632        0.234       88.785       19.200        0.047      345.758       23.517      860.465
06/05/2014  09:56:00       54.808       76.276      -19.374       31.033       34.690       23.891      963.065     1203.389      570.802        0.597        0.137       93.926       13.569        0.021      345.391       22.888      860.466
06/05/2014  09:57:00       85.119       50.977       -7.170       53.495       29.966       24.838     2861.694      897.979      616.940        0.714        0.219       99.217       12.805        0.017      345.654       23.339      860.453
06/05/2014  09:58:00       51.379       73.572       -5.141       25.072       31.187       33.523      628.593      972.658     1123.821        0.540        0.136       89.736       19.431        0.047      345.743       23.494      860.448
06/05/2014  09:59:00       72.966       75.782        3.918       27.479       30.360       34.158      755.078      921.703     1166.749        0.696        0.142      105.200       22.285        0.045      345.422       22.942      860.440
06/05/2014  10:00:00       20.601      -16.804       -9.786       37.567       41.409       19.955     1411.247     1714.705      398.190        0.216        0.176       26.585       14.566        0.300      345.294       22.721      860.425
06/05/2014  10:01:00       -3.495      -26.797       18.771       14.207       25.719       16.367      201.836      661.491      267.885        0.111        0.057       27.024       17.007        0.396      345.912       23.785      860.413
06/05/2014  10:02:00       90.775       61.537       32.740       54.841       43.436       37.539     3007.550     1886.689     1409.212        0.970        0.315      109.667       25.169        0.053      345.945       23.838      860.407
06/05/2014  10:03:00       90.351       43.142       26.113       52.048       43.829       34.110     2708.943     1920.984     1163.512        0.825        0.290      100.122       22.834        0.052      345.773       23.544      860.409
06/05/2014  10:04:00       45.246      127.896       -9.980       43.512       62.795       34.736     1893.271     3943.215     1206.595        1.277        0.352      135.664       29.277        0.047      345.808       23.603      860.416
06/05/2014  10:05:00       36.003       54.914       -9.757       53.066       39.243       34.423     2815.964     1540.043     1184.975        0.497        0.277       65.664       33.525        0.261      345.857       23.688      860.418
06/05/2014  10:06:00       53.639       37.803        7.575       50.043       25.547       34.105     2504.351      652.663     1163.128        0.434        0.216       65.622       19.019        0.084      345.795       23.581      860.411
06/05/2014  10:07:00        9.754       33.399        2.611       22.547       33.385       27.698      508.373     1114.588      767.166        0.180        0.120       34.794       24.976        0.515      346.282       24.418      860.404
06/05/2014  10:08:00        9.152       29.492       35.541       41.491       30.608       21.157     1721.491      936.822      447.604        0.266        0.155       30.879        9.004        0.085      346.038       23.998      860.391
06/05/2014  10:09:00       81.798       74.915       28.244       39.589       36.273       34.521     1567.312     1315.701     1191.716        0.859        0.204      110.920       21.574        0.038      346.083       24.074      860.381
06/05/2014  10:10:00       57.183       64.632       29.034       23.547       22.859       31.490      554.464      522.546      991.590        0.518        0.103       86.298        7.715        0.008      345.843       23.664      860.372
06/05/2014  10:11:00       41.518       35.959       43.081       24.562       28.756       23.553      603.301      826.917      554.761        0.343        0.099       54.925       19.362        0.124      345.947       23.842      860.363
06/05/2014  10:12:00        3.545      -35.728       14.085       21.756       38.584       23.588      473.333     1488.705      556.377        0.200        0.126       35.904       13.997        0.152      346.305       24.458      860.341
06/05/2014  10:13:00       33.518       20.995       26.868       32.077       23.733       21.157     1028.947      563.279      447.631        0.216        0.102       39.550       12.496        0.100      346.780       25.276      860.333
06/05/2014  10:14:00       16.562      -23.672       17.606       28.834       54.883       24.784      831.408     3012.144      614.263        0.280        0.223       28.890       16.574        0.329      346.569       24.912      860.319
06/05/2014  10:15:00       42.511       -8.790       15.047       48.703       76.290       36.746     2371.994     5820.200     1350.289        0.582        0.477       43.411       37.693        0.754      346.566       24.906      860.302
06/05/2014  10:16:00       37.874       -8.657       43.192       48.895       49.634       38.144     2390.680     2463.486     1454.998        0.484        0.315       38.851       36.007        0.859      346.614       24.989      860.296
06/05/2014  10:17:00       42.289     -103.365        5.951       33.996       47.379       32.504     1155.719     2244.726     1056.500        0.848        0.223      111.681       14.867        0.018      346.158       24.205      860.286
06/05/2014  10:18:00       -1.245      -16.766       30.549       22.809       51.884       29.553      520.267     2691.943      873.393        0.265        0.204       16.812       34.008        4.092      346.888       25.460      860.272
06/05/2014  10:19:00      -15.538        8.406       42.332       30.256       38.506       23.630      915.404     1482.722      558.387        0.253        0.148       17.666       23.350        1.747      347.256       26.095      860.269
06/05/2014  10:20:00        7.140       74.269      108.509       35.124       65.249       34.442     1233.726     4257.391     1186.269        1.201        0.334       74.612       39.091        0.275      346.719       25.169      860.253
06/05/2014  10:21:00       35.209      -13.898       60.457       40.640       62.259       38.204     1651.599     3876.157     1459.567        0.604        0.349       37.853       41.297        1.190      347.054       25.745      860.258
06/05/2014  10:22:00        0.729      -28.667       12.068       33.039       43.454       43.079     1091.578     1888.269     1855.805        0.290        0.242       28.676       25.979        0.821      346.864       25.419      860.249
06/05/2014  10:23:00        1.207       31.390       81.766       29.250       71.319       32.875      855.585     5086.470     1080.773        0.735        0.351       31.413       42.188        1.804      346.656       25.060      860.244
06/05/2014  10:24:00      107.167       65.863       47.432       72.391       44.515       51.598     5240.399     1981.611     2662.375        1.398        0.494      125.789       39.431        0.098      346.360       24.552      860.243
06/05/2014  10:25:00       38.545       16.721       21.618       96.947       68.173       28.200     9398.782     4647.519      795.232        0.853        0.742       42.015       37.684        0.804      346.415       24.645      860.225
06/05/2014  10:26:00      167.713      115.151       10.556       67.440       40.970       44.792     4548.115     1678.563     2006.311        2.486        0.412      203.439       21.964        0.012      346.160       24.205      860.205
06/05/2014  10:27:00       15.301       33.097       66.098       45.397       40.005       39.847     2060.884     1600.383     1587.752        0.547        0.262       36.463       30.632        0.706      346.841       25.380      860.213
06/05/2014  10:28:00       38.334       79.811       92.977       55.693       46.538       30.621     3101.726     2165.782      937.667        1.134        0.310       88.539       22.548        0.065      346.498       24.789      860.194
06/05/2014  10:29:00       44.143      100.399       90.890       72.811       55.539       66.971     5301.436     3084.611     4485.146        1.658        0.644      109.675       58.443        0.284      346.524       24.834      860.191
06/05/2014  10:30:00      116.775       89.734       15.662       57.934       48.302       50.844     3356.401     2333.087     2585.132        1.510        0.414      147.271       39.544        0.072      346.115       24.131      860.199
06/05/2014  10:31:00      -53.010       32.465        0.199       47.427       20.947       33.964     2249.329      438.795     1153.562        0.385        0.192       62.161       30.793        0.245      346.335       24.509      860.184
06/05/2014  10:32:00       75.726       46.166       41.129       80.595       53.829       45.383     6495.627     2897.549     2059.612        1.050        0.573       88.689       27.275        0.095      346.829       25.358      860.174
06/05/2014  10:33:00       66.367       43.032       24.456       65.677       40.910       47.079     4313.468     1673.634     2216.465        0.753        0.410       79.097       42.078        0.283      346.936       25.543      860.181
06/05/2014  10:34:00       84.761       70.836       22.581       60.208       60.260       42.875     3624.963     3631.241     1838.300        1.090        0.455      110.464       21.463        0.038      346.651       25.051      860.163
06/05/2014  10:35:00      106.783       78.504        5.321       39.447       37.923       30.144     1556.054     1438.141      908.675        1.075        0.195      132.535       16.387        0.015      346.475       24.749      860.164
06/05/2014  10:36:00       34.924       70.181       -6.746       41.405       29.292       25.781     1714.359      858.004      664.672        0.471        0.162       78.390       22.569        0.083      346.214       24.302      860.153
06/05/2014  10:37:00      -10.258        6.019       17.748       12.654       10.841       20.031      160.124      117.532      401.229        0.057        0.034       11.893        9.384        0.623      346.926       25.526      860.139
06/05/2014  10:38:00        9.045        8.234       16.810       26.664       25.051       22.736      710.978      627.556      516.908        0.114        0.093       12.232       14.279        1.363      346.945       25.559      860.140
06/05/2014  10:39:00       35.708       24.225       26.832       48.496       45.753       32.329     2351.821     2093.294     1045.165        0.404        0.275       43.150       31.381        0.529      346.763       25.244      860.121
06/05/2014  10:40:00       30.526      -21.241       35.807       56.205       50.088       55.390     3159.044     2508.772     3068.012        0.570        0.437       37.189       51.329        1.905      346.960       25.585      860.127
06/05/2014  10:41:00       69.707      -28.820       25.848       56.139       74.518       51.253     3151.578     5552.915     2626.831        0.884        0.567       75.430       47.548        0.397      346.701       25.139      860.129
06/05/2014  10:42:00       87.909       26.837        0.884       36.598       36.562       35.164     1339.385     1336.764     1236.524        0.618        0.196       91.914       16.684        0.033      346.335       24.508      860.133
06/05/2014  10:43:00       62.737       82.483        5.902       38.775       52.945       37.148     1503.528     2803.192     1379.970        0.823        0.284      103.631       33.588        0.105      346.609       24.979      860.123
06/05/2014  10:44:00      -16.978       74.408      -11.302       29.366       65.985       29.483      862.358     4354.084      869.238        0.602        0.304       76.320       16.947        0.049      346.648       25.048      860.107
06/05/2014  10:45:00      -44.384        0.756       -9.879       27.340       14.509       18.745      747.491      210.508      351.379        0.169        0.065       44.391       16.388        0.136      346.543       24.866      860.091
06/05/2014  10:46:00      -43.616       11.833        4.649       27.462       20.137       21.235      754.154      405.486      450.936        0.184        0.081       45.193       17.464        0.149      346.742       25.209      860.075
06/05/2014  10:47:00       -8.904       -5.484        8.049       24.572       24.124       20.336      603.806      581.964      413.563        0.089        0.080       10.458       15.576        2.218      347.150       25.914      860.057
06/05/2014  10:48:00       -7.950       41.358       40.218       48.334       37.723       38.042     2336.172     1423.007     1447.157        0.430        0.260       42.115       34.122        0.656      347.699       26.858      860.056
06/05/2014  10:49:00       42.458       81.048      100.458       63.104       58.116       40.331     3982.161     3377.510     1626.590        1.372        0.449       91.495       43.289        0.224      347.094       25.813      860.031
06/05/2014  10:50:00       52.565       -3.127       41.160       57.539       69.023       55.147     3310.732     4764.188     3041.194        0.779        0.556       52.658       55.402        1.107      347.092       25.812      860.038
06/05/2014  10:51:00       56.280       69.208        9.505       81.888       62.634       47.216     6705.671     3922.959     2229.338        1.045        0.643       89.203       37.371        0.176      347.134       25.882      860.010
06/05/2014  10:52:00       68.107      107.260        9.964       66.569       75.445       50.616     4431.489     5692.016     2561.974        1.446        0.634      127.056       44.872        0.125      346.973       25.604      860.001
06/05/2014  10:53:00       82.404       75.485        8.973       51.882       55.999       51.547     2691.710     3135.907     2657.115        1.053        0.424      111.751       35.808        0.103      346.953       25.571      859.994
06/05/2014  10:54:00       72.337       57.129       12.866       45.799       49.513       42.813     2097.567     2451.571     1832.939        0.752        0.319       92.176       33.282        0.130      346.964       25.590      859.992
06/05/2014  10:55:00      108.846       74.553       -0.332       64.495       69.083       32.062     4159.644     4772.436     1027.950        1.368        0.498      131.930       26.307        0.040      346.792       25.293      859.974
06/05/2014  10:56:00      116.415       67.241       29.368       90.407       49.879       49.735     8173.465     2487.894     2473.597        1.603        0.657      134.439       33.960        0.064      347.295       26.161      859.968
06/05/2014  10:57:00      109.211       83.889        4.421       66.130       41.697       36.036     4373.115     1738.656     1298.606        1.320        0.371      137.712       18.885        0.019      346.904       25.486      859.962
06/05/2014  10:58:00      118.677       58.902       17.138       52.877       50.545       39.043     2795.998     2554.791     1524.353        1.236        0.344      132.490       27.531        0.043      346.801       25.311      859.966
06/05/2014  10:59:00       88.002       72.368       23.214       44.392       42.201       40.661     1970.620     1780.962     1653.327        0.946        0.270      113.936       26.525        0.054      346.965       25.593      859.953
06/05/2014  11:00:00       17.111        3.071       33.303       47.316       41.962       34.289     2238.820     1760.796     1175.713        0.329        0.259       17.385       24.149        1.930      347.677       26.820      859.935
06/05/2014  11:01:00       73.505      -51.326       35.332       97.978      105.309       68.637     9599.676    11090.086     4711.047        1.734        1.270       89.651       74.619        0.693      347.590       26.670      859.910
06/05/2014  11:02:00      -49.816       -8.114       34.119       69.486       68.482       48.910     4828.359     4689.815     2392.177        0.781        0.596       50.472       51.781        1.053      347.451       26.431      859.926
06/05/2014  11:03:00      -26.867       -8.473       22.441       35.771       22.712       21.893     1279.531      515.849      479.291        0.179        0.114       28.172       22.529        0.640      347.802       27.037      859.927
06/05/2014  11:04:00      -26.518       -8.012        2.406       21.138       25.959       17.332      446.832      673.883      300.386        0.110        0.071       27.702        6.939        0.063      347.572       26.639      859.933
06/05/2014  11:05:00       35.401      -21.378       36.932       56.927       88.227       52.032     3240.670     7784.054     2707.308        0.840        0.687       41.355       55.324        1.790      347.919       27.238      859.924
06/05/2014  11:06:00       22.502       68.248       98.010       40.834       46.265       27.275     1667.381     2140.444      743.938        0.966        0.228       71.862       22.521        0.098      347.548       26.596      859.927
06/05/2014  11:07:00      119.505       35.160       30.122       52.975       55.925       44.974     2806.322     3127.639     2022.652        1.219        0.398      124.570       29.861        0.057      347.036       25.715      859.929
06/05/2014  11:08:00       51.051        2.368       13.440       57.967       41.486       38.766     3360.148     1721.104     1502.792        0.469        0.329       51.106       37.098        0.527      347.811       27.053      859.910
06/05/2014  11:09:00       81.509       64.911       37.255       54.219       50.479       56.095     2939.716     2548.121     3146.625        1.044        0.432      104.198       33.522        0.104      347.754       26.954      859.903
06/05/2014  11:10:00      129.173       61.186       28.346       62.979       45.995       68.961     3966.382     2115.533     4755.684        1.603        0.542      142.932       46.263        0.105      347.179       25.960      859.908
06/05/2014  11:11:00       35.677       15.658      -20.795       72.568       59.930       18.432     5266.114     3591.600      339.753        0.557        0.460       38.961       24.147        0.384      346.959       25.581      859.915
06/05/2014  11:12:00      -11.346      -13.746       22.746       47.054       61.786       34.043     2214.124     3817.533     1158.945        0.401        0.360       17.824       36.851        4.275      347.389       26.324      859.892
06/05/2014  11:13:00       52.946       17.874       38.547       51.374       56.704       29.878     2639.286     3215.400      892.689        0.568        0.337       55.882       19.186        0.118      347.759       26.962      859.896
06/05/2014  11:14:00       68.887       13.118       58.817       76.628       88.758       57.671     5871.857     7877.899     3325.936        1.272        0.854       70.125       57.292        0.667      347.642       26.760      859.883
06/05/2014  11:15:00       51.447       12.471       75.907       39.228       28.601       31.606     1538.837      818.023      998.929        0.596        0.168       52.937       24.136        0.208      347.842       27.106      859.886
06/05/2014  11:16:00       16.532      -35.607       12.041       28.489       27.013       25.876      811.617      729.692      669.564        0.195        0.111       39.258       18.703        0.227      347.564       26.625      859.881
06/05/2014  11:17:00       93.191      -26.649       21.256       53.759      110.412       45.346     2890.081    12190.780     2056.258        1.349        0.857       96.927       54.951        0.321      347.462       26.448      859.847
06/05/2014  11:18:00       61.406       85.148      113.714       79.747       81.670       60.211     6359.534     6670.016     3625.332        2.030        0.833      104.981       66.572        0.402      347.613       26.709      859.858
06/05/2014  11:19:00      101.351       90.866       48.571       71.538       57.106       50.279     5117.668     3261.057     2527.938        1.590        0.545      136.120       35.465        0.068      347.352       26.257      859.851
06/05/2014  11:20:00       81.095       59.389       36.996       65.532       46.722       41.411     4294.480     2182.990     1714.866        0.983        0.410      100.516       33.972        0.114      347.988       27.357      859.845
06/05/2014  11:21:00       68.305      140.707       -0.927       54.214      107.162       46.745     2939.121    11483.748     2185.135        2.053        0.830      156.409       59.258        0.144      347.344       26.243      859.849
06/05/2014  11:22:00       57.969       89.340        7.223       54.718       72.023       43.131     2994.043     5187.249     1860.274        1.072        0.502      106.499       44.925        0.178      347.423       26.381      859.841
06/05/2014  11:23:00       28.978       71.265        8.386       49.358       38.117       30.487     2436.242     1452.938      929.442        0.540        0.241       76.931       18.180        0.056      347.610       26.706      859.834
06/05/2014  11:24:00       96.969       36.201       18.543       68.668       36.964       32.955     4715.320     1366.301     1086.013        0.911        0.358      103.506        7.506        0.005      347.612       26.706      859.828
06/05/2014  11:25:00       27.022      111.057       -5.063       33.073       55.942       32.450     1093.802     3129.537     1052.977        0.918        0.264      114.297       33.643        0.087      347.449       26.427      859.811
06/05/2014  11:26:00       76.115       68.724       18.159       51.455       58.359       46.948     2647.645     3405.753     2204.117        0.955        0.413      102.550       31.746        0.096      347.535       26.574      859.811
06/05/2014  11:27:00       79.858       57.653        9.571       60.902       39.514       30.446     3709.056     1561.332      926.954        0.799        0.310       98.494       14.052        0.020      347.280       26.135      859.789
06/05/2014  11:28:00       60.416      -12.084       38.086       57.659       66.513       45.991     3324.611     4424.000     2115.183        0.755        0.493       61.613       21.671        0.124      347.945       27.281      859.784
06/05/2014  11:29:00       79.234       46.286       93.323       82.344       93.691       45.351     6780.570     8778.092     2056.729        1.737        0.881       91.763       45.603        0.247      348.043       27.450      859.766
06/05/2014  11:30:00       15.134        0.045       52.552       33.714       58.963       31.603     1136.613     3476.617      998.749        0.430        0.281       15.134       32.381        4.578      348.471       28.190      859.773
06/05/2014  11:31:00       -8.310       -0.368       74.039       35.293       70.054       37.586     1245.580     4907.513     1412.721        0.656        0.378        8.318       44.548       28.684      348.399       28.066      859.768
06/05/2014  11:32:00       66.404      -95.786       17.818       60.340      101.597       53.908     3640.913    10321.929     2906.023        1.538        0.843      116.552       71.185        0.373      348.139       27.618      859.757
06/05/2014  11:33:00        7.671      -22.668       34.981       50.965       58.761       46.966     2597.450     3452.864     2205.843        0.502        0.413       23.931       33.947        2.012      348.236       27.785      859.758
06/05/2014  11:34:00       37.586       18.102       45.114       53.576       60.488       45.347     2870.390     3658.824     2056.319        0.618        0.429       41.718       47.823        1.314      347.943       27.281      859.752
06/05/2014  11:35:00       24.799      -69.057       19.300       43.610       63.182       43.298     1901.806     3991.907     1874.679        0.676        0.388       73.375       48.932        0.445      347.979       27.341      859.753
06/05/2014  11:36:00       85.975      -34.143       26.675       64.831       73.497       59.296     4203.062     5401.870     3516.020        1.119        0.656       92.506       52.937        0.327      348.199       27.721      859.743
06/05/2014  11:37:00       25.356       28.834       72.208       39.440       58.094       37.138     1555.515     3374.869     1379.245        0.650        0.315       38.396       30.825        0.645      348.244       27.798      859.730
06/05/2014  11:38:00      131.936       71.280       18.497       82.665       61.267       53.992     6833.551     3753.598     2915.167        1.816        0.675      149.960       41.628        0.077      347.574       26.642      859.734
06/05/2014  11:39:00       73.313       77.281       26.705       84.917       55.013       38.674     7210.817     3026.471     1495.716        1.189        0.587      106.523       25.880        0.059      347.815       27.058      859.721
06/05/2014  11:40:00       93.586      169.296        3.988       95.658      113.336       79.907     9150.411    12845.081     6385.200        3.290        1.419      193.441       64.539        0.111      347.718       26.887      859.713
06/05/2014  11:41:00       55.158      100.364        2.192      108.641       74.992       56.799    11802.919     5623.811     3226.128        1.688        1.033      114.522       37.522        0.107      347.960       27.309      859.690
06/05/2014  11:42:00      117.413       74.012       15.182       97.602       71.221       51.593     9526.167     5072.440     2661.840        1.837        0.863      138.793       32.751        0.056      348.045       27.454      859.674
06/05/2014  11:43:00      149.092      106.328       19.850      114.778       72.717       59.457    13173.963     5287.696     3535.076        2.796        1.100      183.123       19.920        0.012      348.031       27.429      859.670
06/05/2014  11:44:00       90.563      120.101       42.533       69.127       71.809       81.511     4778.492     5156.571     6644.121        2.050        0.829      150.419       26.905        0.032      347.964       27.313      859.667
06/05/2014  11:45:00      114.215       57.519       85.885      107.185       90.640       80.385    11488.679     8215.603     6461.774        2.494        1.308      127.881       69.449        0.295      347.933       27.259      859.670
06/05/2014  11:46:00       91.477      -22.682       25.033       85.983      127.723       53.948     7393.131    16313.266     2910.359        1.806        1.331       94.247       61.396        0.424      347.638       26.750      859.674
06/05/2014  11:47:00       58.682     -121.446       -4.861       38.379       49.723       39.425     1472.979     2472.411     1554.292        1.186        0.275      134.880       27.213        0.041      347.506       26.525      859.653
06/05/2014  11:48:00       22.987     -106.407      -21.598       42.550       36.123       25.616     1810.464     1304.849      656.169        0.804        0.189      108.862       16.639        0.023      347.780       26.997      859.625
06/05/2014  11:49:00       11.659       20.771       40.527       34.966       50.198       38.812     1222.625     2519.817     1506.400        0.373        0.262       23.819       37.774        2.515      348.305       27.905      859.606
06/05/2014  11:50:00       68.398        8.065       68.518       83.538       83.171       72.990     6978.668     6917.428     5327.545        1.433        0.961       68.872       57.443        0.696      348.052       27.467      859.604
06/05/2014  11:51:00      156.566     -133.705        8.864      105.864      129.345       64.757    11207.135    16730.049     4193.529        3.729        1.607      205.888       78.848        0.147      348.068       27.492      859.575
06/05/2014  11:52:00      154.859     -121.143       -0.821       76.235      105.891       64.355     5811.738    11212.867     4141.516        2.991        1.058      196.614       73.936        0.141      347.745       26.935      859.560
06/05/2014  11:53:00       57.570       -8.042       64.346       71.834      125.384       69.630     5160.112    15721.152     4848.302        1.662        1.286       58.129       82.175        1.998      348.120       27.584      859.557
06/05/2014  11:54:00       26.505      -40.561       27.747       69.834      104.810       61.870     4876.776    10985.110     3827.862        1.140        0.984       48.453       75.912        2.455      348.113       27.573      859.557
06/05/2014  11:55:00       43.529       24.461       66.665       59.464       81.408       55.241     3535.959     6627.206     3051.518        1.007        0.661       49.931       57.658        1.333      348.257       27.822      859.566
06/05/2014  11:56:00       53.917       18.629       65.302       65.846       64.075       53.344     4335.758     4105.602     2845.590        0.940        0.564       57.044       34.076        0.357      348.450       28.155      859.543
06/05/2014  11:57:00       55.038     -116.832       19.618       82.417      141.459       71.463     6792.573    20010.608     5106.902        2.448        1.596      129.147       84.393        0.427      348.133       27.605      859.530
06/05/2014  11:58:00       98.810     -162.178       -5.969       66.484       84.764       51.846     4420.133     7185.002     2687.997        2.519        0.715      189.909       39.915        0.044      347.796       27.022      859.542
06/05/2014  11:59:00        7.574       29.377       65.919       38.040       40.255       22.393     1447.061     1620.447      501.461        0.442        0.178       30.338       21.891        0.521      348.761       28.693      859.535
06/05/2014  12:00:00      159.939       93.773       20.454       86.102       74.237       48.472     7413.485     5511.059     2349.543        2.503        0.764      185.402       27.470        0.022      348.059       27.477      859.537
06/05/2014  12:01:00       89.054       48.722       78.938       76.978       81.487       62.885     5925.613     6640.196     3954.562        1.652        0.826      101.510       55.173        0.295      348.420       28.102      859.530
06/05/2014  12:02:00       83.850       15.578      100.677      103.029      114.679       78.084    10614.913    13151.263     6097.065        2.363        1.493       85.285       76.239        0.799      348.541       28.313      859.504
06/05/2014  12:03:00       64.813       25.420      107.235       69.459      125.455       71.958     4824.558    15738.874     5177.922        2.104        1.287       69.620       84.776        1.483      348.195       27.713      859.510
06/05/2014  12:04:00       61.693      -21.876       57.781       54.144      128.511       51.205     2931.623    16515.167     2621.993        1.484        1.103       65.456       56.596        0.748      348.586       28.389      859.507
06/05/2014  12:05:00       74.579       69.837       17.277       51.606       47.014       46.719     2663.217     2210.325     2182.703        0.890        0.353      102.173       23.691        0.054      348.091       27.535      859.512
06/05/2014  12:06:00       91.867      122.696      124.495       87.975       84.026       73.597     7739.650     7060.367     5416.589        2.960        1.011      153.277       60.568        0.156      348.117       27.576      859.506
06/05/2014  12:07:00       57.688       60.138       79.020       72.491       67.077       43.936     5254.951     4499.268     1930.414        1.243        0.584       83.334       41.535        0.248      348.458       28.168      859.497
06/05/2014  12:08:00       90.815        7.332       44.905       60.355       62.484       44.951     3642.671     3904.281     2020.572        0.994        0.478       91.110       32.821        0.130      348.218       27.754      859.502
06/05/2014  12:09:00      123.592       31.011       49.005       60.611       61.447       52.981     3673.739     3775.675     2806.941        1.445        0.513      127.423       29.112        0.052      347.958       27.304      859.503
06/05/2014  12:10:00       62.104       30.855       24.126       92.559       46.973       46.685     8567.122     2206.435     2179.508        0.917        0.648       69.347       52.313        0.569      347.646       26.764      859.514
06/05/2014  12:11:00       -7.747       42.891       -8.412       22.042       47.398       29.871      485.842     2246.578      892.304        0.280        0.181       43.585       24.102        0.306      348.032       27.433      859.460
06/05/2014  12:12:00       -8.915       71.726      -16.378       50.641       61.305       23.580     2564.463     3758.350      556.017        0.618        0.344       72.278       15.959        0.049      348.108       27.565      859.432
06/05/2014  12:13:00       20.779      -87.415      -10.227       70.012      104.756       56.841     4901.715    10973.840     3230.869        1.364        0.955       89.850       59.823        0.443      348.443       28.142      859.423
06/05/2014  12:14:00       19.016      -80.635        2.360       93.008       40.251       36.990     8650.540     1620.161     1368.295        0.925        0.582       82.847       28.520        0.119      348.246       27.801      859.432
06/05/2014  12:15:00       40.947      -36.453       33.918       56.900       85.631       56.918     3237.664     7332.673     3239.703        0.898        0.691       54.822       53.904        0.967      348.549       28.324      859.430
06/05/2014  12:16:00       19.201       28.764       45.640       29.801       23.073       19.651      888.118      532.371      386.178        0.254        0.090       34.584       18.168        0.276      348.317       27.926      859.416
06/05/2014  12:17:00       42.875       11.553       -0.330       37.137       43.103       31.459     1379.162     1857.880      989.667        0.310        0.211       44.404       23.408        0.278      347.917       27.236      859.396
06/05/2014  12:18:00       67.636       33.776       15.352       36.216       34.470       30.391     1311.565     1188.188      923.594        0.469        0.171       75.601       22.449        0.088      348.243       27.797      859.382
06/05/2014  12:19:00       37.958       30.920       18.006       31.596       33.896       30.312      998.313     1148.919      918.828        0.289        0.153       48.958       18.994        0.151      348.411       28.088      859.379
06/05/2014  12:20:00        8.007       -7.547       21.957       28.375       50.401       37.207      805.155     2540.228     1384.367        0.267        0.236       11.003       34.985       10.109      349.007       29.121      859.373
06/05/2014  12:21:00      -38.819       -7.042        3.503       35.607       28.508       22.613     1267.888      812.685      511.343        0.208        0.130       39.452       16.392        0.173      348.660       28.518      859.362
06/05/2014  12:22:00      -82.567       24.122       12.986       54.811       36.390       31.541     3004.292     1324.232      994.834        0.644        0.266       86.019       35.094        0.166      348.390       28.050      859.353
06/05/2014  12:23:00      -19.289       15.216        9.377       53.969       35.896       31.994     2912.615     1288.489     1023.634        0.296        0.261       24.568       32.727        1.774      348.938       29.000      859.340
06/05/2014  12:24:00      -30.236      -37.302       -6.810       57.282       39.669       36.148     3281.195     1573.599     1306.645        0.426        0.308       48.017       26.407        0.302      348.595       28.406      859.326
06/05/2014  12:25:00      -86.902      -74.175       -2.968       48.985       53.957       29.038     2399.504     2911.390      843.178        0.961        0.308      114.254       18.768        0.027      348.192       27.707      859.320
06/05/2014  12:26:00     -112.666      -49.262        0.614       75.378       51.684       40.645     5681.782     2671.208     1652.049        1.256        0.500      122.965       43.152        0.123      348.349       27.980      859.315
06/05/2014  12:27:00     -109.377      -46.437        1.213       45.725       37.668       32.547     2090.773     1418.911     1059.301        0.934        0.228      118.827       22.016        0.034      348.221       27.758      859.276
06/05/2014  12:28:00      -63.402      -11.180        7.883       54.874       47.860       28.398     3011.149     2290.592      806.423        0.516        0.305       64.380       25.606        0.158      348.457       28.168      859.261
06/05/2014  12:29:00     -105.207      -95.840       -0.412       63.199       44.784       37.289     3994.160     2005.651     1390.455        1.382        0.370      142.316       37.934        0.071      348.119       27.583      859.248
06/05/2014  12:30:00      -66.253       -6.077       -0.673       29.119       35.160       26.857      847.895     1236.218      721.276        0.362        0.140       66.531       18.656        0.079      348.181       27.690      859.236
06/05/2014  12:31:00      -23.018       20.502        6.140       28.888       27.054       20.959      834.506      731.919      439.294        0.150        0.100       30.825       17.036        0.305      348.614       28.439      859.243
06/05/2014  12:32:00      -35.367      -24.243        7.631       36.761       20.257       19.273     1351.377      410.333      371.467        0.201        0.107       42.878       16.903        0.155      348.841       28.832      859.229
06/05/2014  12:33:00      -58.911      -54.166       -1.381       54.192       44.078       37.050     2936.799     1942.835     1372.674        0.633        0.313       80.028       35.796        0.200      348.880       28.899      859.222
06/05/2014  12:34:00      -92.316      -78.315        8.248       48.623       58.683       34.046     2364.244     3443.716     1159.154        1.084        0.348      121.060       23.907        0.039      348.643       28.489      859.221
06/05/2014  12:35:00      -78.663      -41.235       -2.811       42.256       37.526       28.361     1785.592     1408.196      804.353        0.595        0.200       88.815       20.243        0.052      348.266       27.836      859.228
06/05/2014  12:36:00      -39.162      -44.835       12.869       53.852       53.877       30.606     2900.003     2902.746      936.729        0.522        0.337       59.530       33.388        0.315      348.428       28.117      859.214
06/05/2014  12:37:00       -2.370       43.569        9.380       27.429       79.149       33.333      752.344     6264.641     1111.063        0.506        0.406       43.633       40.920        0.879      349.237       29.518      859.204
06/05/2014  12:38:00        5.737       19.822      -15.123       22.323       53.622       23.825      498.328     2875.370      567.639        0.230        0.197       20.636       20.973        1.033      348.293       27.884      859.186
06/05/2014  12:39:00       -2.482      -22.394        0.669       15.467       18.734       19.024      239.227      350.976      361.914        0.073        0.048       22.531       13.202        0.343      348.489       28.222      859.170
06/05/2014  12:40:00       54.206        1.365      -28.513       38.751       43.146       42.003     1501.649     1861.588     1764.210        0.444        0.256       54.223       29.673        0.299      348.470       28.190      859.166
06/05/2014  12:41:00       23.227       79.970       23.513       41.230       45.736       39.284     1699.914     2091.757     1543.265        0.641        0.267       83.275       15.639        0.035      348.556       28.338      859.147
06/05/2014  12:42:00       -2.819       51.748       19.657       30.522       32.886       31.242      931.563     1081.508      976.059        0.303        0.149       51.825       21.823        0.177      348.941       29.006      859.121
06/05/2014  12:43:00       59.238       72.901        7.648       44.893       51.557       35.041     2015.417     2658.108     1227.838        0.739        0.295       93.935       32.990        0.123      348.963       29.042      859.120
06/05/2014  12:44:00       73.629       89.188       58.851       82.520       61.876       65.657     6809.472     3828.622     4310.876        1.589        0.747      115.654       22.116        0.037      348.767       28.705      859.115
06/05/2014  12:45:00       76.227       65.117       14.868       61.517       39.494       45.301     3784.381     1559.783     2052.208        0.883        0.370      100.254       30.536        0.093      348.647       28.495      859.121
06/05/2014  12:46:00       79.313       53.948       27.400       67.694       61.523       45.249     4582.511     3785.084     2047.511        1.018        0.521       95.921       26.233        0.075      349.132       29.335      859.107
06/05/2014  12:47:00       92.946     -136.480      -11.739       38.194       65.672       50.795     1458.797     4312.814     2580.096        1.788        0.418      165.124       40.547        0.060      348.608       28.428      859.095
06/05/2014  12:48:00      106.710     -129.190       40.499      103.376      169.257       83.147    10686.699    28648.055     6913.369        3.797        2.312      167.562      102.625        0.375      348.554       28.333      859.078
06/05/2014  12:49:00       94.378      -53.874       40.874       73.831       97.753       64.962     5451.077     9555.694     4220.081        1.635        0.961      108.672       65.972        0.369      348.916       28.961      859.085
06/05/2014  12:50:00      116.818     -170.999      -27.341       64.535       61.355       31.472     4164.743     3764.453      990.517        2.628        0.446      207.092       11.147        0.003      348.517       28.269      859.084
06/05/2014  12:51:00       76.761      -27.989       11.838       51.238       59.636       41.855     2625.307     3556.432     1751.803        0.737        0.397       81.705       41.973        0.264      348.985       29.080      859.095
06/05/2014  12:52:00      -17.751        0.369       21.894       42.256       46.582       26.543     1785.534     2169.882      704.512        0.273        0.233       17.755       10.671        0.361      349.640       30.216      859.063
06/05/2014  12:53:00       87.904     -142.008       -7.384       83.541      113.239       64.689     6979.147    12823.129     4184.645        2.596        1.199      167.014       65.345        0.153      348.848       28.842      859.069
06/05/2014  12:54:00       87.590     -209.120        1.400       91.160       92.237       73.123     8310.232     8507.698     5346.911        3.678        1.108      226.723       71.709        0.100      348.302       27.897      859.056
06/05/2014  12:55:00       34.367      -55.010       49.958       63.577      159.133       85.183     4042.080    25323.321     7256.174        2.166        1.831       64.863       99.040        2.331      348.940       29.002      859.045
06/05/2014  12:56:00       52.883      -17.097       90.756       86.643      143.538       93.790     7507.075    20603.175     8796.478        2.411        1.845       55.578       96.946        3.043      348.682       28.556      859.037
06/05/2014  12:57:00       96.188      -27.373       29.436       67.206      119.173       73.097     4516.620    14202.232     5343.103        1.746        1.203      100.007       80.985        0.656      348.290       27.877      859.034
06/05/2014  12:58:00       92.832      -56.867       28.909       89.433       99.571       71.140     7998.239     9914.342     5060.922        1.783        1.149      108.865       66.022        0.368      348.620       28.449      859.003
06/05/2014  12:59:00      -41.942     -166.052       -9.649       83.094       83.789       56.260     6904.599     7020.544     3165.227        2.325        0.855      171.267       39.670        0.054      348.191       27.706      859.006
06/05/2014  13:00:00      -91.300      -60.698       -6.296       44.503       59.414       34.754     1980.494     3530.077     1207.847        0.939        0.336      109.635       33.379        0.093      348.184       27.695      859.013
06/05/2014  13:01:00      -53.566      -16.993       -2.819       35.184       40.841       27.453     1237.915     1667.964      753.686        0.341        0.183       56.197       18.610        0.110      348.467       28.184      858.986
06/05/2014  13:02:00      -88.575      -49.679       11.539       74.740       49.571       29.842     5586.103     2457.252      890.539        0.969        0.447      101.556       27.604        0.074      348.728       28.636      858.969
06/05/2014  13:03:00      -89.027      -29.233      -22.868       42.088       58.132       37.657     1771.361     3379.379     1418.043        0.793        0.328       93.703       26.612        0.081      348.262       27.828      858.965
06/05/2014  13:04:00       -4.944       -0.896       11.376       43.635       31.061       26.238     1904.025      964.815      688.449        0.186        0.178        5.025       19.937       15.742      348.977       29.069      858.959
06/05/2014  13:05:00       -7.254      -42.090       -6.389       37.321       40.709       26.798     1392.855     1657.199      718.121        0.282        0.188       42.711       17.037        0.159      348.851       28.850      858.943
06/05/2014  13:06:00        0.161        1.394       20.280       27.058       44.151       32.714      732.146     1949.297     1070.218        0.208        0.188        1.403       24.626      308.068      349.191       29.437      858.924
06/05/2014  13:07:00      -60.299      -17.276        3.578       61.654       48.255       26.310     3801.157     2328.525      692.208        0.538        0.341       62.725       23.504        0.140      348.956       29.031      858.911
06/05/2014  13:08:00      -32.854        6.894       26.476       36.013       22.585       23.301     1296.960      510.073      542.914        0.209        0.117       33.569       22.064        0.432      348.999       29.106      858.913
06/05/2014  13:09:00       17.166      -41.172       17.885       54.510       50.307       32.283     2971.380     2530.822     1042.221        0.443        0.327       44.607       10.360        0.054      348.775       28.718      858.917
06/05/2014  13:10:00      128.167     -100.092       14.923       82.470       98.432       67.540     6801.289     9688.830     4561.610        2.386        1.053      162.620       70.494        0.188      348.658       28.512      858.898
06/05/2014  13:11:00      204.852       86.197       60.552      143.273      136.450      111.872    20527.247    18618.483    12515.369        5.235        2.583      222.248       90.651        0.166      348.591       28.396      858.874
06/05/2014  13:12:00       91.012      118.006        3.698       93.899       79.960       52.826     8817.082     6393.570     2790.625        2.011        0.900      149.025       47.640        0.102      348.538       28.306      858.881
06/05/2014  13:13:00       39.510      122.560        5.028       55.034       84.881       51.909     3028.748     7204.786     2694.541        1.477        0.646      128.771       47.491        0.136      348.687       28.565      858.874
06/05/2014  13:14:00       75.385       85.110       -1.201       45.783       60.125       43.150     2096.080     3615.016     1861.958        1.025        0.379      113.695       39.824        0.123      348.663       28.524      858.853
06/05/2014  13:15:00       34.526      192.199        1.735       97.602      130.326       66.486     9526.246    16984.786     4420.341        3.453        1.547      195.275       46.257        0.056      348.971       29.054      858.840
06/05/2014  13:16:00       31.260      218.627      -21.785       74.292      108.196       58.143     5519.245    11706.411     3380.578        3.492        1.030      220.851       53.967        0.060      348.567       28.354      858.853
06/05/2014  13:17:00       59.456       41.077       24.264       69.380       60.682       43.248     4813.594     3682.313     1870.369        0.809        0.518       72.266       22.421        0.096      348.885       28.908      858.836
06/05/2014  13:18:00      325.689      203.318       50.023      152.852      112.046       95.492    23363.662    12554.247     9118.797        9.747        2.252      383.942       52.017        0.018      348.477       28.199      858.805
06/05/2014  13:19:00      402.581      275.852       48.776      137.140      105.073       85.813    18807.272    11040.408     7363.843       13.887        1.861      488.023       55.970        0.013      348.370       28.012      858.779
06/05/2014  13:20:00      229.631      161.904       37.719      117.468       75.504       72.135    13798.762     5700.928     5203.386        5.253        1.235      280.969       55.951        0.040      348.589       28.392      858.798
06/05/2014  13:21:00      239.682      154.482       24.205      187.272       92.505       82.979    35070.957     8557.261     6885.517        6.620        2.526      285.153       47.766        0.028      348.511       28.258      858.782
06/05/2014  13:22:00      201.209      150.821       37.467      102.327       88.213       73.404    10470.899     7781.556     5388.103        4.413        1.182      251.460       35.515        0.020      348.447       28.146      858.790
06/05/2014  13:23:00      188.285      136.358       21.142      110.072       75.052       58.853    12115.927     5632.820     3463.711        3.785        1.061      232.475       36.034        0.024      348.419       28.099      858.784
06/05/2014  13:24:00      109.747      106.800       25.412       92.456       62.706       47.125     8548.075     3932.079     2220.729        1.940        0.735      153.136       36.005        0.055      348.672       28.538      858.755
06/05/2014  13:25:00      189.841      137.337       24.344      117.778       74.261       60.739    13871.684     5514.734     3689.271        3.928        1.154      234.309       45.470        0.038      348.901       28.932      858.722
06/05/2014  13:26:00      211.995      131.573       25.143      113.655       70.660       73.096    12917.506     4992.807     5342.968        4.306        1.163      249.506       30.371        0.015      348.724       28.624      858.725
06/05/2014  13:27:00       44.150      209.943      -11.637       84.199      122.871       60.070     7089.479    15097.167     3608.376        3.597        1.290      214.535       66.809        0.097      348.613       28.435      858.713
06/05/2014  13:28:00       -5.895      170.544      -15.073       36.339       86.805       42.270     1320.530     7535.084     1786.752        1.999        0.532      170.646       44.738        0.069      348.470       28.190      858.696
06/05/2014  13:29:00       16.120      106.933        9.581       68.756       72.591       51.032     4727.418     5269.462     2604.311        1.219        0.630      108.141       47.975        0.197      348.819       28.793      858.685
06/05/2014  13:30:00       34.588       69.640       21.880       75.101      102.015       59.221     5640.197    10407.121     3507.069        1.304        0.978       77.757       41.742        0.288      349.097       29.273      858.679
06/05/2014  13:31:00      105.588       73.636       64.456      108.139       84.067       88.648    11693.961     7067.289     7858.459        2.367        1.331      128.729       74.421        0.334      348.954       29.025      858.669
06/05/2014  13:32:00       61.909       28.856       20.051       66.959       82.107       48.005     4483.450     6741.619     2304.503        0.930        0.676       68.304       31.793        0.217      349.035       29.167      858.657
06/05/2014  13:33:00       48.152     -113.387       17.272       64.109       77.203       56.797     4110.004     5960.249     3225.894        1.438        0.665      123.187       50.617        0.169      349.042       29.179      858.649
06/05/2014  13:34:00       49.104      -25.350       32.829       61.631       39.054       35.101     3798.330     1525.180     1232.100        0.534        0.328       55.261       33.289        0.363      349.051       29.195      858.658
06/05/2014  13:35:00       37.582       21.639       64.210       70.566       80.752       67.401     4979.617     6520.934     4542.839        1.102        0.802       43.366       57.807        1.777      349.212       29.473      858.631
06/05/2014  13:36:00       31.686     -102.887       25.651       93.068      124.537       64.596     8661.732    15509.530     4172.652        2.029        1.417      107.655       77.587        0.519      349.233       29.510      858.619
06/05/2014  13:37:00      -18.317     -176.083       -7.447      107.345       97.909       51.277    11522.898     9586.141     2629.340        2.756        1.187      177.033       44.113        0.062      348.594       28.403      858.626
06/05/2014  13:38:00      -81.080      -79.262       -1.117       55.156       61.697       33.133     3042.198     3806.482     1097.807        1.040        0.397      113.386       28.625        0.064      348.412       28.087      858.617
06/05/2014  13:39:00      -24.668      -71.987       -4.217       33.447       43.423       31.559     1118.687     1885.542      995.973        0.490        0.200       76.096       15.371        0.041      348.740       28.658      858.613
06/05/2014  13:40:00       77.308      -96.635       37.999      110.443      140.864       86.756    12197.644    19842.609     7526.520        2.815        1.978      123.753       97.038        0.615      348.919       28.965      858.603
06/05/2014  13:41:00       97.812      139.061      194.956      121.476      141.103       86.851    14756.521    19909.926     7543.131        5.455        2.110      170.015       87.491        0.265      348.688       28.564      858.590
06/05/2014  13:42:00       49.917       82.513       83.751       63.811       65.982       68.449     4071.826     4353.640     4685.223        1.471        0.656       96.438       50.376        0.273      348.989       29.089      858.591
06/05/2014  13:43:00      155.591       66.637       56.361      128.130       87.199       66.294    16417.342     7603.743     4394.869        3.012        1.421      169.260       70.475        0.173      348.862       28.867      858.575
06/05/2014  13:44:00      196.213      104.459       29.424       86.761       70.502       56.920     7527.444     4970.495     3239.904        3.300        0.787      222.286       47.383        0.045      348.611       28.431      858.561
06/05/2014  13:45:00       72.369       40.583       44.820       88.184       63.167       43.287     7776.502     3990.109     1873.791        1.126        0.682       82.971       39.430        0.226      348.809       28.776      858.561
06/05/2014  13:46:00       38.196        3.970       42.347       58.395       41.752       28.528     3409.997     1743.255      813.862        0.462        0.298       38.402       28.316        0.544      349.146       29.359      858.573
06/05/2014  13:47:00      127.185      -16.554       68.751       95.935      139.695       68.338     9203.529    19514.661     4670.091        2.728        1.669      128.258       85.522        0.445      348.742       28.658      858.566
06/05/2014  13:48:00       89.547        2.735       36.480       51.438       56.937       37.045     2645.839     3241.853     1372.368        0.831        0.363       89.589       36.455        0.166      348.761       28.694      858.544
06/05/2014  13:49:00       98.203       78.954       52.271       78.733       70.763       51.341     6198.881     5007.348     2635.926        1.622        0.692      126.006       29.646        0.055      348.827       28.807      858.505
06/05/2014  13:50:00       55.729       27.217       74.813       58.604       49.718       37.812     3434.475     2471.914     1429.715        0.839        0.367       62.020       26.542        0.183      349.050       29.194      858.472
06/05/2014  13:51:00       51.785       -9.407       79.441       96.550      153.881       99.672     9321.997    23679.299     9934.484        2.600        2.147       52.633      101.353        3.708      349.082       29.248      858.465
06/05/2014  13:52:00       73.156       65.960      146.209      104.236      126.927       77.843    10865.172    16110.464     6059.546        3.205        1.652       98.501       84.606        0.738      349.093       29.267      858.448
06/05/2014  13:53:00       84.658      -45.084       63.040      101.810      122.764       70.186    10365.263    15070.953     4926.093        2.176        1.518       95.915       77.301        0.650      349.134       29.338      858.450
06/05/2014  13:54:00      111.327       43.532       59.899       88.366       90.090       58.317     7808.468     8116.170     3400.903        1.860        0.966      119.535       46.595        0.152      349.097       29.274      858.454
06/05/2014  13:55:00       85.777      -34.509       49.563      100.934      101.185       68.693    10187.576    10238.343     4718.754        1.807        1.257       92.458       71.494        0.598      349.210       29.469      858.435
06/05/2014  13:56:00       84.652     -132.631      -15.244       95.834      120.232       54.387     9184.178    14455.743     2957.928        2.579        1.330      157.344       63.833        0.165      349.242       29.525      858.422
06/05/2014  13:57:00       75.056     -142.468       -6.079      114.143      109.148       79.230    13028.711    11913.274     6277.443        2.859        1.561      161.030       81.739        0.258      349.187       29.430      858.408
06/05/2014  13:58:00       75.182      -90.760       20.897       79.078       76.603       46.989     6253.347     5868.081     2207.994        1.433        0.716      117.855       53.806        0.208      349.056       29.203      858.407
06/05/2014  13:59:00       57.073      -75.559       23.004       60.961       87.426       57.439     3716.240     7643.310     3299.294        1.207        0.733       94.691       45.777        0.234      349.259       29.556      858.397
06/05/2014  14:00:00       82.061      -29.880       84.506      101.405      186.765      114.063    10282.907    34881.001    13010.328        3.646        2.909       87.332      144.364        2.733      348.913       28.954      858.391
06/05/2014  14:01:00       73.029       10.135       34.330       72.414       60.748       45.097     5243.830     3690.275     2033.758        0.879        0.548       73.729       52.089        0.499      348.812       28.782      858.401
06/05/2014  14:02:00      140.930     -137.002       -6.578       70.825       93.297       46.908     5016.180     8704.260     2200.319        2.729        0.796      196.547       54.337        0.076      348.873       28.886      858.382
06/05/2014  14:03:00       99.293      -98.245       18.551       67.429      133.053       73.024     4546.660    17703.209     5332.439        2.371        1.379      139.683       82.054        0.345      349.172       29.401      858.368
06/05/2014  14:04:00       33.877     -168.916      -17.427      119.847      104.185       52.619    14363.184    10854.430     2768.758        2.898        1.399      172.280       51.426        0.089      349.142       29.352      858.377
06/05/2014  14:05:00       90.483     -168.335      -21.221      147.985       97.248       66.754    21899.469     9457.088     4456.081        3.639        1.791      191.112       39.534        0.043      349.011       29.124      858.397
06/05/2014  14:06:00       80.289      -93.535        2.538       55.906       82.622       46.109     3125.522     6826.375     2126.007        1.364        0.604      123.268       49.787        0.163      348.703       28.594      858.398
06/05/2014  14:07:00       37.533       29.094       74.798       58.779       76.715       45.423     3454.940     5885.261     2063.211        0.962        0.570       47.489       55.812        1.381      348.813       28.784      858.385
06/05/2014  14:08:00       21.483       -2.986       40.649       42.073       72.453       46.011     1770.166     5249.489     2117.033        0.563        0.457       21.689       54.737        6.369      349.112       29.302      858.375
06/05/2014  14:09:00       -8.757      -65.256        8.400       77.726       50.179       36.678     6041.314     2517.890     1345.287        0.715        0.495       65.841       38.016        0.333      349.426       29.846      858.358
06/05/2014  14:10:00      102.750     -174.286      -33.640       75.956       64.940       46.834     5769.382     4217.224     2193.452        2.712        0.609      202.319       34.117        0.028      348.490       28.222      858.361
06/05/2014  14:11:00       18.907      -64.376       34.937       56.373      104.126       61.632     3177.867    10842.151     3798.506        1.177        0.891       67.095       73.939        1.214      349.061       29.213      858.349
06/05/2014  14:12:00      -67.035     -158.201       -9.039       47.949       73.242       31.310     2299.123     5364.428      980.288        1.912        0.432      171.818       26.837        0.024      348.590       28.397      858.348
06/05/2014  14:13:00      -71.577       -7.568        9.335       76.393       39.087       28.698     5835.944     1527.808      823.589        0.673        0.409       71.976       39.784        0.306      349.106       29.291      858.334
06/05/2014  14:14:00      -37.343      -14.383       11.383       37.699       43.222       26.389     1421.200     1868.125      696.357        0.286        0.199       40.018       23.634        0.349      349.327       29.675      858.322
06/05/2014  14:15:00      -25.065      -19.186      -18.264       70.614       55.070       42.303     4986.301     3032.759     1789.571        0.557        0.490       31.565       39.597        1.574      348.965       29.046      858.310
06/05/2014  14:16:00      -14.977      -53.610       26.714       73.927       84.462       53.611     5465.135     7133.806     2874.181        0.964        0.774       55.663       43.923        0.623      349.113       29.302      858.280
06/05/2014  14:17:00      -31.679      -88.826        4.725       65.157       89.355       43.630     4245.404     7984.255     1903.608        1.152        0.707       94.306       40.785        0.187      349.115       29.307      858.273
06/05/2014  14:18:00       56.200      -60.481       23.627      100.444       54.826       40.154    10088.927     3005.877     1612.350        1.104        0.735       82.561       27.669        0.112      349.103       29.284      858.263
06/05/2014  14:19:00        1.616     -121.562        0.293       87.417      101.475       65.219     7641.760    10297.182     4253.561        1.848        1.110      121.573       44.575        0.134      349.058       29.206      858.236
06/05/2014  14:20:00      -92.434      -96.720      -12.027       70.350       77.545       50.175     4949.182     6013.169     2517.525        1.576        0.674      133.786       34.754        0.067      349.398       29.796      858.223
06/05/2014  14:21:00      -38.841      -55.575       -9.529       67.641       47.568       41.486     4575.254     2262.752     1721.100        0.662        0.428       67.803       37.768        0.310      349.398       29.797      858.232
06/05/2014  14:22:00      -26.522      -38.947        0.158       53.942       52.940       31.049     2909.728     2802.696      964.034        0.445        0.334       47.120       12.747        0.073      349.020       29.140      858.248
06/05/2014  14:23:00       30.437      -70.415       -0.841       34.104       54.181       37.036     1163.114     2935.604     1371.633        0.568        0.274       76.712       36.475        0.226      349.209       29.469      858.250
06/05/2014  14:24:00      -73.027      -14.086        8.257       57.221       33.144       30.504     3274.194     1098.506      930.473        0.545        0.265       74.373       35.158        0.223      349.260       29.559      858.231
06/05/2014  14:25:00      -37.804       54.581       31.277       57.941       43.539       47.783     3357.157     1895.668     2283.228        0.646        0.377       66.395       45.897        0.478      349.526       30.020      858.209
06/05/2014  14:26:00       65.159      -15.990       39.937       66.283       95.466       50.570     4393.401     9113.767     2557.306        1.108        0.803       67.093       55.705        0.689      348.846       28.839      858.191
06/05/2014  14:27:00       16.644      -62.274        2.348       29.669       66.583       26.045      880.223     4433.283      678.332        0.508        0.300       64.460       26.236        0.166      349.281       29.593      858.155
06/05/2014  14:28:00       34.380       59.128        3.222       62.040       57.037       37.159     3848.937     3253.181     1380.818        0.658        0.424       68.397       21.988        0.103      349.364       29.737      858.146
06/05/2014  14:29:00       16.758       38.113        8.216       59.757       43.718       36.118     3570.935     1911.294     1304.510        0.429        0.339       41.635       24.980        0.360      349.468       29.917      858.124
06/05/2014  14:30:00      101.342       29.703       13.532       87.272       89.595       41.377     7616.318     8027.285     1712.068        1.434        0.868      105.605       26.622        0.064      349.372       29.750      858.105
06/05/2014  14:31:00      274.837      163.999       78.584      170.544      121.052       91.765    29085.327    14653.663     8420.874        8.037        2.608      320.048       67.491        0.044      349.092       29.264      858.069
06/05/2014  14:32:00      423.779      240.296       79.427      151.163      129.853      109.969    22850.260    16861.773    12093.083       14.771        2.590      487.166       89.769        0.034      348.791       28.742      858.018
06/05/2014  14:33:00      312.466      270.697      193.996      160.401      128.871      133.250    25728.561    16607.622    17755.550       13.431        3.005      413.415      115.463        0.078      348.795       28.749      858.027
06/05/2014  14:34:00      198.228      158.701      101.637      116.495       91.088       97.047    13571.140     8297.042     9418.028        5.304        1.564      253.930       77.859        0.094      348.731       28.635      858.118
06/05/2014  14:35:00       67.586       72.973       93.958       84.105       83.268       57.760     7073.572     6933.616     3336.238        1.803        0.867       99.463       60.677        0.372      348.890       28.915      858.109
06/05/2014  14:36:00      197.971      116.187       56.902      122.692       87.012       75.315    15053.340     7571.034     5672.352        4.211        1.415      229.547       74.497        0.105      348.983       29.074      858.089
06/05/2014  14:37:00      201.128      133.424       10.609       62.959       60.328       57.954     3963.836     3639.519     3358.662        3.466        0.548      241.359       30.121        0.016      348.924       28.971      858.091
06/05/2014  14:38:00      196.866      122.469        3.796       88.807       46.846       49.813     7886.674     2194.579     2481.290        3.316        0.628      231.851       31.161        0.018      348.673       28.539      858.069
06/05/2014  14:39:00      134.849       98.495       54.008       97.597       64.794       61.945     9525.158     4198.275     3837.223        2.418        0.878      166.989       34.199        0.042      348.860       28.863      858.033
06/05/2014  14:40:00      114.872      142.488      111.349       93.563       74.682       73.520     8754.035     5577.343     5405.218        3.281        0.987      183.026       63.440        0.120      348.888       28.911      858.012
06/05/2014  14:41:00       71.732       91.493       75.027       83.541       41.212       49.116     6979.090     1698.439     2412.387        1.512        0.554      116.260       53.564        0.212      348.926       28.978      858.005
06/05/2014  14:42:00       39.193       83.457       89.453       58.352       49.911       41.419     3404.943     2491.104     1715.521        1.206        0.381       92.202       32.770        0.126      349.380       29.765      857.979
06/05/2014  14:43:00       35.090        3.539       12.550       39.526       49.358       30.227     1562.323     2436.260      913.653        0.316        0.246       35.268       18.783        0.284      349.376       29.760      857.962
06/05/2014  14:44:00       -0.896      119.291       11.230       55.614       66.999       47.654     3092.886     4488.851     2270.860        1.210        0.493      119.295       38.828        0.106      349.100       29.281      857.952
06/05/2014  14:45:00      -11.247      167.528      -21.202       42.177       43.149       27.751     1778.901     1861.859      770.096        1.653        0.221      167.905       13.527        0.006      348.744       28.661      857.932
06/05/2014  14:46:00      -92.573      166.914      -28.033       44.219       58.859       36.481     1955.291     3464.326     1330.899        2.198        0.338      190.867       32.633        0.029      348.851       28.847      857.914
06/05/2014  14:47:00     -142.957      109.714      -46.126       28.034       45.665       20.992      785.932     2085.320      440.682        1.896        0.166      180.205       22.545        0.016      348.586       28.392      857.891
06/05/2014  14:48:00     -160.548      101.914      -29.206       43.703       61.313       37.281     1909.913     3759.313     1389.869        2.204        0.353      190.163       31.751        0.028      348.798       28.754      857.864
06/05/2014  14:49:00     -161.388       58.371      -19.647       35.399       48.648       33.268     1253.065     2366.586     1106.778        1.728        0.236      171.619       23.410        0.019      348.921       28.969      857.831
06/05/2014  14:50:00     -139.490        6.603       -6.326       85.422       59.036       35.933     7296.884     3485.285     1291.186        1.580        0.604      139.646       37.841        0.073      349.319       29.658      857.794
06/05/2014  14:51:00      -51.469      -18.818        8.394       57.908       44.867       27.439     3353.354     2013.071      752.887        0.460        0.306       54.802       25.222        0.212      349.582       30.116      857.773
06/05/2014  14:52:00       -8.133       44.395       15.616       47.615       63.892       30.884     2267.182     4082.252      953.826        0.479        0.365       45.133       33.335        0.546      349.718       30.353      857.758
06/05/2014  14:53:00       64.975       -3.282        4.216       62.663      103.490       45.127     3926.685    10710.113     2036.433        1.046        0.834       65.058       28.025        0.186      349.410       29.817      857.725
06/05/2014  14:54:00       70.380       22.936       59.050       95.549       78.966       61.666     9129.571     6235.588     3802.705        1.406        0.958       74.023       61.777        0.696      349.466       29.914      857.710
06/05/2014  14:55:00       41.518       43.151       80.630       86.060      134.750       74.324     7406.406    18157.631     5524.095        2.058        1.554       59.881       79.319        1.755      349.491       29.957      857.705
06/05/2014  14:56:00       49.954      -64.269       29.527       59.307       83.287       48.975     3517.296     6936.749     2398.542        1.017        0.643       81.400       48.067        0.349      349.540       30.043      857.710
06/05/2014  14:57:00       88.904      -18.975        6.058       73.201       84.862       53.824     5358.444     7201.581     2897.048        1.188        0.773       90.906       40.628        0.200      349.401       29.800      857.701
06/05/2014  14:58:00      100.370       78.007       20.391       96.026       53.479       42.559     9220.941     2860.007     1811.276        1.523        0.695      127.119       25.124        0.039      348.985       29.079      857.696
06/05/2014  14:59:00      157.333       60.608       26.062      111.334       53.533       43.744    12395.350     2865.739     1913.549        2.314        0.859      168.604       16.479        0.010      349.067       29.221      857.683
06/05/2014  15:00:00       96.908       82.720       46.265       62.669       50.753       46.241     3927.437     2575.904     2138.264        1.351        0.432      127.412       31.029        0.059      349.074       29.233      857.675
06/05/2014  15:01:00       11.981       37.082        8.211       22.693       29.610       30.379      514.965      876.780      922.905        0.195        0.116       38.969       22.792        0.342      349.090       29.264      857.669
06/05/2014  15:02:00      -17.852       16.473      -12.956       19.335       23.171       20.387      373.839      536.877      415.635        0.104        0.066       24.291       13.823        0.324      348.974       29.061      857.659
06/05/2014  15:03:00       23.241        2.498      -14.508       34.023       16.189       11.993     1157.591      262.074      143.837        0.116        0.078       23.375       10.673        0.208      348.841       28.830      857.655
06/05/2014  15:04:00       37.642      -27.686        4.721       33.771       50.991       25.197     1140.493     2600.102      634.880        0.329        0.219       46.727       29.423        0.397      349.161       29.385      857.642
06/05/2014  15:05:00       16.690       15.325       50.928       35.584       65.649       43.844     1266.248     4309.783     1922.324        0.530        0.375       22.659       48.956        4.668      349.323       29.666      857.606
06/05/2014  15:06:00       42.650       -8.482       70.444       73.370      113.141       72.151     5383.210    12800.789     5205.728        1.512        1.169       43.485       80.334        3.413      349.162       29.388      857.580
06/05/2014  15:07:00       62.331     -102.331        3.366       43.043       64.636       33.284     1852.715     4177.821     1107.822        1.075        0.357      119.820       28.880        0.058      348.858       28.860      857.573
06/05/2014  15:08:00       88.077       28.091       80.008       80.285      139.740       72.490     6445.651    19527.271     5254.867        2.308        1.561       92.449       89.727        0.942      349.303       29.631      857.555
06/05/2014  15:09:00       50.808       -7.529       50.504       72.375       94.360       55.907     5238.213     8903.891     3125.545        1.122        0.863       51.363       56.855        1.225      349.344       29.703      857.557
06/05/2014  15:10:00       39.256      -86.277      -17.224       61.505       62.649       25.720     3782.842     3924.927      661.533        0.882        0.418       94.788       32.873        0.120      349.227       29.500      857.542
06/05/2014  15:11:00       11.658      -45.561       10.128       68.617       42.522       37.373     4708.238     1808.143     1396.725        0.511        0.396       47.029       30.557        0.422      349.678       30.282      857.528
06/05/2014  15:12:00       22.821      -70.053       23.206       50.763       84.377       39.787     2576.834     7119.477     1583.029        0.862        0.564       73.676       40.594        0.304      349.363       29.735      857.532
06/05/2014  15:13:00      140.023     -255.416      -26.176      143.955      118.035       74.041    20723.144    13932.227     5482.091        6.283        2.007      291.280       74.468        0.065      349.077       29.236      857.500
06/05/2014  15:14:00       81.269     -136.488       10.520       97.807      119.585       82.907     9566.121    14300.527     6873.593        2.804        1.537      158.851       79.960        0.253      349.638       30.211      857.496
06/05/2014  15:15:00      122.728     -122.985       14.801       98.168      153.111       63.239     9636.868    23442.979     3999.207        3.374        1.854      173.746       89.268        0.264      349.007       29.118      857.524
06/05/2014  15:16:00       61.695      -22.409       14.332       52.081      153.430       52.294     2712.454    23540.826     2734.613        1.675        1.449       65.639       68.995        1.105      349.026       29.151      857.492
06/05/2014  15:17:00       66.272     -188.899      -14.329      112.340       92.154       62.658    12620.241     8492.304     3926.043        3.265        1.252      200.187       61.646        0.095      349.173       29.404      857.468
06/05/2014  15:18:00       76.657     -159.845        1.021       97.971      123.005       68.752     9598.237    15130.351     4726.893        3.044        1.473      177.275       75.343        0.181      349.296       29.619      857.460
06/05/2014  15:19:00       93.599     -144.214       29.500       95.211      120.182       74.491     9065.225    14443.728     5548.951        2.974        1.453      171.925       81.049        0.222      349.264       29.562      857.465
06/05/2014  15:20:00      154.383     -174.680        7.802       85.529      107.925       52.861     7315.225    11647.877     2794.304        3.808        1.088      233.125       57.008        0.060      349.169       29.397      857.473
06/05/2014  15:21:00      114.530      -80.965       -0.274       68.611       59.165       36.491     4707.498     3500.522     1331.623        1.460        0.477      140.259       35.236        0.063      349.086       29.256      857.486
06/05/2014  15:22:00       70.403     -115.412       -9.029       44.149       43.029       31.778     1949.115     1851.533     1009.838        1.158        0.241      135.191       26.615        0.039      349.199       29.454      857.471
06/05/2014  15:23:00       84.109     -172.711      -14.459       60.702       58.475       34.534     3684.681     3419.307     1192.569        2.270        0.415      192.103       29.897        0.024      348.943       29.005      857.469
06/05/2014  15:24:00       22.053     -120.562      -24.992       55.241       77.452       23.663     3051.571     5998.830      559.931        1.263        0.481      122.562       21.538        0.031      348.767       28.701      857.447
06/05/2014  15:25:00      -15.370        4.059        1.101       42.812       14.782       32.249     1832.852      218.497     1039.973        0.167        0.155       15.897       34.575        4.730      349.202       29.456      857.407
06/05/2014  15:26:00       31.742       37.943       57.206       32.321       22.130       28.429     1044.626      489.749      808.202        0.403        0.117       49.469       14.379        0.084      349.103       29.286      857.400
06/05/2014  15:27:00       95.368       -5.804       37.199       61.782       90.750       51.385     3817.043     8235.637     2640.406        1.260        0.735       95.545       60.085        0.395      349.093       29.267      857.394
06/05/2014  15:28:00      238.883      138.025       50.306       81.014       73.325       65.005     6563.335     5376.566     4225.640        4.740        0.808      275.891       42.547        0.024      349.054       29.196      857.359
06/05/2014  15:29:00      152.762       40.971       87.637      125.029      112.058       84.989    15632.250    12556.987     7223.094        3.405        1.771      158.161       89.693        0.322      349.302       29.627      857.347
06/05/2014  15:30:00      162.556      -21.560       75.020      114.707      105.680       73.723    13157.796    11168.181     5435.143        3.113        1.488      163.979       77.841        0.225      349.274       29.580      857.345
06/05/2014  15:31:00       80.869       99.830       95.067       90.738       73.361       48.898     8233.410     5381.836     2391.028        2.077        0.800      128.475       43.523        0.115      349.380       29.764      857.354
06/05/2014  15:32:00       96.024      -82.572        9.469       99.120      136.505       54.238     9824.861    18633.685     2941.801        2.376        1.570      126.644       67.725        0.286      349.244       29.528      857.348
06/05/2014  15:33:00      142.742     -166.436      -11.917      102.286      122.593       83.139    10462.496    15028.934     6912.078        4.030        1.620      219.263       62.706        0.082      349.331       29.677      857.308
06/05/2014  15:34:00      129.413     -103.805       35.275       93.496      145.813       79.694     8741.444    21261.440     6351.135        3.255        1.818      165.902       90.477        0.297      349.276       29.583      857.303
06/05/2014  15:35:00       74.672     -127.042       15.298       50.100       88.202       53.234     2510.017     7779.638     2833.834        1.753        0.656      147.362       58.667        0.158      349.055       29.203      857.293
06/05/2014  15:36:00        1.548      -54.544       -1.981       40.941       40.021       27.871     1676.183     1601.654      776.810        0.352        0.203       54.566       24.187        0.196      349.082       29.251      857.258
06/05/2014  15:37:00       18.947       -3.254       11.325       30.985       69.988       36.502      960.098     4898.323     1332.382        0.384        0.360       19.225       35.060        3.326      349.678       30.283      857.217
06/05/2014  15:38:00       25.161       11.094       21.517       37.862       33.402       21.396     1433.533     1115.701      457.802        0.211        0.150       27.499       17.466        0.403      349.547       30.055      857.226
06/05/2014  15:39:00       31.013       12.544       53.395       54.917       58.562       33.348     3015.909     3429.518     1112.073        0.576        0.378       33.454       27.666        0.684      349.660       30.251      857.215
06/05/2014  15:40:00      162.605       52.871       89.755      103.351      134.407       86.551    10681.328    18065.346     7491.058        3.676        1.812      170.984       80.143        0.220      349.370       29.746      857.183
06/05/2014  15:41:00       62.944      136.309      177.296      110.307      158.718      105.530    12167.665    25191.480    11136.611        5.123        2.425      150.140      121.222        0.652      349.447       29.877      857.167
06/05/2014  15:42:00      149.472     -206.233        4.889      104.019      138.507       86.470    10819.902    19184.309     7477.109        5.118        1.874      254.704       97.477        0.146      349.448       29.883      857.155
06/05/2014  15:43:00       77.671      -63.161       41.278       93.301      161.434       82.695     8705.087    26060.907     6838.464        2.666        2.080      100.111      103.897        1.077      349.552       30.061      857.142
06/05/2014  15:44:00       45.446      -41.292       53.088       79.194      152.465       96.220     6271.648    23245.575     9258.355        2.267        1.939       61.403      114.633        3.485      349.445       29.877      857.132
06/05/2014  15:45:00       97.556       -4.864       68.226      101.725      103.185       62.410    10347.922    10647.196     3895.051        1.954        1.245       97.678       70.139        0.516      349.501       29.974      857.115
06/05/2014  15:46:00      125.981      142.418      125.968      112.557       84.903       71.347    12669.033     7208.525     5090.409        3.849        1.248      190.142       52.082        0.075      349.520       30.005      857.080
06/05/2014  15:47:00       57.296       99.849       90.725       56.650       70.810       56.304     3209.225     5014.003     3170.129        1.644        0.570      115.120       50.196        0.190      349.479       29.936      857.083
06/05/2014  15:48:00       86.221       48.641       59.279      101.704       88.045       60.805    10343.773     7751.868     3697.293        1.755        1.090       98.995       58.619        0.351      349.542       30.044      857.057
06/05/2014  15:49:00      114.411       34.021       57.864       90.749       75.728       53.591     8235.439     5734.676     2872.007        1.722        0.842      119.362       43.987        0.136      349.378       29.761      857.034
06/05/2014  15:50:00      165.215       91.710       54.653      101.850       65.187       54.511    10373.369     4249.304     2971.498        2.814        0.880      188.962       43.313        0.053      349.177       29.412      857.012
06/05/2014  15:51:00      102.053       53.060       54.186      117.595      122.275       63.862    13828.624    14951.254     4078.321        2.451        1.643      115.022       52.213        0.206      349.570       30.093      856.969
06/05/2014  15:52:00      196.734       95.942       49.365      119.482       92.405       67.715    14275.914     8538.756     4585.279        3.887        1.370      218.881       35.236        0.026      349.397       29.793      856.952
06/05/2014  15:53:00      238.713       89.253       51.458      118.740       88.735       70.325    14099.279     7873.954     4945.647        4.725        1.346      254.853       67.160        0.069      349.233       29.507      856.940
06/05/2014  15:54:00      231.797      153.747       61.977      124.700       82.291       84.511    15550.059     6771.873     7142.146        5.533        1.473      278.151       69.694        0.063      349.387       29.776      856.940
06/05/2014  15:55:00      211.757      132.037       58.754      110.183       85.488       61.300    12140.184     7308.160     3757.734        4.446        1.160      249.550       63.351        0.064      349.250       29.537      856.922
06/05/2014  15:56:00      119.076      118.705       96.710       92.041       80.463       96.909     8471.454     6474.269     9391.343        3.098        1.217      168.137       81.595        0.236      349.157       29.376      856.910
06/05/2014  15:57:00      149.546      147.924      137.368      102.714       85.161       92.483    10550.135     7252.356     8553.110        4.473        1.318      210.346       84.468        0.161      349.128       29.323      856.900
06/05/2014  15:58:00      172.600      168.520      116.882      105.836       88.246       92.428    11201.216     7787.290     8542.857        4.969        1.377      241.225       72.589        0.091      349.220       29.484      856.882
06/05/2014  15:59:00       78.799      203.250      195.265       76.529       89.262       65.174     5856.613     7967.642     4247.640        5.186        0.904      217.990       67.721        0.097      349.244       29.526      856.869
06/05/2014  16:00:00      121.221      105.267       94.342       81.664       64.635       63.564     6669.015     4177.738     4040.340        2.478        0.744      160.548       38.992        0.059      349.249       29.536      856.868
06/05/2014  16:01:00      140.192       53.246       26.484       96.421       79.172       53.768     9296.965     6268.267     2890.975        2.082        0.923      149.963       43.419        0.084      349.298       29.621      856.857
06/05/2014  16:02:00       74.401       14.173       -8.072       62.929       57.496       38.278     3960.017     3305.747     1465.179        0.726        0.437       75.739       20.601        0.074      349.307       29.639      856.855
06/05/2014  16:03:00       78.864      -13.364       19.591       46.296       86.176       59.276     2143.306     7426.376     3513.655        0.993        0.654       79.989       65.779        0.676      349.361       29.733      856.848
06/05/2014  16:04:00      116.813      143.651      112.523      123.536       90.894       90.352    15261.063     8261.768     8163.412        3.931        1.584      185.151       91.438        0.244      349.415       29.824      856.835
06/05/2014  16:05:00      196.916      140.416       84.153      100.873       77.822       88.752    10175.264     6056.203     7876.934        4.484        1.205      241.852       67.981        0.079      349.288       29.601      856.836
06/05/2014  16:06:00       56.589       58.796       94.136      117.494       78.344       62.263    13804.780     6137.834     3876.663        1.967        1.191       81.604       69.476        0.725      349.118       29.309      856.823
06/05/2014  16:07:00        0.404       45.552       82.559       37.922       67.849       42.482     1438.051     4603.423     1804.729        0.837        0.392       45.554       42.866        0.885      349.409       29.816      856.819
06/05/2014  16:08:00       60.448       38.881       35.300       44.835       54.961       63.664     2010.184     3020.708     4053.155        0.775        0.454       71.873       46.802        0.424      349.153       29.371      856.828
06/05/2014  16:09:00       79.072       19.987       31.055       73.023       51.473       30.177     5332.412     2649.450      910.625        0.825        0.445       81.559       22.413        0.076      349.322       29.663      856.808
06/05/2014  16:10:00       40.831      -92.894       10.865       56.378       94.796       38.878     3178.428     8986.334     1511.479        1.204        0.684      101.471       48.233        0.226      349.299       29.624      856.805
06/05/2014  16:11:00      111.943     -159.568      -19.603       56.874       43.934       40.296     3234.611     1930.166     1623.746        2.258        0.339      194.919       35.030        0.032      349.169       29.399      856.793
06/05/2014  16:12:00       42.608     -136.271       -7.176       59.696       53.500       33.294     3563.579     2862.285     1108.487        1.398        0.377      142.777       21.573        0.023      349.458       29.899      856.770
06/05/2014  16:13:00       51.153     -152.653      -17.914       53.961       50.807       32.255     2911.823     2581.374     1040.358        1.639        0.327      160.996       27.854        0.030      349.400       29.797      856.746
06/05/2014  16:14:00       50.449       73.631       15.968       53.098       87.907       39.064     2819.443     7727.629     1526.015        1.014        0.604       89.256       44.179        0.245      349.537       30.037      856.751
06/05/2014  16:15:00        0.962        7.596        2.420       36.759       46.425       31.955     1351.254     2155.306     1021.135        0.230        0.226        7.657       31.180       16.583      349.482       29.944      856.750
06/05/2014  16:16:00      -15.729       53.916       -7.099       26.976       27.112       15.285      727.703      735.087      233.637        0.245        0.085       56.164       11.487        0.042      349.486       29.949      856.743
06/05/2014  16:17:00       26.229      147.554      -23.748       46.514       79.799       37.482     2163.566     6367.938     1404.864        1.648        0.497      149.867       45.466        0.092      349.513       29.994      856.746
06/05/2014  16:18:00       24.763      106.291      -18.496       45.272       86.513       35.554     2049.586     7484.432     1264.114        1.152        0.540      109.138       40.378        0.137      349.551       30.061      856.739
06/05/2014  16:19:00      -21.500      191.562      -22.676       53.776       93.129       39.421     2891.890     8673.026     1554.033        2.539        0.656      192.765       48.600        0.064      349.412       29.818      856.747
06/05/2014  16:20:00        5.927      189.792      -26.881       47.178       85.180       36.771     2225.802     7255.660     1352.090        2.380        0.542      189.885       47.987        0.064      349.396       29.790      856.732
06/05/2014  16:21:00      -18.387      223.050      -38.812       75.763       77.538       36.199     5740.026     6012.162     1310.344        3.233        0.653      223.806       23.965        0.011      349.305       29.632      856.723
06/05/2014  16:22:00      -40.670      205.835      -31.476       43.585       51.323       28.402     1899.695     2634.019      806.696        2.518        0.267      209.814       15.604        0.006      349.320       29.658      856.706
06/05/2014  16:23:00      -98.083      262.904      -41.320       52.738       66.460       40.019     2781.276     4416.917     1601.545        4.462        0.440      280.604       34.014        0.015      349.274       29.578      856.712
06/05/2014  16:24:00      -61.941      156.063       -9.352       48.218       73.249       37.684     2324.939     5365.343     1420.076        1.869        0.456      167.906       32.018        0.036      349.366       29.740      856.693
06/05/2014  16:25:00     -134.506       74.434      -30.977       48.312       63.655       32.522     2334.061     4051.933     1057.659        1.602        0.372      153.728       14.809        0.009      349.456       29.897      856.669
06/05/2014  16:26:00     -102.543      123.611       -3.430       76.086       88.318       48.837     5789.009     7800.060     2385.069        2.089        0.799      160.607       42.687        0.071      349.627       30.191      856.660
06/05/2014  16:27:00      -90.983      165.232      -12.044       69.958       93.000       42.314     4894.168     8649.002     1790.498        2.553        0.767      188.626       46.579        0.061      349.611       30.164      856.655
06/05/2014  16:28:00     -188.680      205.421      -46.374       78.037       87.244       46.178     6089.736     7611.571     2132.393        4.789        0.792      278.923       44.490        0.025      349.507       29.981      856.642
06/05/2014  16:29:00      -73.649      199.352      -19.428       57.639       84.372       42.472     3322.272     7118.624     1803.856        2.889        0.612      212.522       38.562        0.033      349.514       29.993      856.618
06/05/2014  16:30:00      -40.257      294.721      -46.289       61.845       57.198       41.295     3824.820     3271.565     1705.282        4.971        0.440      297.458       27.896        0.009      349.251       29.538      856.611
06/05/2014  16:31:00      -91.399      181.672      -28.169       67.106       68.544       43.970     4503.224     4698.282     1933.340        2.664        0.557      203.368       42.862        0.044      349.348       29.708      856.601
06/05/2014  16:32:00     -139.390      218.765      -34.600       88.653       91.807       60.380     7859.439     8428.503     3645.706        4.421        0.997      259.399       56.250        0.047      349.353       29.715      856.593
06/05/2014  16:33:00     -210.424      103.931      -40.181       83.601       71.645       43.313     6989.208     5133.044     1875.992        3.534        0.700      234.691       33.609        0.021      349.478       29.930      856.579
06/05/2014  16:34:00     -321.330     -106.441      -15.554       92.079       78.172       48.067     8478.621     6110.886     2310.456        6.586        0.845      338.501       43.076        0.016      349.406       29.808      856.542
06/05/2014  16:35:00     -212.752     -114.455      -25.383      119.811       65.860       42.648    14354.687     4337.554     1818.891        3.976        1.026      241.585       15.824        0.004      349.345       29.703      856.536
06/05/2014  16:36:00       -2.792       -2.683       10.341       46.711       46.072       29.220     2181.899     2122.650      853.813        0.264        0.258        3.872       21.787       31.654      349.651       30.235      856.532
06/05/2014  16:37:00      -63.157      -27.848        7.705       44.440       45.333       25.741     1974.892     2055.073      662.614        0.476        0.235       69.024       30.781        0.199      349.762       30.428      856.533
06/05/2014  16:38:00     -104.881       94.674      -16.252       81.578       85.451       44.334     6655.035     7301.958     1965.520        1.807        0.796      141.291       57.532        0.166      349.586       30.122      856.534
06/05/2014  16:39:00     -134.800       83.380      -12.466       84.848      102.125       49.203     7199.165    10429.463     2420.916        2.266        1.002      158.503       55.382        0.122      349.416       29.826      856.525
06/05/2014  16:40:00      -75.439       92.770      -18.468       79.270       47.921       32.146     6283.659     2296.429     1033.361        1.212        0.481      119.571       23.168        0.038      349.722       30.358      856.516
06/05/2014  16:41:00      -54.159       25.613       12.435       51.974       48.037       35.321     2701.288     2307.568     1247.553        0.500        0.313       59.910       34.186        0.326      349.913       30.689      856.518
06/05/2014  16:42:00      -98.929       -3.241       13.225      104.006       73.264       44.510    10817.351     5367.592     1981.098        1.407        0.908       98.982       47.524        0.231      349.865       30.607      856.509
06/05/2014  16:43:00      -20.783      127.864       -9.753       64.754       82.562       37.732     4193.136     6816.433     1423.688        1.465        0.622      129.542       34.010        0.069      349.666       30.260      856.510
06/05/2014  16:44:00        0.176      102.184       -4.957       40.472       58.917       33.525     1638.021     3471.182     1123.909        0.835        0.312      102.184       26.874        0.069      349.420       29.836      856.491
06/05/2014  16:45:00      -56.970       36.172       13.953       68.735       90.484       52.847     4724.562     8187.340     2792.801        1.022        0.785       67.484       50.512        0.560      349.938       30.734      856.458
06/05/2014  16:46:00      -24.241      108.043       -8.263       67.311       80.097       42.591     4530.739     6415.600     1813.999        1.254        0.638      110.729       34.274        0.096      349.709       30.335      856.473
06/05/2014  16:47:00       24.432      100.121       -8.763       49.835       64.677       37.336     2483.566     4183.054     1394.002        0.938        0.403      103.059       35.364        0.118      349.356       29.724      856.456
06/05/2014  16:48:00        4.262      228.675      -29.046       68.625      123.914       53.873     4709.343    15354.654     2902.266        3.806        1.148      228.715       66.726        0.085      349.311       29.643      856.435
06/05/2014  16:49:00      -51.158      129.729      -11.236       60.531       70.500       42.755     3663.994     4970.246     1827.964        1.502        0.523      139.452       39.558        0.080      349.538       30.039      856.438
06/05/2014  16:50:00       48.764      254.678      -28.000       65.837      146.436       65.953     4334.564    21443.460     4349.759        4.907        1.506      259.305       79.146        0.093      349.256       29.547      856.434
06/05/2014  16:51:00      -23.590      235.798      -33.323       57.700       86.311       39.975     3329.331     7449.629     1597.970        3.482        0.619      236.975       44.644        0.035      349.313       29.645      856.458
06/05/2014  16:52:00     -203.611      178.916      -37.035      108.600      119.306       53.835    11793.901    14233.933     2898.175        5.188        1.446      271.051       46.875        0.030      349.460       29.900      856.456
06/05/2014  16:53:00     -175.236       69.582      -36.276       74.225       95.896       44.565     5509.298     9195.961     1986.044        2.677        0.835      188.545       39.515        0.044      349.710       30.335      856.444
06/05/2014  16:54:00     -172.134       59.588      -19.900       84.589       98.588       42.002     7155.339     9719.623     1764.177        2.610        0.932      182.156       25.946        0.020      349.751       30.407      856.455
06/05/2014  16:55:00     -103.549      202.340      -23.965       81.665       91.556       46.846     6669.193     8382.485     2194.548        3.474        0.862      227.297       46.048        0.041      349.430       29.848      856.476
06/05/2014  16:56:00     -166.652      107.307      -37.792       69.071       76.023       34.356     4770.766     5779.477     1180.313        2.622        0.587      198.211       30.849        0.024      349.526       30.015      856.485
06/05/2014  16:57:00      -59.847      124.279       -9.282       89.299      102.483       39.694     7974.273    10502.775     1575.598        1.958        1.003      137.938       44.907        0.106      349.477       29.933      856.486
06/05/2014  16:58:00      116.432       68.916        1.692      101.885       48.923       34.395    10380.487     2393.428     1183.011        1.613        0.698      135.298       33.182        0.060      349.428       29.847      856.455
06/05/2014  16:59:00      105.298      162.292      -28.442      101.776      108.169       50.705    10358.443    11700.565     2571.048        3.143        1.232      193.459       49.145        0.065      349.214       29.474      856.446
06/05/2014  17:00:00       14.251      212.085      -33.040       28.866       43.155       21.297      833.253     1862.396      453.579        2.471        0.157      212.563       19.162        0.008      349.185       29.423      856.448
06/05/2014  17:01:00       29.553       84.220      -23.818       27.162       70.460       19.494      737.788     4964.557      380.033        0.731        0.304       89.255       26.825        0.090      349.232       29.508      856.443
06/05/2014  17:02:00       16.053       16.308       15.155       22.788       22.735       18.748      519.314      516.885      351.491        0.107        0.069       22.883       17.858        0.609      349.507       29.985      856.429
06/05/2014  17:03:00       -9.203       21.183       -1.183       13.435       23.884       10.889      180.500      570.439      118.578        0.070        0.043       23.096        7.875        0.116      349.555       30.068      856.410
06/05/2014  17:04:00       21.597       33.873        5.152       15.409       27.406       11.598      237.430      751.108      134.514        0.138        0.056       40.172       12.006        0.089      349.398       29.797      856.399
06/05/2014  17:05:00       17.283       39.490        1.986       16.978       29.442       16.738      288.267      866.805      280.170        0.165        0.072       43.106       17.596        0.167      349.398       29.796      856.395
06/05/2014  17:06:00       26.980       23.996      -13.671       31.133       24.054       15.898      969.234      578.609      252.755        0.165        0.090       36.107        8.541        0.056      349.327       29.675      856.380
06/05/2014  17:07:00        2.372       -6.627       25.033       21.743       23.156       29.024      472.751      536.216      842.373        0.126        0.093        7.039       19.666        7.806      349.645       30.225      856.368
06/05/2014  17:08:00       20.906        9.404       28.835       34.985       27.024       17.897     1223.967      730.316      320.308        0.182        0.114       22.923       15.915        0.482      349.204       29.460      856.361
06/05/2014  17:09:00       63.021       27.987       11.844       45.492       48.746       32.052     2069.544     2376.181     1027.340        0.518        0.274       68.956       14.288        0.043      349.429       29.849      856.355
06/05/2014  17:10:00       34.617       15.182       16.103       40.407       43.473       25.944     1632.733     1889.868      673.100        0.294        0.210       37.800       16.020        0.180      349.403       29.803      856.359
06/05/2014  17:11:00       30.207        1.984       31.471       52.613       69.867       33.717     2768.141     4881.412     1136.820        0.534        0.439       30.272       25.887        0.731      349.400       29.800      856.345
06/05/2014  17:12:00       21.190      123.966      -15.180       38.663       66.746       32.333     1494.856     4455.060     1045.410        1.152        0.350      125.763       33.700        0.072      349.333       29.683      856.354
06/05/2014  17:13:00       25.582       29.959       -3.017       31.371       54.856       27.002      984.149     3009.158      729.125        0.314        0.236       39.396       26.999        0.470      349.314       29.650      856.357
06/05/2014  17:14:00       42.650       92.384        2.009       69.095       74.032       41.103     4774.118     5480.681     1689.455        1.115        0.597      101.754       35.519        0.122      349.354       29.719      856.349
06/05/2014  17:15:00       98.528       99.353        0.119       80.929       65.750       50.284     6549.542     4323.125     2528.440        1.649        0.670      139.924       42.248        0.091      349.357       29.723      856.344
06/05/2014  17:16:00      151.894       97.133       14.773       37.261       38.882       24.436     1388.371     1511.824      597.124        1.811        0.175      180.296       13.274        0.005      349.211       29.469      856.346
06/05/2014  17:17:00      220.700       80.540       25.941      103.143       60.758       55.683    10638.412     3691.499     3100.635        3.665        0.872      234.936       37.690        0.026      349.362       29.730      856.336
06/05/2014  17:18:00       79.304       70.451       45.303       78.191       80.626       67.042     6113.893     6500.596     4494.667        1.520        0.855      106.078       29.612        0.078      349.338       29.692      856.334
06/05/2014  17:19:00      126.292       64.626        7.070       60.576       40.835       32.505     3669.499     1667.473     1056.564        1.328        0.320      141.867       18.864        0.018      349.261       29.557      856.331
06/05/2014  17:20:00       81.804       24.778       12.590       88.063       46.350       37.535     7755.134     2148.309     1408.903        0.939        0.566       85.474       25.031        0.086      349.316       29.654      856.322
06/05/2014  17:21:00      130.241       42.652       89.565      132.506       95.766       86.073    17557.756     9171.189     7408.509        3.046        1.707      137.047       78.399        0.327      349.278       29.588      856.295
06/05/2014  17:22:00       91.000       20.518       55.750       73.789       61.333       52.286     5444.844     3761.684     2733.775        1.187        0.597       93.284       48.564        0.271      349.274       29.581      856.312
06/05/2014  17:23:00       49.644      -58.140       10.073       31.748       47.314       26.097     1007.953     2238.605      681.034        0.494        0.196       76.451       27.839        0.133      349.399       29.799      856.297
06/05/2014  17:24:00       65.187     -127.991      -10.731       34.810       49.922       30.391     1211.732     2492.249      923.634        1.269        0.231      143.635       30.109        0.044      349.453       29.893      856.281
06/05/2014  17:25:00       77.499     -112.529       10.299       54.444       83.030       51.059     2964.197     6894.025     2606.984        1.562        0.623      136.634       46.857        0.118      349.516       30.002      856.266
06/05/2014  17:26:00       52.452        4.256       59.794       62.067       64.399       49.263     3852.257     4147.206     2426.880        0.838        0.521       52.624       45.359        0.743      349.325       29.671      856.273
06/05/2014  17:27:00       68.550      -35.715       25.858       52.902       80.614       36.766     2798.628     6498.563     1351.741        0.864        0.532       77.296       47.045        0.370      349.328       29.675      856.272
06/05/2014  17:28:00       59.778     -140.698       -1.316       46.503       52.805       24.116     2162.548     2788.419      581.589        1.445        0.277      152.870       22.971        0.023      349.204       29.460      856.272
06/05/2014  17:29:00       61.162      -48.439       28.628       53.821       78.664       39.332     2896.718     6187.957     1547.006        0.877        0.532       78.020       41.972        0.289      349.405       29.810      856.260
06/05/2014  17:30:00       46.834     -107.525       -2.766       53.127       62.759       30.713     2822.458     3938.730      943.263        1.073        0.385      117.282       31.341        0.071      349.461       29.904      856.258
06/05/2014  17:31:00       67.314      -67.627       -6.130       37.181       46.990       32.989     1382.444     2208.063     1088.243        0.691        0.234       95.418       18.360        0.037      349.411       29.819      856.263
06/05/2014  17:32:00       19.484      -35.824       19.647       52.865       65.159       27.535     2794.706     4245.651      758.175        0.492        0.390       40.780       28.634        0.493      349.662       30.254      856.260
06/05/2014  17:33:00       18.244      -11.226       24.282       30.867       45.314       26.013      952.787     2053.322      676.672        0.236        0.184       21.421       27.343        1.629      349.470       29.922      856.245
06/05/2014  17:34:00      -47.137        7.253        8.682       44.723       27.843       22.287     2000.158      775.223      496.698        0.281        0.164       47.692       15.827        0.110      349.732       30.375      856.230
06/05/2014  17:35:00       25.317       35.604       16.505       22.646       25.680       21.997      512.835      659.444      483.871        0.192        0.083       43.687       10.611        0.059      349.440       29.869      856.229
06/05/2014  17:36:00      -12.914       14.896       -1.055       27.289       16.792       13.862      744.669      281.971      192.142        0.080        0.061       19.715        8.347        0.179      349.410       29.818      856.226
06/05/2014  17:37:00        4.253        0.651        4.264       33.643       16.736       15.874     1131.849      280.096      251.968        0.085        0.083        4.303        8.103        3.546      349.394       29.790      856.236
06/05/2014  17:38:00      -26.684      -32.857       -7.679       19.508       18.552       15.314      380.571      344.187      234.529        0.140        0.048       42.327        8.646        0.042      349.441       29.872      856.241
06/05/2014  17:39:00      -28.638        5.688        5.953       32.588       22.152       14.344     1061.949      490.729      205.762        0.132        0.088       29.197       19.172        0.431      349.358       29.728      856.231
06/05/2014  17:40:00       -1.288       27.789       27.568       21.300       20.782       13.495      453.682      431.882      182.119        0.130        0.053       27.819        7.725        0.077      349.202       29.457      856.228
06/05/2014  17:41:00       -7.673        5.441       16.847       14.069       11.732       15.270      197.940      137.648      233.179        0.047        0.028        9.407        6.353        0.456      349.412       29.821      856.230
06/05/2014  17:42:00      -18.299       -4.022      -10.644       13.737        8.359        8.737      188.705       69.866       76.329        0.040        0.017       18.736        5.571        0.088      349.418       29.832      856.236
06/05/2014  17:43:00      -47.345        2.524      -11.110       48.835       16.378        8.631     2384.810      268.247       74.493        0.255        0.136       47.412       12.278        0.067      349.371       29.751      856.240
06/05/2014  17:44:00      -94.390      -55.275        6.789       51.082       47.736       30.090     2609.366     2278.697      905.395        0.890        0.290      109.383       30.327        0.077      349.458       29.901      856.235
06/05/2014  17:45:00     -111.214      -25.282        8.357       55.422       68.006       33.116     3071.604     4624.789     1096.686        1.093        0.440      114.052       27.535        0.058      349.357       29.725      856.235
06/05/2014  17:46:00      -63.333       29.589       12.961       44.010       25.716       30.505     1936.864      661.328      930.562        0.429        0.176       69.904       26.199        0.140      349.295       29.618      856.228
06/05/2014  17:47:00      -65.164       -3.296        1.643       56.745       37.192       28.855     3220.031     1383.259      832.626        0.485        0.272       65.247       16.455        0.064      349.306       29.637      856.217
06/05/2014  17:48:00     -118.188      -43.019       -2.845       42.128       56.542       33.096     1774.729     3197.052     1095.366        1.095        0.303      125.774       27.206        0.047      349.349       29.713      856.229
06/05/2014  17:49:00     -106.788       41.641      -16.489       42.530       47.699       30.455     1808.797     2275.167      927.488        0.921        0.251      114.619       26.445        0.053      349.363       29.737      856.221
06/05/2014  17:50:00       -8.747       26.929       18.761       24.101       28.746       22.789      580.855      826.315      519.319        0.154        0.096       28.314       19.089        0.455      349.409       29.815      856.213
06/05/2014  17:51:00     -128.471      126.258      -30.307       69.000       78.929       34.781     4760.981     6229.815     1209.698        2.278        0.610      180.128       35.806        0.040      349.312       29.646      856.211
06/05/2014  17:52:00      -49.232       98.877      -17.663       36.135       33.217       29.375     1305.764     1103.388      862.898        0.789        0.164      110.456       15.180        0.019      349.232       29.510      856.217
06/05/2014  17:53:00       -1.282       32.091      -19.058       29.509       33.973       17.799      870.765     1154.178      316.814        0.187        0.117       32.117       16.770        0.273      349.212       29.471      856.198
06/05/2014  17:54:00        5.166       -8.452       14.719       25.661       32.511       25.410      658.473     1056.951      645.676        0.134        0.118        9.906       20.418        4.248      349.145       29.357      856.171
06/05/2014  17:55:00       -3.658      -31.273       10.341       38.896       37.738       25.642     1512.932     1424.186      657.511        0.235        0.180       31.486       18.988        0.364      349.279       29.590      856.162
06/05/2014  17:56:00      -60.022      -64.976       10.189       42.206       25.523       25.126     1781.331      651.414      631.312        0.550        0.153       88.456       25.892        0.086      349.304       29.635      856.148
06/05/2014  17:57:00      -33.198      -70.496        1.733       38.671       51.110       24.385     1495.468     2612.204      594.636        0.539        0.235       77.922       23.884        0.094      349.352       29.715      856.137
06/05/2014  17:58:00     -121.016      -62.915       -5.842       55.990       52.813       32.379     3134.854     2789.252     1048.381        1.280        0.349      136.393       34.860        0.065      349.270       29.572      856.130
06/05/2014  17:59:00      -54.983     -130.955       -3.984       68.953       52.420       36.698     4754.511     2747.879     1346.719        1.452        0.442      142.029       37.733        0.071      349.306       29.635      856.112
06/05/2014  18:00:00      -91.538      -51.911       -5.669       46.402       59.494       18.940     2153.175     3539.507      358.711        0.858        0.303      105.233       22.054        0.044      349.281       29.592      856.102
06/05/2014  18:01:00      -61.053       -8.114        7.639       38.754       26.961       16.223     1501.845      726.895      263.196        0.317        0.125       61.590       20.083        0.106      349.326       29.673      856.114
06/05/2014  18:02:00       17.598       14.029       14.172       24.270       11.784       15.290      589.039      138.865      233.772        0.083        0.048       22.505       11.558        0.264      349.071       29.230      856.112
06/05/2014  18:03:00       24.262       15.715       21.190       14.423       14.378       13.041      208.031      206.741      170.069        0.093        0.029       28.907        9.779        0.114      349.197       29.448      856.117
06/05/2014  18:04:00      -29.780        3.969        8.430       18.436       17.003       11.404      339.878      289.111      130.041        0.087        0.038       30.043       10.865        0.131      349.312       29.650      856.127
06/05/2014  18:05:00      -54.916      -41.368       -1.074       38.782       19.568       12.221     1504.081      382.899      149.345        0.338        0.102       68.754       14.680        0.046      349.401       29.803      856.127
06/05/2014  18:06:00      -22.244      -13.914        8.301       39.803       26.123       19.394     1584.256      682.433      376.114        0.170        0.132       26.237       18.974        0.523      349.309       29.643      856.141
06/05/2014  18:07:00      -67.857        2.786        0.426       50.845       40.470       17.685     2585.192     1637.848      312.753        0.457        0.227       67.915       19.394        0.082      349.304       29.634      856.149
06/05/2014  18:08:00      -97.780      -12.242       -9.190       35.125       16.105       20.544     1233.746      259.359      422.058        0.585        0.096       98.543       18.308        0.035      349.292       29.613      856.147
06/05/2014  18:09:00      -24.156       -1.335        0.582       32.205       26.893       16.321     1037.145      723.224      266.376        0.131        0.101       24.192       12.583        0.271      349.219       29.487      856.159
06/05/2014  18:10:00      -35.302      -78.944        0.599       27.330       25.204       15.295      746.946      635.247      233.938        0.455        0.081       86.478       11.146        0.017      349.297       29.621      856.156
06/05/2014  18:11:00       -4.279      -34.364       11.115       23.000       26.323       17.336      529.016      692.889      300.529        0.142        0.076       34.629       19.249        0.309      349.310       29.643      856.153
06/05/2014  18:12:00       -8.177       -6.222       16.025       26.211       26.916       21.996      687.033      724.482      483.827        0.113        0.095       10.275       17.842        3.015      349.346       29.708      856.160
06/05/2014  18:13:00     -158.941      -93.403       -4.471       59.925       44.806       28.192     3591.047     2007.570      794.792        2.020        0.320      184.354       24.345        0.017      349.301       29.626      856.162
06/05/2014  18:14:00      -88.106      -48.500        9.071       61.051       34.211       27.463     3727.236     1170.381      754.193        0.792        0.283      100.573       30.063        0.089      349.280       29.591      856.162
06/05/2014  18:15:00     -107.164      -78.350       -4.983       51.892       56.839       30.850     2692.738     3230.648      951.731        1.226        0.344      132.751       27.997        0.044      349.301       29.628      856.168
06/05/2014  18:16:00     -193.944     -110.192      -16.658       65.319       96.881       42.010     4266.616     9385.911     1764.881        3.272        0.771      223.062       37.506        0.028      349.302       29.627      856.157
06/05/2014  18:17:00     -223.875      -63.080      -13.016       64.924       52.256       28.933     4215.126     2730.709      837.127        3.102        0.389      232.592       24.831        0.011      349.296       29.615      856.174
06/05/2014  18:18:00     -152.678      -30.936       -1.329       79.164       35.972       27.296     6266.974     1293.990      745.054        1.629        0.415      155.780       32.428        0.043      349.299       29.624      856.189
06/05/2014  18:19:00     -132.968        0.464       -8.039       84.974       46.374       34.658     7220.545     2150.589     1201.208        1.416        0.529      132.969       39.466        0.088      349.263       29.561      856.195
06/05/2014  18:20:00     -113.208      -19.860        0.185       69.764       56.452       29.577     4867.051     3186.819      874.790        1.107        0.446      114.937       35.354        0.095      349.333       29.681      856.218
06/05/2014  18:21:00     -101.299       48.897        2.817       51.201       41.046       23.631     2621.512     1684.744      558.442        0.876        0.243      112.482       20.892        0.034      349.252       29.543      856.233
06/05/2014  18:22:00      -36.327       98.173        7.151       41.216       83.272       29.700     1698.786     6934.144      882.080        1.026        0.476      104.679       40.437        0.149      349.168       29.396      856.253
06/05/2014  18:23:00      -87.324       67.219      -12.862       33.156       44.638       28.982     1099.299     1992.569      839.981        0.812        0.197      110.199       20.886        0.036      349.194       29.443      856.274
06/05/2014  18:24:00       26.036      128.840      -22.753       35.030       55.784       23.850     1227.092     3111.835      568.822        1.135        0.245      131.445       30.576        0.054      349.176       29.412      856.277
06/05/2014  18:25:00       27.761       42.936        3.702       33.105       20.766       15.203     1095.911      431.247      231.145        0.219        0.088       51.129       13.745        0.072      349.145       29.356      856.277
06/05/2014  18:26:00       30.048       18.833       -1.967       28.819       12.523        9.340      830.554      156.833       87.229        0.117        0.054       35.462        5.687        0.026      348.993       29.096      856.283
06/05/2014  18:27:00       22.530       11.955        7.074       23.346       15.609       12.819      545.016      243.630      164.320        0.083        0.048       25.505        7.945        0.097      349.015       29.133      856.280
06/05/2014  18:28:00      -40.945       69.440       -5.374       27.460       55.356       20.793      754.026     3064.331      432.369        0.539        0.213       80.613       12.923        0.026      349.026       29.153      856.288
06/05/2014  18:29:00       16.766      228.123      -27.651       95.270       91.214       52.028     9076.406     8320.027     2706.886        3.659        1.005      228.739       49.453        0.047      349.146       29.355      856.284
06/05/2014  18:30:00      158.467      133.978       -1.689      131.384       69.629       78.309    17261.651     4848.252     6132.372        3.565        1.412      207.513       73.881        0.127      349.137       29.341      856.288
06/05/2014  18:31:00       -9.978      142.710      -15.570       68.540       71.714       37.700     4697.753     5142.877     1421.290        1.598        0.563      143.058       38.149        0.071      349.151       29.367      856.300
06/05/2014  18:32:00       17.645       98.390      -19.841       45.896       46.311       30.323     2106.424     2144.712      919.501        0.778        0.259       99.960       16.077        0.026      349.185       29.429      856.292
06/05/2014  18:33:00       -7.203       80.328       -1.033       57.686       58.882       27.060     3327.648     3467.100      732.239        0.701        0.376       80.650       28.276        0.123      349.158       29.381      856.288
06/05/2014  18:34:00      -15.372      167.968      -26.538       47.921       96.309       30.450     2296.469     9275.449      927.183        2.082        0.625      168.670       41.651        0.061      349.173       29.404      856.288
06/05/2014  18:35:00      -32.760      165.049      -12.749       46.191       86.676       38.022     2133.653     7512.723     1445.679        1.978        0.555      168.269       46.848        0.078      349.155       29.374      856.285
06/05/2014  18:36:00      -36.420      188.063      -21.519       40.113       47.402       27.245     1609.058     2246.954      742.314        2.088        0.230      191.557       26.824        0.020      349.195       29.442      856.298
06/05/2014  18:37:00        9.849      150.810       -3.609       75.867      108.970       42.512     5755.869    11874.384     1807.306        2.114        0.972      151.132       55.693        0.136      349.126       29.322      856.301
06/05/2014  18:38:00      -15.779      156.310      -24.406       43.596       88.029       27.088     1900.652     7749.166      733.736        1.783        0.519      157.104       34.853        0.049      349.106       29.287      856.304
06/05/2014  18:39:00       -1.494       99.123       -9.131       44.780       64.572       32.185     2005.211     4169.580     1035.886        0.856        0.361       99.135       33.175        0.112      349.117       29.309      856.317
06/05/2014  18:40:00       63.383       73.022        5.143       61.883       44.778       31.344     3829.491     2005.057      982.453        0.810        0.341       96.694       20.675        0.046      349.100       29.280      856.326
06/05/2014  18:41:00       54.767       87.881       -4.655       40.300       56.701       36.002     1624.120     3214.952     1296.119        0.844        0.307      103.550       34.354        0.110      349.090       29.263      856.334
06/05/2014  18:42:00       36.194      112.226      -16.494       21.615       29.431       18.881      467.201      866.193      356.480        0.793        0.084      117.918       12.106        0.011      349.120       29.315      856.350
06/05/2014  18:43:00       14.907       51.325       -3.036       24.263       22.467       17.746      588.717      504.788      314.921        0.214        0.070       53.446       15.376        0.083      349.131       29.335      856.351
06/05/2014  18:44:00        8.228       21.071       -1.118       19.488       17.339       15.611      379.770      300.628      243.714        0.072        0.046       22.620       12.980        0.329      349.175       29.410      856.367
06/05/2014  18:45:00      -23.608       10.830       -5.079       17.020       10.948        8.678      289.687      119.848       75.315        0.059        0.024       25.974        5.957        0.053      349.189       29.436      856.381
06/05/2014  18:46:00      -79.470       13.556       -7.252       19.559       17.556       11.578      382.574      308.221      134.044        0.369        0.041       80.618        4.121        0.003      349.156       29.377      856.387
06/05/2014  18:47:00      -43.461        6.879      -10.817       47.282       35.419        9.006     2235.587     1254.529       81.100        0.281        0.179       44.002       10.120        0.053      349.212       29.474      856.404
06/05/2014  18:48:00     -113.309      -43.730       -3.215       37.809       35.982       19.881     1429.486     1294.687      395.248        0.894        0.156      121.455       20.294        0.028      349.208       29.469      856.413
06/05/2014  18:49:00      -88.737      -37.844      -11.269       36.491       25.425       19.969     1331.574      646.430      398.763        0.590        0.119       96.469       15.530        0.026      349.198       29.450      856.414
06/05/2014  18:50:00      -44.013      -17.588        8.677       30.120       25.305       18.401      907.190      640.358      338.594        0.210        0.094       47.397       14.332        0.091      349.195       29.444      856.430
06/05/2014  18:51:00      -93.261      -49.208        1.407       39.707       33.248       20.294     1576.609     1105.405      411.848        0.711        0.155      105.446       18.466        0.031      349.158       29.384      856.446
06/05/2014  18:52:00      -36.243      -25.059        9.761       37.416       33.473       25.145     1399.993     1120.412      632.282        0.259        0.158       44.062       24.934        0.320      349.050       29.194      856.452
06/05/2014  18:53:00      -93.807      -64.877        5.183       63.455       44.066       26.825     4026.486     1941.790      719.599        0.986        0.334      114.056       29.234        0.066      349.100       29.281      856.475
06/05/2014  18:54:00     -133.873      -99.607        2.022       78.006       60.026       39.083     6084.931     3603.115     1527.491        1.953        0.561      166.864       40.716        0.060      349.170       29.400      856.492
06/05/2014  18:55:00     -144.426     -101.194       -7.647       58.729       45.724       25.186     3449.063     2090.688      634.317        1.866        0.309      176.350        5.840        0.001      349.170       29.399      856.487
06/05/2014  18:56:00     -151.170     -114.947        2.936       99.939       61.646       46.341     9987.894     3800.242     2147.487        2.600        0.797      189.908       54.466        0.082      349.079       29.241      856.491
06/05/2014  18:57:00     -198.439     -126.884        2.013      118.864       88.393       48.400    14128.670     7813.361     2342.525        3.988        1.214      235.537       58.785        0.062      349.021       29.140      856.496
06/05/2014  18:58:00     -278.154     -172.435      -23.146       80.072       84.819       42.351     6411.561     7194.339     1793.571        6.152        0.770      327.267       41.728        0.016      349.001       29.105      856.473
06/05/2014  18:59:00     -250.861     -153.114      -13.442      110.196       79.097       44.837    12143.261     6256.385     2010.383        5.348        1.021      293.897       55.350        0.035      348.991       29.090      856.469
06/05/2014  19:00:00      -58.669      -99.800       16.953      102.014       96.939       43.442    10406.788     9397.126     1887.218        1.769        1.085      115.767       47.586        0.169      348.967       29.048      856.482
06/05/2014  19:01:00      -51.952     -125.111       -0.246       62.254       89.940       46.715     3875.583     8089.269     2182.285        1.625        0.707      135.469       40.539        0.090      348.975       29.063      856.475
06/05/2014  19:02:00      -56.750      -99.384        3.898       46.315       56.097       35.739     2145.100     3146.840     1277.275        0.984        0.328      114.446       20.977        0.034      348.972       29.057      856.448
06/05/2014  19:03:00       11.720       -1.045       31.696       29.964       30.222       16.386      897.848      913.352      268.504        0.161        0.104       11.766        6.701        0.324      348.992       29.092      856.445
06/05/2014  19:04:00      -74.346      -81.897        1.252       56.279       91.568       29.787     3167.280     8384.724      887.294        1.234        0.622      110.610       20.090        0.033      349.127       29.324      856.481
06/05/2014  19:05:00     -189.947     -204.533        1.889      114.262      106.217       58.426    13055.896    11282.041     3413.550        5.283        1.388      279.130       41.703        0.022      349.047       29.183      856.462
06/05/2014  19:06:00     -238.825     -153.747       -4.534      121.467       72.604       56.212    14754.250     5271.295     3159.802        5.194        1.159      284.034       51.093        0.032      349.068       29.218      856.460
06/05/2014  19:07:00     -287.452     -137.006      -13.374      140.140       97.562       62.549    19639.247     9518.374     3912.426        6.732        1.654      318.433       56.789        0.032      349.028       29.152      856.468
06/05/2014  19:08:00     -338.896     -149.023       -9.946      230.172      169.323       79.051    52979.342    28670.446     6249.081       11.251        4.395      370.214       92.812        0.063      349.000       29.105      856.475
06/05/2014  19:09:00     -138.274      -52.918        8.389      132.044      116.848       77.555    17435.574    13653.429     6014.753        2.954        1.855      148.054       77.412        0.273      349.061       29.211      856.500
06/05/2014  19:10:00     -188.199      -92.319        5.250      130.201       94.958       57.792    16952.178     9017.044     3339.882        3.663        1.465      209.623       64.637        0.095      349.089       29.259      856.526
06/05/2014  19:11:00     -228.969      -60.723        9.243      139.648       92.883       61.784    19501.582     8627.181     3817.288        4.407        1.597      236.884       71.678        0.092      349.058       29.203      856.547
06/05/2014  19:12:00     -318.137      -81.081      -21.405       93.118      116.030       59.809     8670.909    13463.056     3577.068        6.697        1.286      328.307       47.337        0.021      349.003       29.108      856.558
06/05/2014  19:13:00     -214.103        7.997       -4.482      109.570      115.299       52.850    12005.595    13293.960     2793.140        3.700        1.405      214.253       41.185        0.037      349.087       29.256      856.548
06/05/2014  19:14:00     -154.158      -91.591        4.038      120.065       86.184       48.090    14415.621     7427.602     2312.674        2.816        1.208      179.315       49.585        0.076      349.094       29.267      856.552
06/05/2014  19:15:00     -218.649     -123.037       -6.958      110.388       91.695       53.479    12185.475     8408.048     2860.001        4.322        1.173      250.889       50.902        0.041      349.070       29.224      856.568
06/05/2014  19:16:00     -326.614     -228.721      -13.301      157.976      130.089       74.170    24956.478    16923.216     5501.136       10.326        2.369      398.736       66.563        0.028      348.990       29.085      856.556
06/05/2014  19:17:00     -502.816     -339.113      -39.822      196.102      195.293       92.119    38455.973    38139.248     8485.862       22.723        4.254      606.482       92.781        0.023      348.882       28.900      856.559
06/05/2014  19:18:00     -343.008     -240.107       -0.381      181.557      197.227       97.747    32962.947    38898.667     9554.424       12.835        4.071      418.696      112.001        0.072      348.911       28.949      856.561
06/05/2014  19:19:00     -253.398     -187.603        2.508      148.839      122.293       72.796    22152.933    14955.597     5299.265        7.090        2.120      315.286       71.055        0.051      348.932       28.987      856.578
06/05/2014  19:20:00     -285.035     -163.114       -0.815      172.486      130.857       80.701    29751.565    17123.642     6512.619        8.061        2.669      328.407       88.143        0.072      348.906       28.940      856.572
06/05/2014  19:21:00     -256.721     -152.574        0.614      154.746      115.128       64.145    23946.290    13254.412     4114.553        6.524        2.066      298.638       71.600        0.057      348.943       29.005      856.595
06/05/2014  19:22:00     -213.641     -141.782        2.132      137.961      106.765       58.919    19033.250    11398.663     3471.438        4.982        1.695      256.407       80.496        0.099      348.971       29.053      856.600
06/05/2014  19:23:00     -183.823     -143.408        5.981      122.743      104.772       58.815    15065.962    10977.189     3459.253        4.194        1.475      233.146       65.115        0.078      348.969       29.051      856.621
06/05/2014  19:24:00     -193.150     -167.807       13.613      147.793      135.342       69.602    21842.796    18317.538     4844.465        5.532        2.250      255.863       83.950        0.108      348.953       29.023      856.623
06/05/2014  19:25:00     -285.943     -200.477       10.828      144.916      137.264       65.454    21000.596    18841.483     4284.281        8.309        2.206      349.219       64.048        0.034      348.909       28.946      856.620
06/05/2014  19:26:00     -271.413     -204.661       -0.510      150.590      139.826       74.426    22677.494    19551.362     5539.254        8.165        2.388      339.928       73.351        0.047      348.842       28.829      856.611
06/05/2014  19:27:00     -206.183     -111.883        0.755      147.900      100.424       57.507    21874.404    10084.893     3307.112        4.514        1.763      234.583       61.203        0.068      348.871       28.882      856.609
06/05/2014  19:28:00     -182.200     -206.061        3.619       97.784       96.058       56.662     9561.763     9227.138     3210.606        4.883        1.100      275.060       58.002        0.044      348.894       28.919      856.610
06/05/2014  19:29:00     -168.081     -102.960       -4.376       78.564      106.028       46.215     6172.288    11241.949     2135.794        2.921        0.978      197.109       38.046        0.037      348.895       28.922      856.620
06/05/2014  19:30:00     -202.824     -135.002        2.689      132.770       90.335       55.731    17627.922     8160.383     3105.909        4.413        1.445      243.645       56.131        0.053      348.889       28.911      856.623
06/05/2014  19:31:00     -197.806     -162.434       -1.871      141.613      126.962       58.914    20054.297    16119.303     3470.848        5.257        1.982      255.953       61.479        0.058      348.888       28.909      856.627
06/05/2014  19:32:00     -230.674     -169.545       -6.940      108.576       88.322       50.412    11788.723     7800.706     2541.372        5.206        1.107      286.280       44.695        0.024      348.890       28.913      856.641
06/05/2014  19:33:00     -314.053     -225.452       -7.484      173.631      152.653       68.884    30147.888    23303.010     4744.981       10.384        2.910      386.598       78.728        0.041      348.814       28.780      856.642
06/05/2014  19:34:00     -271.006     -165.449        0.700      104.889      106.043       54.404    11001.783    11245.185     2959.829        6.301        1.260      317.518       51.716        0.027      348.850       28.843      856.661
06/05/2014  19:35:00     -400.294     -132.169      -17.579      166.057      125.019       81.568    27574.929    15629.824     6653.279       11.393        2.493      421.549       73.716        0.031      348.749       28.669      856.664
06/05/2014  19:36:00     -296.623     -172.583       -9.038      176.463      141.142       82.562    31139.210    19921.126     6816.548        8.785        2.894      343.176       98.890        0.083      348.608       28.425      856.683
06/05/2014  19:37:00     -323.952     -176.917       -6.513      167.313      139.683       77.850    27993.530    19511.387     6060.609        9.492        2.678      369.113       77.751        0.044      348.555       28.333      856.686
06/05/2014  19:38:00     -344.651     -259.408      -14.270      175.300      146.113       86.485    30730.078    21348.931     7479.632       12.291        2.978      431.366       96.462        0.050      348.532       28.292      856.680
06/05/2014  19:39:00     -230.586     -180.899        4.997      122.586      110.552       58.216    15027.360    12221.805     3389.109        5.827        1.532      293.077       66.017        0.051      348.548       28.321      856.693
06/05/2014  19:40:00     -323.973     -231.058       -9.700      156.556      121.636       64.624    24509.841    14795.355     4176.238       10.095        2.174      397.927       63.027        0.025      348.553       28.329      856.686
06/05/2014  19:41:00     -310.368     -219.709        0.226      151.991      150.732       72.984    23101.211    22720.238     5326.593        9.786        2.557      380.264       79.717        0.044      348.532       28.292      856.695
06/05/2014  19:42:00     -304.586     -167.683      -11.598      114.360       93.141       57.191    13078.301     8675.187     3270.846        7.302        1.251      347.692       58.033        0.028      348.545       28.316      856.704
06/05/2014  19:43:00     -175.603      -69.894        5.981      112.897       80.579       42.573    12745.695     6492.993     1812.483        2.840        1.053      189.002       43.540        0.053      348.583       28.382      856.716
06/05/2014  19:44:00     -222.939     -131.578       -4.220      127.701      131.398       58.272    16307.563    17265.310     3395.597        5.199        1.848      258.871       69.128        0.071      348.517       28.270      856.715
06/05/2014  19:45:00     -165.698      -25.790       10.341      119.273      117.049       49.196    14225.959    13700.540     2420.290        2.928        1.517      167.693       62.463        0.139      348.522       28.277      856.704
06/05/2014  19:46:00     -301.133     -110.771        4.341      114.664      112.480       54.836    13147.867    12651.715     3007.040        6.588        1.440      320.860       57.861        0.033      348.497       28.234      856.713
06/05/2014  19:47:00     -312.855     -132.284       -8.529      144.703      115.264       70.792    20939.077    13285.879     5011.448        7.734        1.962      339.672       81.848        0.058      348.459       28.169      856.714
06/05/2014  19:48:00     -191.083     -106.628        2.167      122.796       95.734       62.711    15078.752     9165.061     3932.639        3.803        1.409      218.820       70.992        0.105      348.467       28.182      856.715
06/05/2014  19:49:00     -206.140     -152.374      -11.360       83.943       82.171       52.579     7046.432     6752.117     2764.545        4.120        0.828      256.343       49.218        0.037      348.451       28.155      856.716
06/05/2014  19:50:00     -145.390      -91.444        5.205      106.379       72.864       50.385    11316.429     5309.176     2538.668        2.434        0.958      171.756       40.413        0.055      348.482       28.209      856.724
06/05/2014  19:51:00     -235.541     -130.719       -9.713      115.837       88.370       54.326    13418.177     7809.169     2951.278        4.842        1.209      269.382       49.434        0.034      348.464       28.178      856.737
06/05/2014  19:52:00     -127.733     -104.896        1.700       97.638       78.224       53.695     9533.217     6119.020     2883.132        2.292        0.927      165.285       63.443        0.147      348.467       28.183      856.745
06/05/2014  19:53:00     -221.677     -140.051      -13.117       80.658      105.987       49.175     6505.710    11233.249     2418.206        4.454        1.008      262.212       43.068        0.027      348.448       28.148      856.761
06/05/2014  19:54:00     -198.780     -145.578       10.465      138.048       90.574       62.237    19057.215     8203.710     3873.426        4.597        1.557      246.387       64.393        0.068      348.383       28.034      856.756
06/05/2014  19:55:00     -218.957      -90.328        2.214      115.947      100.726       49.883    13443.762    10145.811     2488.363        4.109        1.304      236.857       53.093        0.050      348.392       28.051      856.761
06/05/2014  19:56:00     -143.282      -86.836       -1.321      121.341      119.539       61.023    14723.561    14289.601     3723.825        3.040        1.637      167.541       57.515        0.118      348.375       28.022      856.785
06/05/2014  19:57:00     -351.533     -241.592      -10.671      192.510      122.274       75.458    37060.273    14950.999     5693.845       11.987        2.885      426.547       81.740        0.037      348.344       27.967      856.789
06/05/2014  19:58:00     -381.849     -227.708      -18.955      160.242      144.701       75.490    25677.582    20938.357     5698.803       12.516        2.616      444.589       79.865        0.032      348.301       27.892      856.786
06/05/2014  19:59:00     -313.211     -164.597       -0.018      183.223      131.189       85.260    33570.686    17210.585     7269.347        9.161        2.903      353.827       86.270        0.059      348.305       27.900      856.805
06/05/2014  20:00:00     -376.132     -209.311       -5.371      202.864      121.356       79.528    41153.951    14727.159     6324.644       12.375        3.110      430.450       97.513        0.051      348.282       27.858      856.815
06/05/2014  20:01:00     -360.897     -167.531       -5.772      171.722      135.976       80.633    29488.329    18489.408     6501.650       10.640        2.724      397.886       87.156        0.048      348.274       27.847      856.810
06/05/2014  20:02:00     -284.850     -109.953        3.425      200.681      129.524       84.160    40272.800    16776.382     7082.832        7.867        3.207      305.335       93.011        0.093      348.275       27.849      856.839
06/05/2014  20:03:00     -224.624     -130.383        7.393      170.939      113.677       64.607    29219.998    12922.529     4174.043        5.690        2.316      259.722       80.382        0.096      348.293       27.879      856.840
06/05/2014  20:04:00     -271.910     -191.553        4.501      170.570      131.088       84.258    29094.275    17184.132     7099.388        8.200        2.669      332.608       90.199        0.074      348.268       27.836      856.853
06/05/2014  20:05:00     -342.255     -204.419       12.385      274.389      168.811       87.631    75289.523    28497.164     7679.241       13.525        5.573      398.655      118.977        0.089      348.246       27.799      856.853
06/05/2014  20:06:00     -277.780     -166.277       -0.371      150.962      153.676       78.900    22789.629    23616.314     6225.272        7.871        2.632      323.743       72.331        0.050      348.233       27.777      856.875
06/05/2014  20:07:00     -361.381     -123.165      -17.020      227.300      130.957       76.075    51665.206    17149.702     5787.442       11.031        3.730      381.793       96.769        0.064      348.202       27.724      856.897
06/05/2014  20:08:00     -440.370     -190.893      -30.472      159.634      113.698       75.420    25483.093    12927.295     5688.219       13.769        2.205      479.965       74.234        0.024      348.188       27.699      856.915
06/05/2014  20:09:00     -288.708      -35.856       -8.631      188.245       84.258       59.897    35436.118     7099.402     3587.596        6.541        2.306      290.926       82.693        0.081      348.196       27.713      856.929
06/05/2014  20:10:00     -199.077      -80.855        9.843      102.291      103.487       60.687    10463.405    10709.507     3682.870        3.556        1.243      214.870       48.670        0.051      348.189       27.700      856.968
06/05/2014  20:11:00     -106.080      -48.888       16.346       88.607      109.142       55.711     7851.134    11911.987     3103.744        1.838        1.143      116.803       43.236        0.137      348.167       27.664      856.999
06/05/2014  20:12:00     -170.765     -105.448       -4.067      107.329       70.250       57.004    11519.522     4935.042     3249.441        3.000        0.985      200.698       56.230        0.078      348.163       27.656      857.020
06/05/2014  20:13:00     -350.832     -151.888      -10.734      113.619      104.238       53.031    12909.330    10865.457     2812.248        8.642        1.329      382.299       53.321        0.019      348.175       27.676      857.031
06/05/2014  20:14:00     -188.800      -79.277       14.724      114.743       86.178       51.906    13165.909     7426.703     2694.225        3.271        1.164      204.769       62.719        0.094      348.158       27.647      857.072
06/05/2014  20:15:00     -200.923      -70.461        5.605      117.856       73.500       45.427    13890.131     5402.253     2063.653        3.336        1.068      212.920       37.981        0.032      348.150       27.632      857.091
06/05/2014  20:16:00     -244.544      -52.206        2.387       91.427       89.991       49.483     8358.902     8098.326     2448.605        4.072        0.945      250.054       46.646        0.035      348.114       27.571      857.124
06/05/2014  20:17:00     -246.874      -84.908       -9.302      112.338       74.178       52.463    12619.740     5502.437     2752.321        4.455        1.044      261.067       54.026        0.043      348.133       27.604      857.154
06/05/2014  20:18:00     -302.496     -101.176      -17.907      118.417       77.498       49.295    14022.537     6005.912     2429.952        6.226        1.123      318.968       43.307        0.018      348.087       27.523      857.173
06/05/2014  20:19:00     -241.454      -94.799       -5.406      126.952       75.882       44.717    16116.794     5758.004     1999.640        4.559        1.194      259.397       47.358        0.033      348.064       27.484      857.191
06/05/2014  20:20:00     -187.442      -26.849       -7.885       54.486       67.085       33.967     2968.753     4500.370     1153.788        2.227        0.431      189.355       30.794        0.026      348.068       27.493      857.207
06/05/2014  20:21:00     -131.597      -48.714      -11.883       93.996       83.813       38.940     8835.283     7024.587     1516.359        1.860        0.869      140.325       31.503        0.050      348.027       27.421      857.217
06/05/2014  20:22:00     -290.925      -63.940       -2.844       98.133       95.251       46.696     9630.107     9072.728     2180.534        5.480        1.044      297.869       45.488        0.023      347.983       27.345      857.240
06/05/2014  20:23:00     -260.276      -53.679       -3.807      100.132       69.769       50.537    10026.514     4867.744     2553.956        4.404        0.872      265.753       51.341        0.037      347.881       27.167      857.266
06/05/2014  20:24:00     -265.000     -131.214      -14.383       98.288       81.432       47.866     9660.484     6631.202     2291.160        5.311        0.929      295.706       44.579        0.023      347.830       27.078      857.289
06/05/2014  20:25:00     -164.156      -49.983       -2.207       93.907       75.521       58.007     8818.515     5703.455     3364.847        2.366        0.894      171.597       63.585        0.137      347.703       26.862      857.320
06/05/2014  20:26:00     -203.957       13.392       -6.070      142.168       71.862       50.819    20211.652     5164.118     2582.549        3.488        1.398      204.396       57.288        0.079      347.518       26.543      857.338
06/05/2014  20:27:00     -192.079      -15.183      -10.162       99.482       81.098       41.855     9896.658     6576.909     1751.877        2.772        0.911      192.678       39.923        0.043      346.956       25.574      857.375
06/05/2014  20:28:00     -278.425      -69.443       -0.541      140.273       93.439       52.151    19676.490     8730.776     2719.771        5.673        1.556      286.954       58.308        0.041      346.993       25.636      857.405
06/05/2014  20:29:00     -387.910      -87.119       -1.916      121.129       89.556       54.196    14672.155     8020.329     2937.228        9.184        1.281      397.572       60.668        0.023      346.886       25.454      857.455
06/05/2014  20:30:00     -306.606     -196.777       -1.689      160.043      110.370       71.296    25613.873    12181.524     5083.105        8.780        2.144      364.319       77.838        0.046      346.635       25.021      857.521
06/05/2014  20:31:00     -330.026     -187.735       -2.224      144.047       95.859       71.350    20749.461     9189.027     5090.833        8.959        1.751      379.686       64.456        0.029      346.755       25.227      857.558
06/05/2014  20:32:00     -242.248      -40.650      -13.403       83.417       70.679       43.247     6958.444     4995.541     1870.277        3.717        0.691      245.635       42.864        0.030      346.231       24.324      857.604
06/05/2014  20:33:00     -307.117      -18.516      -29.489       66.838       56.086       36.005     4467.381     3145.684     1296.352        5.222        0.445      307.675       24.507        0.006      345.763       23.522      857.642
06/05/2014  20:34:00     -209.075      -57.189      -17.309       74.474       61.062       36.306     5546.407     3728.597     1318.100        2.894        0.530      216.755       33.046        0.023      345.562       23.177      857.664
06/05/2014  20:35:00     -150.348        2.404      -18.684       57.174       59.373       26.638     3268.854     3525.144      709.582        1.523        0.375      150.367       30.624        0.041      345.571       23.196      857.668
06/05/2014  20:36:00     -205.182      237.680      -28.208      127.456      231.762       79.864    16244.968    53713.799     6378.327        8.785        3.817      313.993       84.859        0.073      346.298       24.442      857.668
06/05/2014  20:37:00     -359.442      395.948      -88.071      150.511      173.279       87.073    22653.644    30025.475     7581.786       17.698        3.013      534.765       91.137        0.029      347.139       25.890      857.636
06/05/2014  20:38:00     -189.233      118.999      -32.235       91.968      103.214       51.686     8458.022    10653.155     2671.471        3.639        1.089      223.540       53.381        0.057      346.947       25.557      857.593
06/05/2014  20:39:00     -198.240      147.549      -36.093       98.932       69.455       42.074     9787.561     4823.949     1770.209        3.937        0.819      247.123       45.654        0.034      346.960       25.580      857.551
06/05/2014  20:40:00     -219.611       64.283      -45.088       85.956      155.129       46.235     7388.422    24065.104     2137.659        4.399        1.680      228.826       58.545        0.065      346.960       25.580      857.504
06/05/2014  20:41:00     -380.533     -145.047      -20.442      128.242      104.429       61.428    16446.123    10905.348     3773.349        9.869        1.556      407.240       61.833        0.023      346.110       24.117      857.559
06/05/2014  20:42:00     -281.445        3.964      -17.441      120.993      101.963       54.862    14639.256    10396.543     3009.870        5.378        1.402      281.473       60.466        0.046      346.015       23.954      857.529
06/05/2014  20:43:00     -285.754       59.694      -25.255      130.812      107.700       58.701    17111.808    11599.359     3445.834        5.900        1.608      291.922       54.050        0.034      345.668       23.361      857.538
06/05/2014  20:44:00     -158.485      -11.588        1.335      127.188      113.989       66.110    16176.712    12993.405     4370.563        2.939        1.677      158.908       58.133        0.134      345.762       23.521      857.508
06/05/2014  20:45:00     -208.199      -43.883      -16.575       78.246       98.922       64.246     6122.445     9785.591     4127.584        3.279        1.002      212.774       45.712        0.046      345.996       23.924      857.490
06/05/2014  20:46:00     -281.916      -47.142      -20.985       82.184      100.132       49.073     6754.229    10026.402     2408.196        5.066        0.959      285.830       49.517        0.030      346.082       24.069      857.426
06/05/2014  20:47:00     -274.106      -88.277      -12.012      104.756       77.209       44.932    10973.836     5961.287     2018.884        5.101        0.948      287.970       43.667        0.023      346.184       24.245      857.376
06/05/2014  20:48:00     -286.239     -124.987      -16.052      165.988      111.341       53.274    27551.939    12396.809     2838.152        7.029        2.139      312.337       37.288        0.014      347.018       25.681      857.325
06/05/2014  20:49:00     -269.699      -85.706        0.220       98.224       76.455       54.500     9647.856     5845.442     2970.230        4.927        0.923      282.990       53.075        0.035      346.863       25.413      857.290
06/05/2014  20:50:00     -235.285      -38.835      -11.481      153.762       87.507       51.239    23642.599     7657.401     2625.459        4.546        1.696      238.468       61.035        0.066      346.765       25.244      857.264
06/05/2014  20:51:00     -140.736      -51.980      -11.047       60.593       54.073       30.063     3671.494     2923.884      903.787        1.506        0.375      150.029       26.359        0.031      346.433       24.676      857.239
06/05/2014  20:52:00     -193.331      -49.226      -18.928       85.619       63.274       44.169     7330.691     4003.635     1950.912        2.672        0.664      199.500       43.978        0.049      346.473       24.742      857.205
06/05/2014  20:53:00     -162.038      -23.217        1.258      109.499       50.977       42.301    11989.994     2598.618     1789.345        2.158        0.819      163.693       48.758        0.089      346.442       24.691      857.211
06/05/2014  20:54:00     -195.392      -33.040        0.150       96.364       56.334       49.038     9285.935     3173.491     2404.740        2.706        0.743      198.166       54.404        0.075      346.336       24.509      857.223
06/05/2014  20:55:00     -250.524        7.043      -15.395       75.337      105.557       46.075     5675.657    11142.320     2122.919        4.099        0.947      250.623       41.317        0.027      346.536       24.850      857.228
06/05/2014  20:56:00     -293.999      -61.011      -10.931      130.282       86.823       56.616    16973.514     7538.194     3205.353        5.899        1.386      300.263       68.583        0.052      346.384       24.589      857.242
06/05/2014  20:57:00     -337.294      -70.618       -5.962      146.825       75.564       50.550    21557.438     5709.870     2555.265        7.430        1.491      344.607       63.642        0.034      346.408       24.632      857.242
06/05/2014  20:58:00     -314.442      -69.552      -10.262       98.231       84.626       42.504     9649.238     7161.496     1806.605        6.121        0.931      322.043       44.016        0.019      346.390       24.599      857.240
06/05/2014  20:59:00     -257.105      -76.726      -18.166       86.338       80.462       44.091     7454.310     6474.096     1943.988        4.409        0.794      268.309       30.373        0.013      346.431       24.671      857.237
06/05/2014  21:00:00     -233.240      -31.621      -14.515       61.734       55.977       38.211     3811.065     3133.408     1460.083        3.201        0.420      235.373       36.384        0.024      346.388       24.597      857.225
06/05/2014  21:01:00     -184.760      -36.991       -8.253       56.636       53.742       33.938     3207.612     2888.201     1151.777        2.141        0.362      188.426       30.666        0.026      346.237       24.337      857.208
06/05/2014  21:02:00     -263.305      -53.460       -9.805       66.000       78.538       38.150     4356.045     6168.165     1455.422        4.213        0.599      268.678       37.191        0.019      346.229       24.321      857.222
06/05/2014  21:03:00     -250.599      -61.915      -13.385       87.914       77.448       55.281     7728.926     5998.238     3055.949        4.179        0.839      258.134       55.966        0.047      346.305       24.454      857.226
06/05/2014  21:04:00     -203.772      -41.174       -2.094      102.220       73.158       46.881    10448.895     5352.099     2197.790        3.061        0.900      207.890       54.140        0.068      346.218       24.304      857.246
06/05/2014  21:05:00     -248.536      -17.308      -22.373       83.525       64.309       42.092     6976.381     4135.630     1771.710        3.772        0.644      249.138       43.509        0.030      346.278       24.406      857.257
06/05/2014  21:06:00     -346.166     -102.367       -6.068      131.118       97.147       60.891    17191.994     9437.594     3707.673        8.034        1.517      360.985       60.587        0.028      346.487       24.767      857.236
06/05/2014  21:07:00     -281.571      -25.698      -12.562      129.766      107.454       73.665    16839.214    11546.260     5426.557        5.695        1.691      282.741       75.778        0.072      346.633       25.017      857.244
06/05/2014  21:08:00     -406.727      -98.443      -19.993      137.223       84.983       64.601    18830.071     7222.107     4173.297       10.287        1.511      418.471       73.724        0.031      346.922       25.515      857.262
06/05/2014  21:09:00     -299.459      -84.131       -9.692      104.711      101.119       51.802    10964.305    10225.045     2683.447        6.036        1.194      311.053       44.224        0.020      346.744       25.208      857.265
06/05/2014  21:10:00     -239.672      -69.367        4.269      118.478       79.788       53.691    14037.104     6366.066     2882.733        4.277        1.164      249.509       58.381        0.055      346.576       24.919      857.257
06/05/2014  21:11:00     -273.106      -79.192      -11.855       97.256       66.834       44.261     9458.683     4466.794     1959.008        4.844        0.794      284.356       42.579        0.022      346.640       25.027      857.260
06/05/2014  21:12:00     -258.954      -35.782       -8.774       94.728       87.225       51.904     8973.404     7608.256     2694.015        4.384        0.964      261.415       44.855        0.029      346.657       25.058      857.252
06/05/2014  21:13:00     -291.068      -46.471      -13.769      106.535       92.435       52.485    11349.799     8544.179     2754.639        5.485        1.132      294.754       48.195        0.027      346.585       24.935      857.254
06/05/2014  21:14:00     -264.012      -84.025      -11.552      107.298       98.746       54.843    11512.868     9750.725     3007.776        5.058        1.214      277.061       54.267        0.038      346.564       24.898      857.266
06/05/2014  21:15:00     -329.245      -89.469       -6.382      114.677       73.368       46.053    13150.739     5382.858     2120.920        6.855        1.033      341.185       49.797        0.021      346.645       25.038      857.253
06/05/2014  21:16:00     -249.000      -33.486       -9.513      101.529       74.706       52.378    10308.065     5581.040     2743.470        4.092        0.932      251.242       52.110        0.043      346.571       24.909      857.252
06/05/2014  21:17:00     -233.784      -52.945      -13.043       96.164       80.364       43.462     9247.558     6458.311     1888.905        3.761        0.880      239.705       36.430        0.023      346.553       24.880      857.231
06/05/2014  21:18:00     -131.594      -80.077       11.415      106.812       81.093       46.878    11408.736     6576.001     2197.505        2.202        1.009      154.043       48.026        0.097      346.531       24.843      857.227
06/05/2014  21:19:00     -197.456      -80.065       -2.496       99.047       94.342       42.388     9810.339     8900.332     1796.751        3.295        1.025      213.071       36.204        0.029      346.675       25.090      857.215
06/05/2014  21:20:00     -217.440      -95.036       -9.122      109.837       77.902       46.839    12064.211     6068.696     2193.867        3.836        1.016      237.302       49.880        0.044      346.703       25.137      857.213
06/05/2014  21:21:00     -232.857     -110.521       -6.860      119.171       82.060       52.098    14201.703     6733.856     2714.160        4.506        1.182      257.754       50.794        0.039      346.757       25.228      857.212
06/05/2014  21:22:00     -296.168     -146.264       -2.960      125.619      104.289       56.325    15780.252    10876.117     3172.496        6.947        1.491      330.316       49.579        0.023      346.871       25.426      857.200
06/05/2014  21:23:00     -264.452     -104.702        0.100      115.893       78.125       53.804    13431.278     6103.501     2894.915        5.166        1.121      284.425       60.118        0.045      346.805       25.313      857.203
06/05/2014  21:24:00     -205.305     -134.857       -2.841      115.776       99.399       55.097    13404.145     9880.151     3035.669        4.333        1.316      245.635       53.898        0.048      346.793       25.292      857.201
06/05/2014  21:25:00     -218.934      -89.664       -7.509      116.751       86.569       49.835    13630.878     7494.263     2483.542        3.981        1.180      236.584       53.209        0.051      346.697       25.128      857.212
06/05/2014  21:26:00     -226.138      -92.543      -11.367      102.198       77.385       50.375    10444.335     5988.370     2537.624        3.940        0.949      244.342       46.914        0.037      346.731       25.185      857.215
06/05/2014  21:27:00     -214.267      -71.387       -4.281      125.105       83.879       52.856    15651.162     7035.707     2793.735        3.825        1.274      225.846       62.764        0.077      346.664       25.072      857.245
06/05/2014  21:28:00     -182.848      -72.513      -12.859      104.065       77.139       53.265    10829.470     5950.488     2837.177        2.923        0.981      196.701       52.130        0.070      346.600       24.962      857.259
06/05/2014  21:29:00     -242.555      -96.855      -11.270       97.483       89.548       48.867     9503.021     8018.930     2387.946        4.412        0.995      261.178       53.660        0.042      346.564       24.900      857.275
06/05/2014  21:30:00     -245.046     -100.968      -19.711      104.435       82.251       40.138    10906.582     6765.235     1611.046        4.495        0.964      265.033       30.991        0.014      346.507       24.800      857.278
06/05/2014  21:31:00     -242.128      -87.391      -13.024       83.798       72.387       43.632     7022.147     5239.858     1903.714        4.030        0.708      257.417       41.332        0.026      346.496       24.781      857.297
06/05/2014  21:32:00     -175.887      -24.188        7.655      101.794       60.275       46.513    10361.947     3633.105     2163.444        2.387        0.808      177.542       52.812        0.088      346.503       24.796      857.297
06/05/2014  21:33:00     -167.332      -74.817       -7.064       64.322       58.715       28.739     4137.341     3447.450      825.943        2.103        0.421      183.297       30.467        0.028      346.541       24.862      857.284
06/05/2014  21:34:00     -197.075      -89.707       -3.312       74.183       68.070       34.886     5503.079     4633.510     1217.022        2.912        0.568      216.531       31.905        0.022      346.637       25.025      857.274
06/05/2014  21:35:00     -165.792      -69.976        1.903       83.225       58.558       33.019     6926.356     3429.002     1090.231        2.191        0.572      179.955       39.124        0.047      346.627       25.009      857.284
06/05/2014  21:36:00     -169.012      -65.983        5.633       77.808       57.158       35.477     6054.053     3266.990     1258.585        2.176        0.529      181.436       36.706        0.041      346.614       24.985      857.289
06/05/2014  21:37:00     -174.912      -43.346        8.806      142.403       87.758       55.380    20278.538     7701.398     3066.986        3.179        1.552      180.203       65.188        0.131      346.574       24.916      857.316
06/05/2014  21:38:00     -246.529      -55.652       -2.104       97.832       76.682       41.275     9571.168     5880.145     1703.593        4.051        0.858      252.732       51.033        0.041      346.622       24.999      857.354
06/05/2014  21:39:00     -232.698      -84.928       -4.216       88.178       80.160       42.016     7775.423     6425.616     1765.307        3.867        0.798      247.712       42.147        0.029      346.711       25.152      857.382
06/05/2014  21:40:00     -189.715      -72.376        0.262       87.708       56.497       44.233     7692.710     3191.904     1956.580        2.703        0.642      203.052       38.586        0.036      346.629       25.011      857.413
06/05/2014  21:41:00     -185.039     -111.737       -2.671       68.990       66.895       42.094     4759.560     4474.909     1771.918        2.887        0.550      216.159       33.796        0.024      346.684       25.104      857.422
06/05/2014  21:42:00     -185.510     -112.087        0.666       80.536       55.811       35.431     6485.973     3114.868     1255.357        2.891        0.543      216.743       36.920        0.029      346.683       25.103      857.423
06/05/2014  21:43:00     -182.757     -157.890        0.695      107.015       83.109       56.780    11452.296     6907.182     3223.969        3.995        1.079      241.515       53.045        0.048      346.727       25.179      857.433
06/05/2014  21:44:00     -310.035     -145.658       -2.154      104.814      102.680       64.135    10985.870    10543.244     4113.347        7.149        1.282      342.547       62.423        0.033      346.742       25.206      857.443
06/05/2014  21:45:00     -203.630      -96.945      -12.178       96.183       88.738       50.985     9251.117     7874.368     2599.514        3.536        0.986      225.530       50.533        0.050      346.661       25.064      857.457
06/05/2014  21:46:00     -183.091     -130.293        5.885      149.970       83.795       62.656    22490.951     7021.664     3925.759        4.198        1.672      224.719       71.579        0.101      346.626       25.005      857.467
06/05/2014  21:47:00     -165.704     -136.619        9.955      119.781       93.750       61.894    14347.446     8789.054     3830.866        3.659        1.348      214.762       67.943        0.100      346.618       24.994      857.468
06/05/2014  21:48:00     -331.581     -173.816      -13.361      149.878      102.358       62.117    22463.380    10477.111     3858.490        8.856        1.840      374.377       64.175        0.029      346.694       25.121      857.473
06/05/2014  21:49:00     -315.961      -28.479       -8.577      133.997      108.714       59.195    17955.198    11818.639     3503.996        6.699        1.664      317.242       65.627        0.043      346.604       24.967      857.489
06/05/2014  21:50:00     -158.088      -26.873       -8.092       85.640       74.317       41.723     7334.279     5523.022     1740.788        2.019        0.730      160.355       44.532        0.077      346.439       24.685      857.512
06/05/2014  21:51:00     -272.787     -143.754      -12.344      113.175       97.449       55.025    12808.676     9496.235     3027.796        6.028        1.267      308.347       54.564        0.031      346.447       24.698      857.534
06/05/2014  21:52:00     -244.272      -69.333      -19.597      121.433       79.374       48.932    14745.911     6300.202     2394.300        4.415        1.172      253.921       54.838        0.047      346.468       24.735      857.565
06/05/2014  21:53:00     -286.308      -86.107      -17.756      116.523      105.059       42.286    13577.603    11037.497     1788.093        5.805        1.320      298.976       27.447        0.008      346.535       24.847      857.602
06/05/2014  21:54:00     -267.823      -85.379       -4.525      117.022       95.228       51.049    13694.061     9068.301     2605.994        5.220        1.268      281.103       53.580        0.036      346.550       24.876      857.634
06/05/2014  21:55:00     -218.878      -55.237        7.145      110.641       91.469       54.357    12241.377     8366.648     2954.668        3.728        1.178      225.740       61.500        0.074      346.532       24.844      857.662
06/05/2014  21:56:00     -248.960      -59.518        1.883      111.990       92.552       50.908    12541.837     8565.780     2591.574        4.461        1.185      255.976       57.744        0.051      346.529       24.837      857.689
06/05/2014  21:57:00     -273.203      -13.596       -7.940       93.289       90.170       52.182     8702.879     8130.643     2722.952        4.722        0.978      273.541       47.790        0.031      346.516       24.816      857.717
06/05/2014  21:58:00     -331.924      -18.634      -23.875      102.486       83.049       53.052    10503.438     6897.079     2814.496        6.565        1.011      332.446       50.387        0.023      346.558       24.888      857.748
06/05/2014  21:59:00     -210.506      -60.158        9.592      102.811       89.455       56.883    10570.054     8002.239     3235.621        3.491        1.090      218.933       52.390        0.057      346.438       24.682      857.757
06/05/2014  22:00:00     -187.771      -69.890       -4.253      103.739       98.567       59.306    10761.819     9715.393     3517.195        3.207        1.200      200.356       51.481        0.066      346.411       24.635      857.755
06/05/2014  22:01:00     -245.854      -98.694        1.222      157.426      149.842       63.624    24782.976    22452.481     4048.032        6.072        2.564      264.924       79.581        0.090      346.477       24.750      857.756
06/05/2014  22:02:00     -227.227     -118.004        1.649      161.874      126.005       60.379    26203.204    15877.198     3645.673        5.563        2.286      256.041       53.624        0.044      346.491       24.774      857.760
06/05/2014  22:03:00     -212.396      -41.036      -12.104      149.434       98.624       59.540    22330.575     9726.777     3544.990        4.127        1.780      216.324       74.080        0.117      346.486       24.766      857.778
06/05/2014  22:04:00     -244.187      -77.960      -20.899      143.672       83.121       55.805    20641.654     6909.104     3114.234        4.840        1.533      256.331       64.173        0.063      346.440       24.686      857.800
06/05/2014  22:05:00     -220.235      -58.140        6.916      141.041       77.255       56.863    19892.479     5968.366     3233.350        4.051        1.455      227.780       68.593        0.091      346.406       24.628      857.818
06/05/2014  22:06:00     -231.508     -119.361        0.273      151.072       82.974       62.277    22822.669     6884.644     3878.449        5.071        1.679      260.467       73.066        0.079      346.418       24.648      857.830
06/05/2014  22:07:00     -137.783     -113.376       -2.203       96.987       76.155       46.065     9406.561     5799.550     2121.979        2.458        0.866      178.433       45.256        0.064      346.386       24.596      857.842
06/05/2014  22:08:00     -221.401     -135.794      -12.105       81.681       83.025       51.476     6671.736     6893.097     2649.802        4.191        0.811      259.728       43.667        0.028      346.353       24.535      857.859
06/05/2014  22:09:00     -201.591     -100.538       -2.931      131.636       75.316       55.248    17328.116     5672.494     3052.312        3.840        1.303      225.271       60.253        0.072      346.355       24.540      857.871
06/05/2014  22:10:00     -230.769      -55.436      -14.598      115.706       88.807       59.093    13387.792     7886.606     3492.023        4.065        1.238      237.334       62.990        0.070      346.329       24.496      857.887
06/05/2014  22:11:00     -184.921      -71.699        2.868      139.452       90.404       52.062    19446.997     8172.873     2710.402        3.483        1.517      198.334       62.044        0.098      346.359       24.547      857.906
06/05/2014  22:12:00     -214.979      -87.583        3.246       99.372       82.207       47.788     9874.837     6757.982     2283.737        3.640        0.946      232.136       46.836        0.041      346.270       24.393      857.926
06/05/2014  22:13:00     -256.915     -136.320       -5.297       99.935       74.991       48.275     9987.050     5623.607     2330.520        5.128        0.897      290.841       43.518        0.022      346.272       24.396      857.956
06/05/2014  22:14:00     -275.459      -61.474       -9.207      147.892       91.644       55.018    21872.148     8398.701     3026.972        5.651        1.665      282.235       71.912        0.065      346.309       24.460      857.977
06/05/2014  22:15:00     -244.209      -41.535      -17.145      149.375       97.564       58.714    22312.889     9518.740     3447.374        4.846        1.764      247.716       71.959        0.084      346.313       24.468      857.992
06/05/2014  22:16:00     -179.279     -110.309        1.666       98.659      105.167       55.523     9733.585    11060.025     3082.846        3.409        1.194      210.497       57.673        0.075      346.336       24.507      857.991
06/05/2014  22:17:00     -191.650      -60.651        3.592       95.841       91.104       51.526     9185.588     8299.879     2654.940        3.028        1.007      201.018       49.684        0.061      346.301       24.448      858.030
06/05/2014  22:18:00     -212.429      -53.954      -10.527       77.471       51.159       40.899     6001.821     2617.196     1672.721        2.922        0.515      219.174       35.347        0.026      346.294       24.434      858.005
06/05/2014  22:19:00      -90.684      -34.502        4.104       77.363       59.669       47.165     5984.963     3560.418     2224.578        1.060        0.588       97.026       32.526        0.112      346.172       24.228      858.008
06/05/2014  22:20:00     -157.499      -19.928       -4.701       57.592       54.934       36.683     3316.847     3017.786     1345.669        1.645        0.384      158.755       26.944        0.029      346.221       24.311      858.008
06/05/2014  22:21:00     -217.146      -52.058       -1.253      100.543       93.556       49.925    10108.956     8752.640     2492.465        3.560        1.068      223.299       51.000        0.052      346.163       24.209      858.023
06/05/2014  22:22:00     -310.166     -130.393      -11.309      121.094       99.800       60.957    14663.808     9960.073     3715.733        7.083        1.417      336.460       59.784        0.032      346.323       24.485      858.009
06/05/2014  22:23:00     -225.675      -12.625      -12.219       75.395       95.471       41.824     5684.369     9114.652     1749.241        3.389        0.827      226.028       37.912        0.028      346.188       24.252      858.016
06/05/2014  22:24:00     -192.583      -78.566        0.078      115.239       94.981       51.602    13279.928     9021.386     2662.734        3.411        1.248      207.992       57.391        0.076      346.249       24.358      858.023
06/05/2014  22:25:00     -282.530      -77.766       -4.707      100.943      107.056       58.829    10189.468    11460.940     3460.899        5.550        1.256      293.037       53.417        0.033      346.284       24.416      858.023
06/05/2014  22:26:00     -270.687     -100.859       -6.297      127.037      127.728       61.474    16138.326    16314.354     3779.027        5.985        1.812      288.866       63.966        0.049      346.299       24.444      858.022
06/05/2014  22:27:00     -184.893      -39.641       10.143      148.705       85.966       66.961    22113.169     7390.109     4483.810        3.492        1.699      189.094       75.061        0.158      346.168       24.217      858.029
06/05/2014  22:28:00     -166.104     -113.468       -8.383      116.855       70.160       56.574    13655.165     4922.457     3200.638        3.115        1.089      201.160       61.241        0.093      346.214       24.296      858.037
06/05/2014  22:29:00     -148.480      -64.357        3.027       91.216       85.318       52.757     8320.320     7279.204     2783.305        2.229        0.919      161.828       45.218        0.078      346.145       24.179      858.035
06/05/2014  22:30:00     -139.281      -81.037        8.846      108.488      104.293       50.094    11769.673    10876.997     2509.441        2.560        1.258      161.140       59.543        0.137      346.146       24.181      858.039
06/05/2014  22:31:00     -264.233     -125.593       -6.575      118.109       90.023       59.837    13949.653     8104.199     3580.482        5.563        1.282      292.562       68.418        0.055      346.237       24.337      858.033
06/05/2014  22:32:00     -147.635      -59.834        4.563      143.725       88.171       56.673    20656.843     7774.134     3211.796        2.851        1.582      159.299       69.273        0.189      346.165       24.213      858.042
06/05/2014  22:33:00     -274.147     -132.500      -14.199      175.096      114.030       74.374    30658.700    13002.945     5531.429        7.104        2.460      304.488       84.093        0.076      346.281       24.413      858.040
06/05/2014  22:34:00     -275.195      -59.367      -22.689      139.125       83.757       60.199    19355.787     7015.181     3623.956        5.488        1.500      281.526       75.757        0.072      346.268       24.390      858.053
06/05/2014  22:35:00     -360.252      -78.507      -28.308      111.176       95.014       50.107    12360.149     9027.747     2510.753        8.032        1.195      368.707       52.847        0.021      346.317       24.474      858.063
06/05/2014  22:36:00     -284.503     -127.628      -24.088      100.604       68.011       45.236    10121.201     4625.505     2046.328        5.730        0.840      311.818       31.866        0.010      346.343       24.518      858.053
06/05/2014  22:37:00     -165.737     -100.300       -6.444       84.078       91.963       53.862     7069.130     8457.239     2901.145        2.800        0.921      193.724       39.581        0.042      346.304       24.454      858.052
06/05/2014  22:38:00     -187.501      -63.264        5.474      103.760       82.634       46.967    10766.222     6828.458     2205.897        2.949        0.990      197.886       50.343        0.065      346.283       24.416      858.057
06/05/2014  22:39:00     -300.157     -100.008       -9.241       88.623       79.601       42.000     7853.971     6336.295     1764.006        5.806        0.798      316.379       36.505        0.013      346.292       24.429      858.070
06/05/2014  22:40:00     -173.753      -26.836       11.733      168.220       91.064       60.877    28298.089     8292.620     3705.970        3.566        2.015      175.813       81.037        0.212      346.208       24.289      858.058
06/05/2014  22:41:00     -165.866      -40.780       -5.071       93.272       83.629       44.150     8699.609     6993.776     1949.233        2.342        0.882      170.805       47.106        0.076      346.238       24.340      858.049
06/05/2014  22:42:00     -309.205     -104.025       -9.231       93.163       86.940       52.689     8679.290     7558.562     2776.167        6.276        0.951      326.234       49.232        0.023      346.268       24.389      858.046
06/05/2014  22:43:00     -180.635      -70.466       -2.326      117.929       95.197       52.407    13907.266     9062.444     2746.464        3.165        1.286      193.893       58.919        0.092      346.262       24.380      858.046
06/05/2014  22:44:00     -160.438      -88.943        3.842      112.260       94.552       53.207    12602.234     8940.035     2830.982        2.901        1.219      183.443       68.150        0.138      346.245       24.352      858.032
06/05/2014  22:45:00     -210.513      -90.620      -11.444       96.931       82.656       46.651     9395.550     6831.995     2176.276        3.553        0.920      229.189       36.813        0.026      346.285       24.419      858.030
06/05/2014  22:46:00     -301.771     -121.266       -8.232      109.543       97.033       47.207    11999.600     9415.399     2228.497        6.474        1.182      325.225       42.271        0.017      346.298       24.441      858.033
06/05/2014  22:47:00     -310.950     -176.950       -8.915      130.703      100.392       61.227    17083.227    10078.568     3748.708        7.949        1.546      357.772       56.637        0.025      346.314       24.468      858.032
06/05/2014  22:48:00     -217.823     -147.876      -10.694      114.938       81.296       56.056    13210.840     6608.983     3142.222        4.619        1.148      263.276       60.614        0.053      346.306       24.456      858.021
06/05/2014  22:49:00     -304.974     -139.892      -10.616      134.416       78.247       64.639    18067.743     6122.569     4178.137        7.052        1.418      335.528       76.084        0.051      346.295       24.435      858.026
06/05/2014  22:50:00     -208.244     -104.270        4.464      109.781       75.780       56.629    12051.941     5742.624     3206.787        3.763        1.050      232.890       60.224        0.067      346.232       24.329      858.027
06/05/2014  22:51:00     -183.444      -66.819       13.170      116.398       92.519       54.933    13548.538     8559.727     3017.680        3.170        1.256      195.234       55.533        0.081      346.194       24.262      858.016
06/05/2014  22:52:00     -305.153     -110.729      -18.211      185.686      130.506       64.996    34479.409    17031.738     4224.480        8.071        2.787      324.621       83.691        0.066      346.332       24.500      858.011
06/05/2014  22:53:00     -403.148      -58.037      -32.079      134.446      150.845       58.336    18075.814    22754.177     3403.126       10.557        2.212      407.304       56.808        0.019      346.298       24.442      858.009
06/05/2014  22:54:00     -184.380      -52.121       10.174      133.107      111.722       64.288    17717.531    12481.826     4132.981        3.557        1.717      191.605       77.213        0.162      346.180       24.238      858.002
06/05/2014  22:55:00     -245.865      -89.382       -3.437       93.527      101.141       47.107     8747.241    10229.441     2219.112        4.482        1.060      261.608       49.650        0.036      346.246       24.351      858.020
06/05/2014  22:56:00     -230.830     -150.264        4.999      148.076      115.559       68.466    21926.394    13353.965     4687.626        5.792        1.998      275.431       70.074        0.065      346.259       24.374      858.031
06/05/2014  22:57:00     -141.089      -35.907        5.835       88.919       79.058       43.742     7906.519     6250.233     1913.350        1.865        0.804      145.587       38.213        0.069      346.166       24.217      858.045
06/05/2014  22:58:00     -288.898      -55.977      -25.311      108.035       79.240       48.833    11671.502     6278.999     2384.665        5.378        1.017      294.271       50.269        0.029      346.206       24.283      858.040
06/05/2014  22:59:00     -188.737      -40.690       -5.629       79.330       80.292       46.054     6293.258     6446.864     2120.993        2.608        0.743      193.074       41.294        0.046      346.118       24.132      858.038
06/05/2014  23:00:00     -171.044      -52.021       -3.717       83.847       74.701       47.768     7030.314     5580.312     2281.759        2.343        0.745      178.780       40.646        0.052      346.130       24.154      858.039
06/05/2014  23:01:00     -292.692      -62.798      -11.970       99.884       86.451       55.440     9976.888     7473.850     3073.617        5.514        1.026      299.353       59.107        0.039      346.196       24.266      858.038
06/05/2014  23:02:00     -165.294      -49.859      -14.377       96.421       65.645       38.332     9297.040     4309.242     1469.340        2.254        0.754      172.650       44.610        0.067      346.033       23.987      858.050
06/05/2014  23:03:00     -173.859      -53.215        4.800       94.065       53.070       40.901     8848.317     2816.444     1672.930        2.321        0.667      181.821       49.260        0.073      346.096       24.096      858.043
06/05/2014  23:04:00     -146.810      -38.222        5.977       89.135       51.913       33.665     7945.013     2694.955     1133.316        1.741        0.589      151.704       38.101        0.063      346.067       24.047      858.021
06/05/2014  23:05:00     -157.371      -39.918        5.374       70.225       71.580       35.573     4931.615     5123.731     1265.448        1.885        0.566      162.355       33.433        0.042      346.021       23.967      858.012
06/05/2014  23:06:00     -161.181      -35.991        5.203       92.157       63.234       35.541     8492.883     3998.536     1263.168        2.053        0.688      165.150       46.670        0.080      345.958       23.858      858.009
06/05/2014  23:07:00     -149.882      -61.044       13.728      128.989       91.636       55.936    16638.218     8397.109     3128.795        2.727        1.408      161.836       56.242        0.121      346.143       24.176      857.998
06/05/2014  23:08:00     -144.704      -61.132       -3.734       66.307       64.762       36.437     4396.653     4194.152     1327.679        1.730        0.496      157.087       32.377        0.042      346.049       24.017      858.001
06/05/2014  23:09:00     -155.601      -76.604       -3.335       70.392       60.950       30.101     4955.017     3714.933      906.092        1.983        0.479      173.436       33.664        0.038      346.034       23.987      858.001
06/05/2014  23:10:00     -147.606      -48.870       -1.393       76.319       51.895       39.906     5824.553     2693.079     1592.516        1.714        0.506      155.486       39.934        0.066      345.991       23.917      858.004
06/05/2014  23:11:00     -186.085      -98.977       -2.784       85.749       67.011       40.520     7352.870     4490.428     1641.850        2.896        0.674      210.770       41.480        0.039      346.027       23.976      858.021
06/05/2014  23:12:00     -267.052     -105.077       -9.270       71.101       74.791       41.076     5055.400     5593.721     1687.234        4.739        0.617      286.981       35.392        0.015      346.062       24.034      858.022
06/05/2014  23:13:00     -146.097      -89.854       -6.771       98.134       81.219       40.205     9630.293     6596.573     1616.420        2.365        0.892      171.517       36.716        0.046      346.049       24.014      858.032
06/05/2014  23:14:00     -228.039      -56.916      -18.720      104.503       82.661       48.240    10920.777     6832.770     2327.089        3.783        1.004      235.035       48.134        0.042      346.080       24.069      858.032
06/05/2014  23:15:00     -197.321     -122.103      -14.079       78.400       43.191       34.903     6146.486     1865.499     1218.226        3.163        0.462      232.045       39.477        0.029      346.077       24.061      858.036
06/05/2014  23:16:00     -141.522      -83.527       -4.994       80.869       51.640       36.730     6539.803     2666.658     1349.124        1.879        0.528      164.333       40.228        0.060      346.005       23.940      858.042
06/05/2014  23:17:00     -113.864      -75.177        0.460       81.254       51.544       46.036     6602.210     2656.823     2119.348        1.500        0.569      136.443       45.858        0.113      346.041       24.002      858.047
06/05/2014  23:18:00     -156.251      -48.803        0.224       61.066       44.275       22.752     3729.053     1960.271      517.674        1.650        0.310      163.695       27.313        0.028      345.890       23.743      858.054
06/05/2014  23:19:00     -229.708     -124.792       -4.649       77.760       60.570       32.798     6046.671     3668.670     1075.714        3.957        0.540      261.417       35.640        0.019      345.972       23.881      858.049
06/05/2014  23:20:00     -222.551      -85.408       -9.994       67.396       51.464       30.880     4542.184     2648.562      953.596        3.253        0.407      238.377       29.353        0.015      346.004       23.935      858.034
06/05/2014  23:21:00     -232.984     -118.838       -9.742       77.816       73.662       39.323     6055.338     5426.089     1546.265        4.076        0.651      261.542       36.166        0.019      345.929       23.809      858.044
06/05/2014  23:22:00     -142.839      -62.479       13.167      138.016       88.639       49.935    19048.388     7856.917     2493.534        2.693        1.470      155.906       71.232        0.209      345.928       23.808      858.039
06/05/2014  23:23:00     -188.366     -125.066        1.505      105.974      104.816       59.371    11230.476    10986.314     3524.965        3.843        1.287      226.105       52.834        0.055      345.989       23.910      858.036
06/05/2014  23:24:00     -226.801     -149.014      -11.643      118.546      111.543       59.079    14053.146    12441.831     3490.316        5.188        1.499      271.374       65.742        0.059      346.029       23.979      858.042
06/05/2014  23:25:00     -141.194      -88.043       11.443       94.301       74.210       50.413     8892.707     5507.126     2541.444        2.238        0.847      166.395       47.995        0.083      345.976       23.889      858.037
06/05/2014  23:26:00     -171.613     -114.984       -2.335      100.715       87.147       50.892    10143.564     7594.548     2590.041        3.150        1.016      206.573       57.545        0.078      345.932       23.812      858.033
06/05/2014  23:27:00     -175.491     -104.667       11.413      137.724      123.726       56.245    18967.772    15308.115     3163.523        3.965        1.872      204.334       68.457        0.112      345.941       23.830      858.020
06/05/2014  23:28:00     -215.136     -100.698        3.601      123.564       80.796       45.750    15268.007     6528.015     2093.046        4.016        1.194      237.536       55.608        0.055      345.971       23.880      858.010
06/05/2014  23:29:00     -304.902     -170.237       -4.169      110.658       94.111       54.348    12245.154     8856.867     2953.705        7.300        1.203      349.207       48.296        0.019      346.075       24.057      858.017
06/05/2014  23:30:00     -280.100     -140.565       -6.722       80.742       72.499       55.057     6519.318     5256.120     3031.243        5.653        0.740      313.392       45.097        0.021      346.048       24.011      858.004
06/05/2014  23:31:00     -227.240     -123.356       -2.137      115.193       90.870       53.143    13269.517     8257.385     2824.231        4.560        1.218      258.563       48.084        0.035      346.030       23.982      858.028
06/05/2014  23:32:00     -205.958      -96.105       -1.899       89.567       60.426       41.587     8022.192     3651.257     1729.482        3.253        0.670      227.277       37.662        0.027      346.043       24.003      858.033
06/05/2014  23:33:00     -307.848     -142.847      -14.696      120.336      105.006       62.586    14480.656    11026.251     3917.037        7.240        1.471      339.376       60.459        0.032      346.072       24.052      858.044
06/05/2014  23:34:00     -173.863      -69.258        8.594      111.721       81.804       55.491    12481.634     6691.902     3079.299        2.867        1.113      187.150       58.623        0.098      346.016       23.958      858.039
06/05/2014  23:35:00     -175.213      -85.883        3.194       91.849       90.440       47.148     8436.301     8179.382     2222.903        2.846        0.942      195.129       46.947        0.058      345.951       23.847      858.035
06/05/2014  23:36:00     -130.681     -101.648        4.654      108.414       77.487       44.307    11753.598     6004.169     1963.130        2.357        0.986      165.559       46.809        0.080      345.932       23.813      858.027
06/05/2014  23:37:00     -161.839      -55.138        6.602       95.100       91.907       52.000     9044.013     8446.836     2703.962        2.473        1.010      170.973       43.675        0.065      345.889       23.740      858.040
06/05/2014  23:38:00     -135.843      -12.484        3.531       87.239       65.311       48.469     7610.718     4265.528     2349.242        1.642        0.711      136.415       38.043        0.078      345.835       23.649      858.071
06/05/2014  23:39:00     -183.964     -125.931       -8.441      102.799       87.855       46.849    10567.649     7718.454     2194.857        3.512        1.024      222.938       42.974        0.037      345.947       23.839      858.085
06/05/2014  23:40:00      -30.576      -42.215       39.249       69.326       71.571       47.292     4806.078     5122.392     2236.500        0.821        0.608       52.125       51.695        0.984      345.785       23.563      858.104
06/05/2014  23:41:00      -83.922      -38.867       14.886       92.693       61.152       41.683     8592.030     3739.585     1737.468        1.142        0.703       92.486       44.109        0.227      345.798       23.586      858.118
06/05/2014  23:42:00      -79.075      -11.244        6.189       50.710       31.198       25.943     2571.466      973.305      673.052        0.532        0.211       79.871       28.925        0.131      345.840       23.658      858.128
06/05/2014  23:43:00      -53.391        1.398       -2.267       30.717       34.959       22.229      943.516     1222.165      494.142        0.276        0.133       53.409       18.198        0.116      345.782       23.558      858.135
06/05/2014  23:44:00      -75.773        6.785       -4.352       41.601       44.796       20.464     1730.615     2006.666      418.789        0.498        0.208       76.076       24.908        0.107      345.851       23.676      858.146
06/05/2014  23:45:00     -104.430       13.720      -10.344       48.545       29.971       18.907     2356.665      898.248      357.459        0.741        0.181      105.327       20.175        0.037      345.844       23.663      858.164
06/05/2014  23:46:00     -100.744       32.202      -15.770       47.997       74.878       30.634     2303.748     5606.646      938.451        1.014        0.442      105.765       26.465        0.063      345.888       23.739      858.177
06/05/2014  23:47:00        2.412       50.856      -24.226       47.151       33.209       14.287     2223.214     1102.828      204.118        0.335        0.177       50.913        7.213        0.020      345.741       23.486      858.186
06/05/2014  23:48:00       53.226       94.837      -17.664       48.058       53.087       22.493     2309.593     2818.245      505.919        0.889        0.282      108.753       20.407        0.035      345.581       23.214      858.198
06/05/2014  23:49:00       53.689       49.239        2.222       48.484       41.448       22.013     2350.711     1717.898      484.583        0.493        0.228       72.849       20.256        0.077      345.525       23.117      858.210
06/05/2014  23:50:00       42.311      144.814      -28.374       31.912       46.117       22.812     1018.380     2126.778      520.399        1.362        0.183      150.869       23.162        0.024      345.758       23.517      858.231
06/05/2014  23:51:00       49.524       94.099      -18.459       41.943       46.070       28.507     1759.211     2122.459      812.670        0.817        0.235      106.336       25.359        0.057      345.768       23.534      858.238
06/05/2014  23:52:00       83.122       58.777        3.724       23.856       20.180       19.312      569.101      407.227      372.937        0.586        0.067      101.804       10.938        0.012      345.671       23.369      858.246
06/05/2014  23:53:00        1.789       44.242       -6.801       26.014       29.299       19.046      676.736      858.458      362.756        0.195        0.095       44.279       13.880        0.098      345.847       23.671      858.247
06/05/2014  23:54:00      -13.802       31.670       -0.505       18.658       35.436       13.356      348.107     1255.713      178.385        0.149        0.089       34.547       12.773        0.137      345.820       23.622      858.245
06/05/2014  23:55:00       49.586      119.167      -22.930       21.957       37.510       19.457      482.125     1407.037      378.594        0.973        0.113      129.072       21.287        0.027      345.805       23.597      858.241
06/05/2014  23:56:00       -9.841      115.782      -30.590       42.444       56.456       23.209     1801.524     3187.248      538.640        0.998        0.276      116.200       23.576        0.041      346.188       24.257      858.236
06/05/2014  23:57:00      -18.833       33.718      -14.644       26.172       22.720       20.835      684.990      516.193      434.103        0.167        0.082       38.621        7.570        0.038      346.064       24.042      858.235
06/05/2014  23:58:00        1.643       57.615       -8.737       34.645       25.222       10.923     1200.266      636.170      119.307        0.268        0.098       57.639       14.717        0.065      345.862       23.694      858.242
06/05/2014  23:59:00      -16.381      -97.336        2.025       32.065       67.760       24.824     1028.187     4591.442      616.240        0.799        0.312       98.705       29.861        0.092      345.870       23.710      858.246
